[[{"header":{"parameterUnit":"m.s-1","parameterCategory":1,"la1":30.6,"la2":29.2853,"lo1":-89.7004,"lo2":-87.6739,"dy":0.0162,"dx":0.0183,"nx":112,"ny":82,"refTime":"2023-11-17T06:00:00:Z","depth":0,"parameterNumber":2,"parameterNumberName":"U-component_of_WINDS"},"data":[0.0,0.0,0.0,0.0,0.0,0.0,0.0,0.0,0.0,0.0,0.0,0.0,0.0,0.0,0.0,0.0,0.0,0.0,0.0,0.0,0.0,0.0,0.0,0.0,0.0,0.0,0.0,0.0,0.0,0.0,0.0,0.0,0.0,0.0,0.0,0.0,0.0,0.0,0.0,0.0,0.0,0.0,0.0,0.0,0.0,0.0,0.0,0.0,0.0,0.0,0.0,0.0,0.0,0.0,0.0,0.0,0.0,0.0,0.0,0.0,0.0,0.0,0.0,0.0,0.0,0.0,0.0,0.0,0.0,0.0,0.0,0.0,0.0,0.0,0.0,0.0,0.0,0.0,0.0,0.0,0.0,0.0,0.0,0.0,0.0,0.0,0.0,0.0,0.0,0.0,0.0,2.4694,2.4394,2.3901,2.3319,2.2793,2.1649,1.9662,0.0,0.0,0.0,0.0,0.0,0.0,0.0,0.0,0.0,0.0,0.0,0.0,0.0,0.0,0.0,0.0,0.0,0.0,0.0,0.0,0.0,0.0,0.0,0.0,0.0,0.0,0.0,0.0,0.0,0.0,0.0,0.0,0.0,0.0,0.0,0.0,0.0,0.0,0.0,0.0,0.0,0.0,0.0,0.0,0.0,0.0,0.0,0.0,0.0,0.0,0.0,0.0,0.0,0.0,0.0,0.0,0.0,0.0,0.0,0.0,0.0,0.0,0.0,0.0,0.0,0.0,0.0,0.0,0.0,0.0,0.0,0.0,0.0,0.0,0.0,0.0,0.0,0.0,0.0,0.0,0.0,0.0,0.0,0.0,0.0,0.0,0.0,0.0,0.0,0.0,0.0,0.0,0.0,0.0,0.0,0.0,0.0,0.0,0.0,0.0,0.0,0.0,0.0,0.0,2.4323,2.467,2.4689,2.4399,2.3667,2.313,2.1781,1.9426,0.0,0.0,0.0,0.0,0.0,0.0,0.0,0.0,0.0,0.0,0.0,0.0,0.0,0.0,0.0,0.0,0.0,0.0,0.0,0.0,0.0,0.0,0.0,0.0,0.0,0.0,0.0,0.0,0.0,0.0,0.0,0.0,0.0,0.0,0.0,0.0,0.0,0.0,0.0,0.0,0.0,0.0,0.0,0.0,0.0,0.0,0.0,0.0,0.0,0.0,0.0,0.0,0.0,0.0,0.0,0.0,0.0,0.0,0.0,0.0,0.0,0.0,0.0,0.0,0.0,0.0,0.0,0.0,0.0,0.0,0.0,0.0,0.0,0.0,0.0,0.0,0.0,0.0,0.0,0.0,0.0,0.0,0.0,0.0,0.0,0.0,0.0,0.0,0.0,0.0,0.0,0.0,0.0,0.0,0.0,0.0,0.0,0.0,0.0,0.0,0.0,0.0,0.0,2.4048,2.4362,2.4217,2.4491,2.4511,2.4062,2.3364,2.2228,2.0544,1.9713,0.0,0.0,0.0,0.0,0.0,0.0,0.0,0.0,0.0,0.0,0.0,0.0,0.0,0.0,0.0,0.0,0.0,0.0,0.0,0.0,0.0,0.0,0.0,0.0,0.0,0.0,0.0,0.0,0.0,0.0,0.0,0.0,0.0,0.0,0.0,0.0,0.0,0.0,0.0,0.0,0.0,0.0,0.0,0.0,0.0,0.0,0.0,0.0,0.0,0.0,0.0,0.0,0.0,0.0,0.0,0.0,0.0,0.0,0.0,0.0,0.0,0.0,0.0,0.0,0.0,0.0,0.0,0.0,0.0,0.0,0.0,0.0,0.0,0.0,0.0,0.0,0.0,0.0,0.0,0.0,0.0,0.0,0.0,0.0,0.0,0.0,0.0,0.0,0.0,0.0,0.0,0.0,0.0,0.0,0.0,0.0,0.0,0.0,0.0,0.0,0.0,0.0,2.4045,2.4173,2.3841,2.43,2.4596,2.4477,2.3712,2.2723,2.1537,1.9996,0.0,0.0,0.0,0.0,0.0,0.0,0.0,0.0,0.0,0.0,0.0,0.0,0.0,0.0,0.0,0.0,0.0,0.0,0.0,0.0,0.0,0.0,0.0,0.0,0.0,0.0,0.0,0.0,0.0,0.0,0.0,0.0,0.0,0.0,0.0,0.0,0.0,0.0,0.0,0.0,0.0,0.0,0.0,0.0,0.0,0.0,0.0,0.0,0.0,0.0,0.0,0.0,0.0,0.0,0.0,0.0,0.0,0.0,0.0,0.0,0.0,0.0,0.0,0.0,0.0,0.0,0.0,0.0,0.0,0.0,0.0,0.0,0.0,0.0,0.0,0.0,0.0,0.0,0.0,0.0,0.0,0.0,0.0,0.0,0.0,0.0,0.0,0.0,0.0,0.0,0.0,0.0,0.0,0.0,0.0,0.0,0.0,0.0,0.0,0.0,0.0,0.0,2.3802,2.3767,2.3803,2.439,2.4826,2.4944,2.4277,2.3135,2.1508,2.0575,0.0,0.0,0.0,0.0,0.0,0.0,0.0,0.0,0.0,0.0,0.0,0.0,0.0,0.0,0.0,0.0,0.0,0.0,0.0,0.0,0.0,0.0,0.0,0.0,0.0,0.0,0.0,0.0,0.0,0.0,0.0,0.0,0.0,0.0,0.0,0.0,0.0,0.0,0.0,0.0,0.0,0.0,0.0,0.0,0.0,0.0,0.0,0.0,0.0,0.0,0.0,0.0,0.0,0.0,0.0,0.0,0.0,0.0,0.0,0.0,0.0,0.0,0.0,0.0,0.0,0.0,0.0,0.0,0.0,0.0,0.0,0.0,0.0,0.0,0.0,0.0,0.0,0.0,0.0,0.0,0.0,0.0,0.0,0.0,0.0,0.0,0.0,0.0,0.0,0.0,0.0,0.0,0.0,0.0,0.0,0.0,0.0,0.0,0.0,0.0,0.0,0.0,2.3967,2.3945,0.0,2.4441,2.4894,2.499,2.4547,2.3583,2.2005,0.0,0.0,0.0,0.0,0.0,0.0,0.0,0.0,0.0,0.0,0.0,0.0,0.0,0.0,0.0,0.0,0.0,0.0,0.0,0.0,0.0,0.0,0.0,0.0,0.0,0.0,0.0,0.0,0.0,0.0,0.0,0.0,0.0,0.0,0.0,0.0,0.0,0.0,0.0,0.0,0.0,0.0,0.0,0.0,0.0,0.0,0.0,0.0,0.0,0.0,0.0,0.0,0.0,0.0,0.0,0.0,0.0,0.0,0.0,0.0,0.0,0.0,0.0,0.0,0.0,0.0,0.0,0.0,0.0,0.0,0.0,0.0,0.0,0.0,0.0,0.0,0.0,0.0,0.0,0.0,0.0,0.0,0.0,0.0,0.0,0.0,0.0,0.0,0.0,0.0,0.0,0.0,0.0,0.0,0.0,0.0,0.0,0.0,0.0,0.0,0.0,0.0,2.3921,2.3985,2.3983,0.0,2.4465,2.4946,2.5076,2.4736,2.3874,2.2387,0.0,0.0,0.0,0.0,0.0,0.0,0.0,0.0,0.0,0.0,0.0,0.0,0.0,0.0,0.0,0.0,0.0,0.0,0.0,0.0,0.0,0.0,0.0,0.0,0.0,0.0,0.0,0.0,0.0,0.0,0.0,0.0,0.0,0.0,0.0,0.0,0.0,0.0,0.0,0.0,0.0,0.0,0.0,0.0,0.0,0.0,0.0,0.0,0.0,0.0,0.0,0.0,0.0,0.0,0.0,0.0,0.0,0.0,0.0,0.0,0.0,0.0,0.0,0.0,0.0,0.0,0.0,0.0,0.0,0.0,0.0,0.0,0.0,0.0,0.0,0.0,0.0,0.0,0.0,0.0,0.0,0.0,0.0,0.0,0.0,0.0,0.0,0.0,0.0,0.0,0.0,0.0,0.0,0.0,0.0,0.0,0.0,0.0,0.0,0.0,0.0,0.0,2.3883,2.3779,2.3726,2.3785,2.4465,2.5011,2.527,2.481,2.3923,0.0,0.0,0.0,0.0,0.0,0.0,0.0,0.0,0.0,0.0,0.0,0.0,0.0,0.0,0.0,0.0,0.0,0.0,0.0,0.0,0.0,0.0,0.0,0.0,0.0,0.0,0.0,0.0,0.0,0.0,0.0,0.0,0.0,0.0,0.0,0.0,0.0,0.0,0.0,0.0,0.0,0.0,0.0,0.0,0.0,0.0,0.0,0.0,0.0,0.0,0.0,0.0,0.0,0.0,0.0,0.0,0.0,0.0,0.0,0.0,0.0,0.0,0.0,0.0,0.0,0.0,0.0,0.0,0.0,0.0,0.0,0.0,0.0,0.0,0.0,0.0,0.0,0.0,0.0,0.0,0.0,0.0,0.0,0.0,0.0,0.0,0.0,0.0,0.0,0.0,0.0,0.0,0.0,0.0,0.0,0.0,0.0,0.0,0.0,0.0,0.0,0.0,0.0,2.3631,2.3674,2.3726,2.3785,2.4465,2.5011,2.527,2.4983,2.4267,2.307,0.0,0.0,0.0,0.0,0.0,0.0,0.0,0.0,0.0,0.0,0.0,0.0,0.0,0.0,0.0,0.0,0.0,0.0,0.0,0.0,0.0,0.0,0.0,0.0,0.0,0.0,0.0,0.0,0.0,0.0,0.0,0.0,0.0,0.0,0.0,0.0,0.0,0.0,0.0,0.0,0.0,0.0,0.0,0.0,0.0,0.0,0.0,0.0,0.0,0.0,0.0,0.0,0.0,0.0,0.0,0.0,0.0,0.0,0.0,0.0,0.0,0.0,0.0,0.0,0.0,0.0,0.0,0.0,0.0,0.0,0.0,0.0,0.0,0.0,0.0,0.0,0.0,0.0,0.0,0.0,0.0,0.0,0.0,0.0,0.0,0.0,0.0,0.0,0.0,0.0,0.0,0.0,0.0,0.0,0.0,0.0,0.0,0.0,0.0,0.0,0.0,0.0,2.3506,2.362,2.3726,2.3785,2.4465,2.5011,2.527,2.5041,2.4412,2.3268,0.0,0.0,0.0,0.0,0.0,0.0,0.0,0.0,0.0,0.0,0.0,0.0,0.0,0.0,0.0,0.0,0.0,0.0,0.0,0.0,0.0,0.0,0.0,0.0,0.0,0.0,0.0,0.0,0.0,0.0,0.0,0.0,0.0,0.0,0.0,0.0,0.0,0.0,0.0,0.0,0.0,0.0,0.0,0.0,0.0,0.0,0.0,0.0,0.0,0.0,0.0,0.0,0.0,0.0,0.0,0.0,0.0,0.0,0.0,0.0,0.0,0.0,0.0,0.0,0.0,0.0,0.0,0.0,0.0,0.0,0.0,0.0,0.0,0.0,0.0,0.0,0.0,0.0,0.0,0.0,0.0,0.0,0.0,0.0,0.0,0.0,0.0,0.0,0.0,0.0,0.0,0.0,0.0,0.0,0.0,0.0,0.0,0.0,0.0,0.0,0.0,0.0,2.3527,2.3602,2.3687,2.3841,2.4465,2.5011,2.527,2.5041,2.4428,2.3345,0.0,0.0,0.0,0.0,0.0,0.0,0.0,0.0,0.0,0.0,0.0,0.0,0.0,0.0,0.0,0.0,0.0,0.0,0.0,0.0,0.0,0.0,0.0,0.0,0.0,0.0,0.0,0.0,0.0,0.0,0.0,0.0,0.0,0.0,0.0,0.0,0.0,0.0,0.0,0.0,0.0,0.0,0.0,0.0,0.0,0.0,0.0,0.0,0.0,0.0,0.0,0.0,0.0,0.0,0.0,0.0,0.0,0.0,0.0,0.0,-0.5899,0.0,0.0,0.0,0.0,0.0,0.0,0.0,0.0,0.0,0.0,0.0,0.0,0.0,0.0,0.0,0.0,0.0,0.0,0.0,0.0,0.0,0.0,0.0,0.0,0.0,0.0,0.0,0.0,0.0,0.0,0.0,0.0,0.0,0.0,0.0,0.0,0.0,0.0,0.0,0.0,0.0,2.3841,2.3574,2.3541,2.4133,2.4617,2.5011,2.527,2.5041,2.4551,2.371,0.0,0.0,0.0,0.0,0.0,0.0,0.0,0.0,0.0,0.0,0.0,0.0,0.0,0.0,0.0,0.0,0.0,0.0,0.0,0.0,0.0,0.0,0.0,0.0,0.0,0.0,0.0,0.0,0.0,0.0,0.0,0.0,0.0,0.0,0.0,0.0,0.0,0.0,0.0,0.0,0.0,0.0,0.0,0.0,0.0,0.0,0.0,0.0,0.0,0.0,0.0,0.0,0.0,0.0,0.0,0.0,0.0,0.0,0.0,0.0,0.0,-0.8909,0.0,0.0,0.0,0.0,0.0,0.0,0.0,0.0,0.0,0.0,0.0,0.0,0.0,0.0,0.0,0.0,0.0,0.0,0.0,0.0,0.0,0.0,0.0,0.0,0.0,0.0,0.0,0.0,0.0,0.0,0.0,0.0,0.0,0.0,0.0,0.0,0.0,0.0,0.0,0.0,2.3714,2.3842,2.3948,2.4273,2.4757,2.5107,2.529,2.5041,2.4586,2.3841,2.3213,0.0,0.0,0.0,0.0,0.0,0.0,0.0,0.0,0.0,0.0,0.0,0.0,0.0,0.0,0.0,0.0,0.0,0.0,0.0,0.0,0.0,0.0,0.0,0.0,0.0,0.0,0.0,0.0,0.0,0.0,0.0,0.0,0.0,0.0,0.0,0.0,0.0,0.0,0.0,0.0,0.0,0.0,0.0,0.0,0.0,0.0,0.0,0.0,0.0,0.0,0.0,0.0,0.0,-1.7233,-1.6646,-1.6281,-1.2178,-1.118,-1.2322,-0.8544,-0.9093,-1.2317,0.0,0.0,0.0,0.0,0.0,0.0,0.0,0.0,0.0,0.0,0.0,0.0,0.0,0.0,0.0,0.0,0.0,0.0,0.0,0.0,0.0,0.0,0.0,0.0,0.0,-0.1542,0.0794,0.0,0.0,0.0,0.0,0.0,0.0,0.0,0.0,0.0,0.0,0.0,0.0,2.3658,2.4249,2.4398,2.4236,2.4821,2.5175,2.5095,2.5018,2.464,2.3934,2.3487,2.2635,0.0,0.0,0.0,0.0,0.0,0.0,0.0,0.0,0.0,0.0,0.0,0.0,0.0,0.0,0.0,0.0,0.0,0.0,0.0,0.0,0.0,0.0,0.0,0.0,0.0,0.0,0.0,0.0,0.0,0.0,0.0,0.0,0.9497,-0.2468,0.0,0.0,0.0,0.0,0.0,0.0,0.0,0.0,0.0,0.0,0.0,0.0,0.0,0.0,-2.3673,-2.3379,-2.3145,-2.3096,-2.2184,-2.1145,-1.9817,-1.7613,-1.5412,-1.3306,-1.308,0.0,-1.3722,-1.2074,0.0,0.0,0.0,0.0,0.0,0.0,0.0,0.0,0.0,0.0,0.0,0.0,0.0,0.0,0.0,0.0,0.0,0.0,0.0,0.0,0.0,0.0,-0.4174,-0.4902,-0.5951,-0.654,0.0,-0.062,0.4523,0.6781,0.0,0.0,0.0,0.0,0.0,0.0,0.0,0.0,2.4419,2.4617,2.4211,2.391,2.4661,2.4945,2.4315,2.482,2.4898,2.4269,2.376,2.3084,2.2259,2.1518,0.0,0.0,0.0,0.0,0.0,0.0,0.0,0.0,0.0,0.0,0.0,0.0,0.0,0.0,0.0,0.0,0.0,0.0,0.0,0.0,0.0,0.0,0.0,0.0,0.0,0.0,0.0,0.0,0.0,1.0352,0.3135,-1.8408,-1.8834,-1.5724,0.0,0.0,0.0,0.0,0.0,0.0,0.0,0.0,0.0,-2.5326,-2.4523,-2.4334,-2.4859,-2.4371,-2.3885,-2.3262,-2.1767,-2.0646,-1.9819,-1.8461,-1.6542,-1.4381,-1.4151,-1.4064,-1.3815,-1.0652,-0.8024,-0.575,0.0,0.0,0.0,0.0,0.0,-0.5587,-0.6294,-0.7425,0.0,0.0,0.0,0.0,0.0,0.0,0.0,0.0,0.0,0.0,0.0,0.0,0.0,-0.704,-0.7731,-0.7922,-0.759,-0.5483,-0.1914,0.0,0.5969,0.7488,0.9307,0.0,0.0,0.0,0.0,0.0,2.3203,2.3467,2.3309,2.3188,2.4087,2.4529,2.414,2.4781,2.4927,2.4356,2.3801,2.3175,2.2437,2.22,2.1432,0.0,0.0,0.0,0.0,0.0,0.0,0.0,0.0,0.0,0.0,0.0,0.0,0.0,0.0,0.0,0.0,0.0,0.0,0.0,0.0,0.0,0.0,0.0,0.0,0.0,0.0,0.0,0.0,0.392,-0.6816,-3.1436,-2.5994,-1.9458,0.0,0.0,0.0,0.0,0.0,0.0,-2.7311,-2.6853,-2.6807,-2.7099,-2.5866,-2.5156,-2.5188,-2.4465,-2.3566,-2.2421,-2.0485,-1.9282,-1.8647,-1.7308,-1.591,-1.4409,-1.3903,-1.3475,-1.2788,-0.8733,-0.6833,-0.6473,-0.6491,-0.4599,-0.203,-0.3655,-0.5413,-0.7011,-0.6958,-0.7844,-0.8749,-0.7466,0.0,-0.0924,0.2854,0.0,0.0,0.0,0.0,-0.3428,-0.7162,-0.688,-0.6126,-0.8364,-0.8365,-0.7757,-0.7494,-0.7245,-0.5223,0.0,0.3387,0.5354,0.8502,0.0,0.0,0.0,0.0,1.9666,2.2226,2.2641,2.2614,2.2435,2.3321,2.3888,2.3787,2.4491,2.4798,2.4439,2.3897,2.3253,2.2559,2.2657,2.1918,2.018,0.0,0.0,0.0,0.0,0.0,0.0,0.0,0.0,0.0,0.0,0.0,0.0,0.0,0.0,0.0,0.0,0.0,0.0,0.0,0.0,0.0,0.0,0.0,0.0,0.0,0.0,0.0,0.0,0.0,-3.4246,-3.0196,0.0,0.0,0.0,0.0,-2.987,-3.0993,-3.0392,-2.8502,-2.8134,-2.7486,-2.6366,-2.6745,-2.6343,-2.5097,-2.4062,-2.2935,-2.172,-1.9844,-1.8271,-1.7045,-1.4772,-1.3341,-1.2691,-1.2521,-1.1601,-1.0248,-0.799,-0.7103,-0.7049,-0.707,-0.6928,-0.668,-0.6288,-0.6409,-0.6835,-0.7488,-0.7804,-0.803,-0.8846,-0.7742,-0.5206,-0.0969,0.0202,0.0,0.0,-0.3088,-0.6461,-0.6341,-0.728,-0.8349,-0.8485,-0.799,-0.75,-0.7491,-0.4763,-0.2244,0.0,0.1537,0.4747,0.5821,0.0,1.147,1.438,1.6412,1.8891,2.2506,2.2925,2.257,2.1749,2.2435,2.2948,2.2866,2.3724,2.4394,2.4747,2.415,2.3522,2.2899,2.234,2.1634,2.0785,2.0764,0.0,0.0,0.0,0.0,0.0,0.0,0.0,0.0,0.0,0.0,0.0,0.0,0.0,0.0,0.0,0.0,0.0,0.0,0.0,0.0,0.0,0.0,0.0,0.0,0.0,0.0,0.0,0.0,-3.4617,-3.1246,0.0,-2.4989,-2.2515,-2.3067,-2.7959,-2.9395,-2.94,-2.7859,-2.7383,-2.652,-2.5175,-2.4088,-2.305,-2.2076,-2.0688,-1.9525,-1.8522,-1.6149,-1.4488,-1.3475,-1.1405,-1.0389,-1.0118,-1.007,-0.9774,-0.9134,-0.6931,-0.6242,-0.6581,-0.6548,-0.6588,-0.6518,-0.6126,-0.6179,-0.649,-0.6887,-0.7057,-0.7112,-0.7319,-0.6911,-0.5957,-0.4059,-0.3301,-0.3111,-0.3121,-0.4689,-0.6579,-0.7158,-0.7286,-0.6709,-0.4449,-0.3308,-0.2512,-0.1878,-0.0738,0.1132,0.4247,0.4175,0.467,0.8066,1.024,1.2404,1.4951,1.6632,1.8343,2.0302,2.0019,1.9724,2.0016,2.0799,2.1723,2.2774,2.3683,2.4285,2.447,2.4043,2.3558,2.3047,2.236,2.1591,2.0684,2.0381,1.9344,0.0,0.0,0.0,0.0,0.0,0.0,0.0,0.0,0.0,0.0,0.0,0.0,0.0,0.0,0.0,0.0,0.0,0.0,0.0,0.0,0.0,0.0,0.0,0.0,0.0,0.0,-2.9332,-3.4841,-3.2598,-3.014,-2.8921,-2.6286,-2.5452,-2.7331,-2.8225,-2.8143,-2.6839,-2.624,-2.5029,-2.3063,-2.1928,-2.064,-1.9274,-1.7975,-1.6538,-1.5074,-1.3164,-1.1674,-1.049,-0.8184,-0.7118,-0.7136,-0.8115,-0.7861,-0.6675,-0.5744,-0.5654,-0.5992,-0.598,-0.596,-0.5967,-0.5816,-0.5953,-0.6118,-0.6352,-0.6453,-0.6508,-0.6345,-0.5309,-0.4084,-0.3692,-0.4151,-0.4733,-0.4776,-0.5177,-0.5558,-0.5288,-0.4875,-0.3827,-0.1242,0.0812,0.2226,0.2296,0.2943,0.4608,0.7998,0.6671,0.6101,0.9486,1.1479,1.326,1.522,1.6775,1.8072,1.8959,1.8317,1.8141,1.9069,1.9612,2.0619,2.2295,2.3151,2.3698,2.3857,2.3768,2.3374,2.2597,2.22,2.1368,2.0033,1.9583,1.8578,1.7108,0.0,0.0,0.0,0.0,0.0,0.0,0.0,0.0,0.0,0.0,0.0,0.0,0.0,0.0,0.0,0.0,0.0,0.0,0.0,0.0,0.0,0.0,0.0,-3.0401,-3.0404,-3.1626,-3.4955,-3.4333,-3.2981,-3.1308,-2.844,-2.7289,-2.8736,-2.7836,-2.6665,-2.5404,-2.4826,-2.3144,-2.0053,-2.0568,-1.9609,-1.7071,-1.6032,-1.4178,-1.1468,-1.1261,-1.0135,-0.8153,-0.5184,-0.3729,-0.3756,-0.65,-0.5771,-0.2759,-0.4446,-0.5135,-0.5119,-0.508,-0.5066,-0.5138,-0.5503,-0.5571,-0.5568,-0.5724,-0.596,-0.6104,-0.6088,-0.3349,-0.0,-0.0,-0.2068,-0.4351,-0.4398,-0.4474,-0.3842,-0.0838,-0.0108,0.0053,0.0888,0.3945,0.6189,0.4507,0.6162,0.8047,0.8485,0.874,0.9103,0.9787,1.1807,1.3772,1.5183,1.672,0.0,1.8636,1.8133,1.8062,1.8999,1.903,1.9704,2.1419,2.2162,2.2678,2.301,2.3342,2.2923,2.1586,2.1827,2.1029,1.899,1.8454,1.7862,1.7169,0.0,0.0,0.0,0.0,0.0,0.0,0.0,0.0,0.0,0.0,0.0,0.0,0.0,0.0,0.0,0.0,0.0,0.0,0.0,0.0,0.0,0.0,-3.0489,-3.0732,-3.0554,-3.075,-3.1684,-3.0921,-3.0129,-2.9655,-2.7837,-2.6234,-2.5163,-2.3912,-2.2735,-2.1629,-2.1038,-2.0274,-1.9297,-1.8037,-1.7566,-1.7937,-1.2108,-0.844,-0.7138,-0.6892,-0.5419,-0.2862,-0.349,-0.2344,0.0179,-0.0181,-0.0544,-0.091,-0.0182,0.073,0.1778,0.2252,0.2452,0.2113,-0.0624,-0.2145,-0.2788,-0.1936,-0.166,-0.1721,-0.1735,-0.0949,-0.0,-0.0,-0.0595,-0.1468,-0.2558,-0.3616,-0.405,-0.2098,0.1669,0.5023,0.5227,0.6196,0.7138,0.7253,0.8078,0.919,1.0302,1.0669,1.1038,1.1794,1.2729,1.3893,1.5441,1.595,0.0,1.6916,1.6355,1.6702,1.8799,1.9011,2.0126,2.2917,2.3332,2.351,0.0,2.3591,2.3163,2.2407,2.194,2.1173,2.0031,1.8629,1.8042,0.0,0.0,0.0,0.0,0.0,0.0,0.0,0.0,0.0,0.0,0.0,0.0,0.0,0.0,0.0,0.0,0.0,0.0,0.0,0.0,0.0,0.0,-2.79,-2.8599,-2.959,-2.9609,-2.9557,-2.9666,-2.8862,-2.7835,-2.6677,-2.553,-2.4295,-2.2955,-2.1568,-2.0551,-2.0055,-1.7338,-1.6327,-1.743,-1.2949,-1.1403,-1.3263,-0.6463,-0.265,-0.1829,-0.1467,-0.1021,-0.0394,0.1248,0.3192,0.0,0.5178,0.4324,0.2998,0.371,0.4894,0.0,0.0,0.0,0.0,0.0,-0.1424,-0.3192,-0.2521,-0.0438,0.1865,0.1869,0.1909,0.1896,0.1891,0.1871,0.1857,0.1686,0.1696,0.1715,0.1741,0.4591,0.7525,0.7656,0.7847,0.8144,0.8699,0.9641,1.0578,1.1227,0.0,0.0,1.3739,1.3864,1.4414,1.6019,1.5893,1.5895,1.6611,1.5777,1.5965,1.8215,1.8453,1.9611,2.2471,2.2973,0.0,0.0,0.0,2.3029,2.2252,2.1287,0.0,0.0,0.0,1.8608,1.8499,0.0,0.0,0.0,1.5765,1.5131,0.0,0.0,0.0,0.0,0.0,0.0,0.0,0.0,0.0,0.0,0.0,0.0,0.0,0.0,0.0,0.0,-2.7229,-2.587,-2.7486,-2.7889,-2.8139,-2.8512,-2.7725,-2.6002,-2.3069,-2.2287,-2.1875,-2.1628,-1.947,-1.818,-1.828,0.0,0.0,0.0,0.0,-0.3641,-0.5069,0.0489,0.3683,0.4408,0.4517,0.3461,0.1593,0.7361,1.0167,1.053,0.9533,0.8664,0.7933,0.7395,0.787,0.8745,0.6075,0.4031,0.2388,0.12,-0.1319,0.0,-0.4168,0.0,0.0,0.493,0.4993,0.496,0.4957,0.4962,0.5317,0.7001,0.8968,1.0103,0.7791,0.7871,0.866,0.9156,0.9308,0.9427,0.9655,1.1044,1.217,1.1802,1.2986,1.4408,1.5518,1.5084,1.5131,1.6678,1.628,1.6143,1.7049,1.5917,1.5751,1.7631,0.0,0.0,2.1297,2.2017,2.2522,2.2868,2.3095,2.2712,2.1642,2.0403,1.9713,1.9692,1.9801,1.9345,1.8296,1.9198,1.8274,1.5694,1.546,1.4893,0.0,0.0,0.0,0.0,0.0,0.0,0.0,0.0,0.0,0.0,0.0,0.0,0.0,0.0,0.0,-2.5853,-2.5348,-2.5308,-2.5356,-2.5807,-2.6504,-2.7527,-2.6811,-2.4627,-2.0525,-2.0014,-2.0102,-2.0414,-1.3433,-0.8952,-0.8414,-0.4006,0.0,-0.1602,-0.2577,-0.1411,0.2215,0.8852,1.2241,1.2336,0.0,0.0,1.0588,0.9516,1.0672,1.3443,1.2196,1.1597,1.1396,1.0836,1.0681,1.0598,0.8873,0.8,0.7496,0.6206,0.4545,0.2941,0.3191,0.4168,0.5547,0.7351,0.7955,0.7955,0.7961,0.7967,0.0,0.9803,1.1398,1.1708,0.7642,0.8906,1.1411,1.209,1.1923,1.1703,1.2189,1.3108,1.3834,1.3733,1.483,1.5869,1.625,1.5801,1.5732,1.6754,1.636,1.6042,1.6295,1.5647,1.608,1.8496,1.8754,1.9975,2.3034,2.3265,2.351,2.4109,2.3551,2.2712,2.1642,2.1039,2.055,2.0162,1.9873,1.9416,1.8767,1.8369,1.7708,1.6771,1.6249,1.4831,0.0,0.0,0.0,0.0,0.0,0.0,0.0,0.0,0.0,0.0,0.0,-2.8016,0.0,0.0,-2.8278,-2.3953,-2.4095,-2.4482,-2.3661,-2.1828,-2.1984,-2.5838,-2.0976,-1.6858,-1.5749,-0.9101,-0.7641,-1.4379,-0.6564,-0.1188,-0.0496,0.325,0.5269,0.5096,0.6066,0.6929,0.7731,1.3907,1.6837,1.652,1.4762,1.4486,1.5552,1.3946,1.4222,1.5903,1.5022,1.4479,1.4116,1.3643,1.3401,1.3217,1.228,1.0675,0.9038,0.976,0.869,0.6861,0.7047,0.7105,0.7278,0.8446,0.9741,1.0873,1.0845,1.0231,0.9897,1.1523,1.2877,1.3163,1.0079,1.0888,1.2663,1.3288,1.3348,1.3396,1.3896,1.4647,1.5271,1.5369,1.6107,1.6831,1.7246,1.7058,1.702,1.7572,1.7272,1.7064,1.7283,1.6396,1.6584,1.8758,1.8619,1.9476,2.2261,2.3021,2.3479,2.3832,2.3424,2.2822,2.1986,2.1354,2.0894,2.0649,2.035,1.9903,1.9291,1.8998,1.8247,1.7142,1.6562,1.5236,0.0,0.0,0.0,0.0,0.0,0.0,0.0,-2.5118,-2.7055,-2.9646,-3.0101,-2.9882,-2.9333,-2.8493,-2.66,-2.2727,-2.2992,-2.2996,-2.0991,-1.7413,-1.65,-2.0615,-1.3068,-0.8084,-0.9472,0.123,0.4323,-0.5184,0.0903,0.5841,0.7633,1.0159,1.1293,1.0749,1.4975,1.5966,1.3182,1.7716,1.975,1.928,1.951,1.9341,1.8816,1.8555,1.8426,1.839,1.7866,1.7234,1.653,1.6223,1.6107,1.604,1.5549,1.3433,1.0776,1.2329,1.1514,0.9577,0.9588,0.993,1.0293,1.0322,1.178,1.3584,1.3618,1.2302,1.1288,1.3213,1.4311,1.4618,1.3221,1.3218,1.3722,1.4174,1.4522,1.4873,1.5286,1.5955,1.6527,1.6701,1.7122,1.7647,1.8211,1.8309,1.8367,1.8538,1.8263,1.8165,1.8504,1.7395,1.7195,1.8835,1.8369,1.8885,2.1206,2.2548,2.3271,2.3293,2.3253,2.2915,2.2304,2.1538,2.1023,2.0862,2.0691,2.0279,1.9523,1.9641,1.8884,1.7344,1.694,1.5881,0.4487,-0.2113,-1.0914,-1.8863,-2.1643,-2.3433,0.0,-2.7981,-2.8079,-2.9182,-2.9079,-2.8047,-2.553,-2.4385,-2.3284,-2.1596,-2.1626,-2.0187,-1.5354,-1.382,-1.1531,-0.6998,-0.4833,-0.3113,-0.1576,0.1335,0.4388,0.7473,0.9083,1.2414,1.8147,1.7828,1.7831,1.8691,2.0014,2.0563,2.0164,2.1475,2.2111,2.2052,2.1902,2.1814,2.1727,2.1513,2.1425,2.1379,2.0623,1.9786,1.9008,1.895,1.895,1.887,1.8057,1.7453,1.6702,1.3938,1.2693,1.244,1.2428,1.3858,1.5662,1.5648,1.5855,1.6111,1.6098,1.4574,1.335,1.5707,1.6451,1.631,1.5374,1.5472,1.5872,1.5915,1.6219,1.6533,1.6575,1.7085,1.7541,1.7546,1.8038,1.8589,1.899,1.907,1.9086,1.9102,1.8587,1.8316,1.8716,1.8056,1.792,1.8895,1.8915,1.9732,2.189,2.2943,2.3529,2.3638,2.3369,2.288,2.2141,2.1744,2.1165,2.0382,2.0357,1.9899,1.8993,1.8989,1.8652,1.7989,1.7949,1.674,0.1763,-0.5888,-1.4072,-1.9066,-2.2803,-2.5894,-2.8382,-2.8379,-2.7804,-2.768,-2.6526,-2.474,-2.2182,-1.8284,-1.5136,0.0,-1.2004,-0.9805,-0.7861,-0.4146,-0.0047,0.4122,0.7635,0.8681,0.6088,1.0282,1.2301,1.018,1.4663,1.625,1.3373,1.7514,2.0111,2.0463,2.0979,2.1469,2.1934,2.2239,2.238,2.2399,2.2574,2.2672,2.2672,2.2887,2.28,2.2468,2.1987,2.1433,2.0827,2.0687,2.0623,2.0575,2.0009,1.9802,1.9536,1.7556,1.6853,1.6863,1.6881,1.7544,1.8365,1.8356,1.7344,1.6099,1.6107,1.5455,1.4987,1.6426,1.7073,1.7235,1.6628,1.6639,1.6822,1.6987,1.7306,1.7563,1.7563,1.7911,1.8258,1.8417,1.8717,1.9043,1.9372,1.9494,1.9582,1.9644,1.9432,1.9301,1.9478,1.8885,1.8607,1.8953,1.9453,2.023,2.14,2.226,2.2821,2.2994,2.3315,2.3189,2.2495,2.2085,2.1622,2.1054,2.0813,2.0366,1.9707,1.9441,1.9051,1.8574,1.8263,1.7585,-0.0294,-0.8032,-1.4983,-1.9076,-2.3638,-2.7407,-2.841,-2.7693,-2.6275,-2.434,-2.2218,-1.9761,-1.6626,-1.2139,-0.8557,-0.751,-0.4537,-0.1869,-0.044,0.428,0.9012,1.2806,1.6581,1.7458,1.3783,1.8188,1.9013,1.354,1.8775,1.9072,1.1915,1.7486,2.0807,2.0663,2.1072,2.1569,2.2159,2.2354,2.2594,2.2834,2.3133,2.3394,2.3591,2.3921,2.3785,2.3264,2.3064,2.273,2.2324,2.2078,2.1928,2.1849,2.1499,2.1354,2.1301,2.0652,2.0128,1.9757,2.0251,2.0409,2.0424,2.0412,1.8575,1.6358,1.6363,1.6357,1.6483,1.711,1.7658,1.7952,1.7647,1.7575,1.7647,1.7876,1.8136,1.8292,1.8334,1.8592,1.8875,1.9079,1.9265,1.9434,1.9676,1.9797,1.9901,2.006,2.0078,2.0078,2.0078,1.9649,1.9357,1.9357,1.9927,2.0603,2.1353,2.1909,2.2439,2.3011,2.3451,2.3477,2.2996,2.2504,2.2113,2.1744,2.1352,2.0943,2.0483,2.0147,1.9798,1.9492,1.9096,1.8896,-0.0587,-0.7764,-1.423,-2.1318,-2.506,-2.7117,-2.7627,-2.6118,-2.3242,-1.8468,-1.5713,-1.2614,-0.7566,-0.6428,-0.5716,-0.3955,-0.2802,0.0073,0.6386,0.905,1.2572,1.8521,1.8986,1.9605,0.0,2.1929,2.1648,2.083,2.1368,2.1204,2.0004,2.0187,2.0321,2.0312,2.1072,2.1501,2.154,2.2435,2.3299,2.414,2.4022,2.4332,2.5023,2.4847,2.4576,2.4238,2.4045,2.3757,2.3451,2.3229,2.3035,2.2829,2.2417,2.2265,2.2272,2.222,2.1147,1.9938,2.1633,2.2229,2.2217,2.2226,2.0187,1.7746,1.7742,1.7749,1.7849,1.8395,1.8568,1.8575,1.8561,1.8566,1.8587,1.8734,1.8768,1.88,1.8953,1.9183,1.9378,1.9396,1.9595,1.9824,1.9954,1.9984,2.006,2.0269,2.0285,2.0285,2.0285,2.0265,2.0254,2.0254,2.0292,2.0888,2.2326,2.2313,2.2839,2.4346,2.3983,2.3692,2.3671,2.3045,2.2495,2.2096,2.1757,2.1368,2.0959,2.0959,2.0959,2.0926,2.0926,2.0926,-0.0608,-0.8218,-1.6051,-2.2313,-2.5717,-2.6376,-2.1934,-1.9391,-1.5873,-0.8616,-0.5319,-0.3031,-0.0706,0.0903,0.2534,0.4459,0.7036,1.0313,1.4667,1.6815,1.9017,2.2014,2.1662,0.0,0.0,0.0,0.0,2.1747,2.1795,2.1524,2.0992,2.1088,2.119,2.1222,2.0972,2.1371,2.2491,2.2289,2.2591,2.3415,2.3934,2.4592,2.5284,2.5094,2.491,2.4755,2.4591,2.4465,2.4329,2.3911,2.3676,2.3524,2.3074,2.2641,2.2404,2.3252,2.3189,2.2476,2.1069,2.1319,2.1971,1.9979,1.9083,1.8807,1.8805,1.8805,1.8886,1.9289,1.9399,1.9363,1.9175,1.9143,1.9188,1.9406,1.9465,1.9479,1.9525,1.9595,1.9681,1.9681,1.9809,2.0124,2.0765,2.0489,2.0214,2.0285,2.0312,2.0312,2.0312,2.0312,2.0312,2.0312,2.0312,2.0685,2.1615,2.1605,2.2167,2.3614,2.3488,2.3472,2.3696,2.3482,2.3093,2.2521,2.2388,2.2,2.1399,2.1399,2.1383,2.1318,2.1318,2.1437,0.0703,-0.4174,-0.9149,-1.847,-1.947,-1.7044,-1.2851,-1.0137,-0.6469,0.0759,0.3733,0.5609,0.7564,0.8912,1.0166,1.1559,1.4293,1.7022,1.9334,2.1039,2.2464,2.3562,2.299,2.2806,0.0,0.0,0.0,2.2062,2.1975,2.1821,2.1722,2.1927,2.2051,2.2083,2.1592,2.1839,2.2917,2.2472,2.2666,2.3514,2.4365,2.4996,2.5437,2.5274,2.5166,2.5099,2.4943,2.4864,2.4836,2.4393,2.4132,2.3986,2.3671,2.3311,2.3073,2.3895,2.4376,2.4282,2.2065,2.2038,2.2665,2.0713,2.0523,2.1057,2.1043,2.124,2.1328,2.0834,2.0862,2.096,2.0535,2.0444,2.0515,2.0748,2.0801,2.0812,2.0866,2.0877,2.0877,2.0896,2.0967,2.1225,2.1809,2.1528,2.1224,2.1196,2.1196,2.0985,2.0389,2.0312,2.0312,2.0312,2.0312,2.0587,2.1302,2.1261,2.1843,2.338,2.3294,2.3451,2.3964,2.3798,2.35,2.3069,2.2947,2.2652,2.2169,2.2169,2.2152,2.2112,2.2112,2.2204,0.3515,0.3636,0.4714,-1.0257,-0.7327,-0.0849,-0.1121,0.0923,0.4341,0.9471,1.1366,1.3213,1.6837,1.706,1.6732,1.7034,1.8619,2.0013,2.0645,2.1944,2.2992,0.0,0.0,0.0,0.0,0.0,0.0,2.2168,0.0,2.2237,2.2532,2.2748,2.287,2.287,2.2831,2.2831,2.2928,2.306,2.3589,2.4473,2.5234,2.5576,2.5517,2.5448,2.537,2.5303,2.5099,2.5022,2.4991,2.4737,2.4469,2.4247,2.4214,2.4214,2.4252,2.4266,2.4691,2.5186,2.4502,2.4265,2.4258,2.426,2.4272,2.4261,2.4252,2.4734,2.4898,2.2918,2.2824,2.3171,2.2508,2.2325,2.2362,2.2558,2.2609,2.264,2.2775,2.2821,2.2821,2.2887,2.2943,2.2978,2.2991,2.2978,2.2926,2.2812,2.2812,2.2235,2.0639,2.0389,2.0369,2.0369,2.0331,2.0639,2.1427,2.1283,2.1888,2.3614,2.3385,2.3547,2.4402,2.4002,2.3735,2.3692,2.3392,2.323,2.3189,2.3189,2.3212,2.323,2.3236,2.3259,0.9433,0.5586,0.1814,-0.2993,-0.2328,0.0864,0.6093,0.846,1.1333,1.7613,1.9684,2.0396,2.0503,2.0289,2.0283,2.081,2.1231,0.0,2.3553,2.4062,0.0,2.4588,0.0,2.4313,2.4408,2.3903,0.0,0.0,2.3546,2.3417,2.3251,2.3438,2.3619,2.3755,2.3188,2.3448,2.4659,2.4812,2.5017,2.5293,2.5547,2.5663,2.5655,2.5587,2.5466,2.5303,2.5292,2.5282,2.5214,2.4934,2.4898,2.4956,2.4417,2.4544,2.5021,2.5012,2.5139,2.5266,2.5082,2.5029,2.5013,2.5005,2.5016,2.5021,2.5029,2.5151,2.5025,2.3652,2.3389,2.3392,2.2824,2.2671,2.27,2.2748,2.2757,2.2766,2.2859,2.2868,2.2887,2.2964,2.3508,2.3733,2.3111,2.3523,2.3698,2.2987,2.2928,2.2763,2.2235,2.16,2.1196,2.1196,2.0658,2.0639,2.1427,2.0894,2.1196,2.2737,2.274,2.2932,2.3494,2.4022,2.4117,2.3714,2.3628,2.3437,2.3189,2.3189,2.3346,2.3566,2.3746,2.3929,1.2814,1.1778,1.054,0.5521,0.7474,1.1572,1.5238,1.6873,1.8733,2.2668,2.3582,2.3381,2.2479,2.2162,2.2073,0.0,0.0,0.0,2.4395,2.4894,2.5126,0.0,2.4771,0.0,2.4512,2.4135,2.3996,0.0,2.408,2.4023,2.4063,2.4227,2.4419,2.462,2.4188,2.439,2.5322,2.5445,2.5537,2.5605,2.5664,2.5703,2.5703,2.5664,2.5544,2.5383,0.0,2.539,2.5284,2.5135,2.516,2.5256,2.4846,2.4943,2.5304,2.531,2.5305,2.5286,2.5302,2.5393,2.5482,2.5482,2.5444,2.5399,2.5385,2.5416,2.5294,2.4664,2.4455,2.4369,2.4053,2.3985,2.3985,2.3985,2.3985,2.4005,2.4033,2.4041,2.406,2.4128,2.4563,2.4744,2.4237,2.4557,2.4677,2.4121,2.4075,2.4069,2.399,2.289,2.2092,2.2062,2.1677,2.1581,2.2023,2.1658,2.1912,2.313,2.3114,2.336,2.3955,2.4407,2.4491,2.4192,2.4192,2.4081,2.3911,2.3911,2.4006,2.4192,2.4298,2.4454,1.5591,1.9435,2.3254,1.4538,1.8609,2.4534,2.3755,2.4264,2.4972,2.5175,2.4657,2.395,2.3247,2.3074,2.2907,2.2492,0.0,2.4919,2.4491,2.5285,2.5677,2.5111,2.4854,2.4657,2.4545,2.4321,2.419,2.419,2.408,2.4245,2.4727,2.4877,2.5022,2.5253,2.5293,2.5322,2.539,2.5447,2.5505,2.5559,2.5663,2.5703,2.5703,2.5703,2.5636,2.5507,0.0,0.0,2.5322,2.5312,2.5303,2.5313,2.5341,2.536,2.536,2.536,2.536,2.536,2.536,2.5514,2.5707,2.5678,2.5611,2.5514,2.5495,2.5533,2.56,2.56,2.5533,2.5495,2.5495,2.5495,2.5495,2.5495,2.5495,2.5505,2.5515,2.5511,2.5542,2.56,2.566,2.5684,2.5625,2.5605,2.5582,2.5527,2.5522,2.552,2.5493,2.408,2.3054,2.2985,2.287,2.2793,2.2793,2.2793,2.3129,2.3879,2.3877,2.4144,2.482,2.482,2.4832,2.4804,2.4804,2.4804,2.4804,2.4804,2.4804,2.4804,2.4832,2.4832,2.1953,2.2997,2.4129,2.2562,2.3601,2.5013,2.496,2.5229,2.5255,2.4479,2.4678,2.4512,2.3002,2.3265,2.3796,2.4042,2.4522,2.5292,2.6553,2.6841,2.6771,0.0,2.5961,2.5495,2.4802,0.0,0.0,0.0,0.0,0.0,2.4545,2.4575,2.4737,2.5034,2.5214,2.5303,2.5322,2.5322,2.5331,2.536,2.5598,2.5703,2.5703,2.5703,2.5625,2.5505,0.0,0.0,2.5459,2.5356,2.5309,2.5332,2.5538,2.5632,2.5632,2.5632,2.5632,2.5632,2.5632,2.5671,2.5686,2.5571,2.5561,2.5574,2.551,2.551,2.551,2.551,2.551,2.549,2.549,2.549,2.549,2.549,2.549,2.5512,2.5572,2.5634,2.568,2.5673,2.5681,2.5703,2.5684,2.5684,2.5664,2.5584,2.5634,2.5636,2.5512,2.4614,2.3967,2.3948,2.3265,2.2793,2.2793,2.2793,2.2851,2.3032,2.3659,2.4042,2.4007,2.4612,2.4917,2.4804,2.4804,2.4804,2.4804,2.4804,2.4804,2.4804,2.4917,2.4994,2.4329,2.4603,2.4901,2.5046,2.5156,2.5288,2.5371,2.5488,2.5406,2.4876,2.4927,2.4639,2.3358,2.3565,2.3912,2.385,2.5236,2.6329,2.6368,2.7581,2.7897,2.6453,2.6217,2.5806,0.0,0.0,0.0,0.0,0.0,0.0,2.4495,2.4682,2.4872,2.5152,2.5253,2.5303,2.5303,2.5303,2.5303,2.5293,2.5566,2.5693,2.5703,2.5703,2.5664,2.5605,2.5644,0.0,2.5597,2.5525,2.6579,2.8223,2.8366,2.7303,2.5701,2.5701,2.5701,2.5696,2.571,2.5707,2.5682,2.5627,2.5608,2.5596,2.56,2.5603,2.5603,2.5603,2.5603,2.5603,2.5603,2.5603,2.5603,2.5603,2.5603,2.5615,2.5643,2.5683,2.5703,2.5703,2.5703,2.5703,2.5703,2.5703,2.5684,2.5664,2.5673,2.5668,2.561,2.5221,2.4923,2.488,2.4438,2.4159,2.4159,2.412,2.4101,2.4101,2.4485,2.4687,2.4577,2.4941,2.5118,2.5068,2.5068,2.5068,2.5068,2.5068,2.5087,2.5106,2.5187,2.5248,2.4969,2.5218,2.5401,2.5476,2.5437,2.5366,2.5224,2.5351,2.5439,2.517,2.5038,2.4714,2.3895,2.3876,2.394,2.3749,2.575,2.7157,2.6558,2.8252,2.8891,0.0,2.6636,0.0,0.0,0.0,0.0,0.0,0.0,0.0,2.4445,2.478,2.503,2.5201,2.5253,2.5303,2.5303,2.5303,2.5303,2.5313,2.5517,2.5644,2.5703,2.5703,2.5703,2.5703,2.5703,0.0,0.0,2.6518,2.8421,3.0905,3.0897,2.9238,2.6816,2.6816,2.6816,2.6816,2.6802,2.6642,2.6455,2.6456,2.6068,2.5635,2.5673,2.5703,2.5703,2.5703,2.5703,2.5703,2.5703,2.5703,2.5703,2.5703,2.5703,2.5703,2.5703,2.5703,2.5703,2.5703,2.5703,2.5703,2.5703,2.5703,2.5703,2.5703,2.5703,2.57,2.5694,2.5654,2.5609,2.5549,2.5479,2.5427,2.5409,2.537,2.5341,2.5322,2.5322,2.5303,2.5303,2.5303,2.5303,2.5322,2.5322,2.5322,2.5341,2.5341,2.537,2.5428,2.5427,2.5456,2.4738,2.5114,2.5401,2.5418,2.5398,2.5191,2.4416,2.488,2.5258,2.4392,2.4738,2.4989,2.4351,2.4118,2.4293,2.5136,2.5825,2.7037,2.9289,2.9502,2.9458,2.9627,0.0,0.0,0.0,0.0,0.0,0.0,0.0,0.0,0.0,2.4607,2.4832,2.4847,2.5138,2.5303,2.5303,2.5302,2.5302,2.5303,2.5313,2.5453,2.5703,2.5703,2.5703,2.5703,0.0,0.0,0.0,2.9119,3.0607,3.0901,3.0899,3.0703,3.043,3.043,3.043,3.043,3.0429,2.9745,2.8886,2.8884,2.7438,2.5681,2.5703,2.5703,2.5703,2.5703,2.5703,2.5703,2.5703,2.5703,2.5703,2.5703,2.5703,2.5703,2.5703,2.5703,2.5703,2.5703,2.5703,2.5703,2.5703,2.5703,2.5703,2.5703,2.5703,2.5703,2.5703,2.5683,2.5683,2.5681,2.5574,2.5493,2.5486,2.5486,2.5466,2.539,2.539,2.537,2.5303,2.5303,2.5322,2.539,2.539,2.5428,2.5486,2.5486,2.5486,2.5486,2.5479,2.5531,2.481,2.5141,2.5454,2.5463,2.5459,2.5364,2.5024,2.5231,2.5382,2.5026,2.5072,2.5075,2.4681,2.4435,2.4486,2.5044,2.6258,2.7588,2.8907,3.0116,3.0516,2.9683,2.8709,0.0,0.0,0.0,0.0,0.0,0.0,0.0,0.0,2.4837,2.4828,2.493,2.5669,2.5832,2.5303,2.5311,2.6331,2.8376,2.8567,2.8718,2.8837,2.8826,2.8828,2.8828,0.0,0.0,0.0,3.0332,3.0891,3.0891,3.0895,3.0898,3.0898,3.0898,3.0898,3.0898,3.0898,3.0156,2.9199,2.9199,2.832,2.7266,2.7266,2.7266,2.7266,2.7266,2.7266,2.7266,2.7266,2.6875,2.6484,2.6484,2.6074,2.5703,2.5703,2.5703,2.5703,2.5703,2.6113,2.6328,2.5781,2.6133,2.6309,2.5781,2.5703,2.5703,2.5703,2.5703,2.5703,2.5703,2.562,2.5562,2.5566,2.551,2.5492,2.5453,2.5453,2.5447,2.5428,2.5428,2.5428,2.5466,2.5453,2.5473,2.5492,2.5492,2.553,2.5563,2.5567,2.5887,2.4865,2.5178,2.5496,2.549,2.5506,2.5466,2.5207,2.534,2.5457,2.5171,2.5217,2.5182,2.4874,2.4685,2.476,2.5302,2.6538,2.7812,2.8864,3.0336,3.0995,0.0,0.0,0.0,0.0,0.0,0.0,0.0,0.0,0.0,0.0,2.5604,2.5433,2.5291,2.588,2.6178,2.6083,2.557,2.7023,3.0402,3.0637,3.0812,3.0902,3.0895,3.0898,3.0898,0.0,0.0,0.0,3.0898,3.0898,3.0898,3.0898,3.0898,3.0898,3.0898,3.0898,3.0898,3.0898,3.0371,2.9707,2.9707,2.9414,2.9062,2.9062,2.8711,2.8301,2.8301,2.8301,2.8301,2.8301,2.7832,2.7383,2.7383,2.6914,2.6465,2.6465,2.6465,2.6465,2.6465,2.6953,2.7187,2.6562,2.6973,2.7187,2.6562,2.6465,2.6465,2.6465,2.623,2.6074,2.6074,2.5801,2.5625,2.5625,2.5588,2.5558,2.5538,2.5535,2.5522,2.5498,2.5498,2.5502,2.5524,2.5534,2.5546,2.5558,2.5814,2.597,2.6016,2.6274,2.6894,2.4809,2.5138,2.55,2.5506,2.5542,2.537,2.4514,2.4976,2.5343,2.442,2.49,2.5346,2.4893,2.4804,2.5198,2.6401,2.6612,2.7457,2.9861,3.021,3.0604,0.0,0.0,0.0,0.0,0.0,0.0,0.0,0.0,0.0,0.0,2.6951,2.6811,2.6004,2.5538,2.614,2.7865,2.6165,2.7028,3.0398,3.0402,3.0583,3.0898,3.0898,3.0898,0.0,0.0,0.0,0.0,3.0898,3.0898,3.0898,3.0898,3.0898,3.0898,3.0898,3.0898,3.0898,3.0898,3.0898,3.0879,3.0879,3.0879,3.0879,3.0879,2.9668,2.8301,2.8301,2.8301,2.8301,2.8301,2.8281,2.8281,2.8281,2.8281,2.8262,2.8262,2.8262,2.8262,2.8262,2.8281,2.8281,2.8262,2.8281,2.8281,2.8262,2.8262,2.8262,2.8262,2.7519,2.6992,2.6992,2.6211,2.5703,2.5703,2.5703,2.5664,2.5605,2.5605,2.5576,2.5493,2.5508,2.5531,2.5611,2.5611,2.5622,2.5703,2.6562,2.6973,2.7012,2.7871,2.873,2.5,2.5261,2.5505,2.55,2.5556,2.5531,2.5243,2.5409,2.5498,2.5164,2.5313,2.5365,2.4893,2.5261,2.5839,2.6493,2.7053,2.8264,3.0668,3.1494,0.0,0.0,0.0,0.0,0.0,0.0,0.0,0.0,0.0,0.0,0.0,2.7157,2.6928,2.683,2.7351,2.7717,2.7892,2.8483,2.9321,3.0398,3.0402,3.046,3.0568,3.0803,0.0,0.0,0.0,0.0,0.0,3.0654,3.0695,3.0905,3.0911,3.0767,3.0599,3.0817,3.084,3.0781,3.0879,3.0898,3.0898,3.0898,3.0898,3.0898,3.0898,3.0508,3.0078,3.0078,3.0078,3.0078,3.0078,2.9629,2.9199,2.9199,2.873,2.8301,2.8301,2.8301,2.8301,2.8301,2.8789,2.9004,2.8398,2.8789,2.9199,2.9199,2.8672,2.8516,2.9101,2.8437,2.7891,2.7891,2.7637,2.7246,2.6641,2.6582,2.6836,2.7402,2.7441,2.7441,2.7414,2.7412,2.7427,2.7443,2.7443,2.7464,2.748,2.7754,2.7891,2.791,2.8789,2.9336,2.5038,2.5283,2.55,2.5506,2.5563,2.564,2.5634,2.5647,2.5617,2.5522,2.5495,2.5365,2.4893,2.5454,2.6122,2.653,2.7382,2.8731,3.0844,3.1928,0.0,0.0,0.0,0.0,0.0,0.0,0.0,0.0,0.0,0.0,0.0,0.0,2.8048,2.8241,2.8357,2.8245,2.789,2.9563,3.0402,3.0398,3.0402,3.0398,3.041,3.0617,0.0,0.0,0.0,0.0,0.0,3.0792,3.0571,3.0702,3.0713,3.0579,3.0432,3.0623,3.068,3.0667,3.0765,3.0784,3.0784,3.0784,3.0796,3.082,3.082,3.0859,3.0898,3.0898,3.0898,3.0898,3.0898,3.0508,3.0098,3.0098,2.9687,2.9277,2.9277,2.9277,2.9277,2.9277,2.9726,2.9922,2.9375,2.9726,3.0195,3.0527,3.0117,3.0078,3.0918,3.0293,2.9648,2.9316,2.8984,2.8691,2.8496,2.7871,2.7715,2.8262,2.8301,2.8301,2.8301,2.8613,2.8633,2.8301,2.8613,2.8633,2.8301,2.8633,2.8965,2.9297,3.0176,3.0586,0.0,2.5258,2.5484,2.5496,2.5601,2.5684,2.5703,2.5703,0.0,2.5535,2.548,2.5382,2.5031,2.5571,2.6236,2.6788,2.7755,2.9053,3.0715,3.1862,0.0,0.0,0.0,0.0,0.0,0.0,0.0,0.0,0.0,0.0,0.0,0.0,2.9839,2.9969,2.8713,2.8045,2.8082,2.9621,3.0402,3.0386,3.0402,3.0398,3.0398,3.0412,0.0,0.0,0.0,0.0,0.0,3.1188,3.0516,3.0398,3.0398,3.0398,3.0398,3.0398,3.0492,3.0587,3.0607,3.0607,3.0607,3.0607,3.0634,3.0682,3.0703,3.0781,3.0898,3.0898,3.0898,3.0898,3.0898,3.0898,3.0898,3.0898,3.0898,3.0898,3.0898,3.0898,3.0918,3.0976,3.0996,3.1016,3.1074,3.1074,3.1367,3.2246,3.2324,3.2578,3.3398,3.2793,3.1973,3.1152,3.0351,3.0195,3.1016,2.9473,2.8535,2.8652,2.8652,2.8652,2.8652,2.9434,2.9492,2.8672,2.9453,2.9473,2.8652,2.9473,3.0293,3.1094,3.1914,3.2285,2.5192,0.0,2.5446,2.5496,2.5562,2.5644,0.0,2.5703,2.5661,2.5535,2.538,2.5546,2.6472,2.6647,2.7269,2.9062,2.9787,3.0876,3.3068,0.0,0.0,0.0,0.0,0.0,0.0,0.0,0.0,0.0,0.0,0.0,0.0,0.0,3.0208,2.9782,2.9452,2.9453,2.9802,3.0186,3.041,3.039,3.041,3.0398,3.0398,3.0398,0.0,0.0,0.0,0.0,3.0968,3.0601,3.0436,3.0398,3.0398,3.0398,3.0398,3.0525,3.0552,3.0528,3.0586,3.0606,3.0606,3.0606,3.0608,3.0626,3.0671,3.0781,3.0898,3.0898,3.0898,3.0898,3.0898,3.0898,3.0898,3.0898,3.0898,3.0898,3.0898,3.0898,3.1094,3.1777,3.1894,3.209,3.2715,3.2812,3.3105,3.3984,3.3535,3.3437,3.4277,3.3652,3.3047,3.2832,3.2637,3.2598,3.2793,3.1269,3.084,3.2129,3.2207,3.2207,3.2207,3.2402,3.2402,3.2207,3.2402,3.2402,3.2207,3.2402,3.2617,3.2812,3.3027,3.3125,2.5253,2.5341,2.5418,2.5488,2.5554,2.5625,2.5684,2.5703,2.5661,2.5535,2.5341,2.5502,2.6475,2.6916,2.761,2.9095,3.0373,3.1822,0.0,0.0,0.0,0.0,0.0,0.0,0.0,0.0,0.0,0.0,0.0,0.0,0.0,0.0,3.0659,3.053,3.02,3.0139,3.0398,3.0398,3.0398,3.0398,3.0398,3.0398,3.0398,3.0386,0.0,0.0,0.0,0.0,3.0968,3.0559,3.0386,3.0398,3.0398,3.0398,3.0398,3.0487,3.0487,3.0525,3.0948,3.1352,3.1583,3.1218,3.1133,3.1163,3.1236,3.1321,3.1426,3.1484,3.1504,3.1504,3.1504,3.1504,3.1406,3.0996,3.1484,3.1953,3.1582,3.1797,3.2187,3.2656,3.2754,3.2891,3.332,3.3398,3.3691,3.457,3.4297,3.4316,3.5176,3.4883,3.4434,3.4043,3.4004,3.4004,3.4004,3.3164,3.2851,3.3379,3.3398,3.3398,3.3398,3.3789,3.3973,3.3945,3.3569,3.3331,3.3308,3.3308,3.3308,3.3311,3.3747,3.3945,2.5253,2.5437,2.5582,2.5505,2.5526,2.5582,2.5642,2.5662,2.5633,2.5508,2.529,2.5416,2.6279,2.6886,2.7567,2.864,3.0709,0.0,0.0,0.0,0.0,0.0,0.0,0.0,0.0,0.0,0.0,0.0,0.0,0.0,0.0,0.0,0.0,3.1508,3.0791,3.0398,3.0398,3.0398,3.0398,3.0398,3.0398,3.0475,3.066,3.0482,3.1059,0.0,0.0,0.0,3.1641,3.0756,3.0398,3.0398,3.0398,3.0398,3.0398,3.0398,3.0398,3.0513,3.141,3.216,3.2622,3.2064,3.1922,3.1985,3.2062,3.224,3.2418,3.2528,3.2477,3.2344,3.2226,3.2285,3.2129,3.1133,3.209,3.3027,3.2344,3.2734,3.3281,3.3555,3.3594,3.3633,3.3769,3.3809,3.4043,3.4785,3.4902,3.5215,3.6094,3.6191,3.5976,3.5351,3.5293,3.5293,3.5293,3.5293,3.4979,3.4203,3.3929,3.3795,3.3775,3.4466,3.4837,3.4764,3.4038,3.3631,3.3577,3.3713,3.379,3.379,3.4737,3.5091,2.5253,2.5851,2.6255,2.5582,2.5422,2.5454,2.5511,2.5539,2.5503,2.5432,2.512,2.5604,2.8012,2.7327,2.7419,3.059,0.0,0.0,0.0,0.0,0.0,0.0,0.0,0.0,0.0,0.0,0.0,0.0,0.0,0.0,0.0,0.0,0.0,3.1596,3.0816,3.0405,3.0398,3.0398,3.0398,3.0398,3.0398,3.091,3.1807,3.084,3.1263,0.0,0.0,3.0879,3.1641,3.0756,3.0398,3.0398,3.0398,3.0398,3.0398,3.0398,3.0398,3.0513,3.141,3.1775,3.1987,3.2526,3.2718,3.275,3.2952,3.3516,3.4133,3.4206,3.3737,3.3066,3.2383,3.2715,3.2812,3.1269,3.166,3.2344,3.2226,3.2305,3.2793,3.4238,3.4492,3.4726,3.5469,3.5605,3.5644,3.5781,3.5801,3.6113,3.6992,3.7109,3.7324,3.7949,3.8008,3.8008,3.8008,3.8008,3.789,3.7643,3.6349,3.5581,3.5523,3.5543,3.5541,3.5523,3.5396,3.5328,3.5323,3.6061,3.6414,3.6433,3.7321,3.7366,2.463,2.5255,2.5928,2.6024,2.6429,2.6829,2.6892,2.6541,2.6152,2.5975,2.554,2.5685,2.731,2.7766,2.9096,3.2542,0.0,0.0,0.0,0.0,0.0,0.0,0.0,0.0,0.0,0.0,0.0,0.0,0.0,0.0,0.0,0.0,0.0,0.0,3.1424,3.0393,3.0398,3.0398,3.0852,3.1749,3.1749,3.2038,3.2506,3.1987,3.1929,3.2218,0.0,3.1064,3.0968,3.0571,3.0398,3.0398,3.0398,3.0698,3.116,3.1602,3.2045,3.2506,3.291,3.3353,3.3737,3.3641,3.3603,3.3635,3.3775,3.4061,3.4505,3.5049,3.4667,3.4004,3.3594,3.3809,3.3789,3.2559,3.3281,3.4121,3.3652,3.3926,3.4473,3.5254,3.5391,3.5684,3.6543,3.6699,3.6855,3.7324,3.7402,3.7559,3.7949,3.8008,3.8164,3.8555,3.8605,3.8583,3.8497,3.8477,3.847,3.8401,3.7655,3.724,3.7194,3.7146,3.6867,3.6353,3.6781,3.6757,3.6238,3.6647,3.7089,3.7531,3.755,3.759,2.4034,2.4763,2.5674,2.6293,2.6924,2.7535,2.8189,2.7629,2.6983,2.7058,2.6488,2.615,2.6695,2.8233,0.0,3.2846,0.0,0.0,0.0,0.0,0.0,0.0,0.0,0.0,0.0,0.0,0.0,0.0,0.0,0.0,0.0,0.0,0.0,0.0,3.2352,3.0809,3.0398,3.0398,3.1044,3.2319,3.2319,3.2519,3.2891,3.2699,3.2506,3.2256,3.1872,3.1314,3.0698,3.0475,3.0398,3.0398,3.0398,3.0929,3.1775,3.2391,3.316,3.3891,3.3891,3.4468,3.5122,3.4661,3.4507,3.4526,3.4584,3.4593,3.4749,3.5463,3.5326,3.4875,3.4638,3.4757,3.4663,3.3613,3.4551,3.5488,3.4844,3.5215,3.582,3.623,3.6309,3.6582,3.7441,3.7598,3.7832,3.8496,3.8594,3.8672,3.8887,3.8906,3.8984,3.9199,3.9199,3.915,3.9019,3.8962,3.8942,3.8942,3.852,3.8244,3.8253,3.8027,3.768,3.7166,3.755,3.7512,3.7007,3.7219,3.7642,3.8296,3.792,3.7978,2.3872,2.4991,2.6206,2.6062,2.5767,2.612,2.8486,2.8224,2.7761,2.8868,2.8157,2.7423,2.7646,2.8681,0.0,0.0,0.0,0.0,0.0,0.0,0.0,0.0,0.0,0.0,0.0,0.0,0.0,0.0,0.0,0.0,0.0,0.0,0.0,0.0,0.0,3.1975,3.0432,3.0398,3.0467,3.0583,3.0583,3.1391,3.2872,3.2122,3.2602,3.393,3.2372,3.166,3.1545,3.0737,3.0398,3.0398,3.0398,3.0929,3.1718,3.1775,3.2295,3.2987,3.2987,3.3564,3.441,3.5161,3.5411,3.543,3.5488,3.552,3.5515,3.5592,3.5618,3.5454,3.4695,3.5055,3.5232,3.3688,3.4023,3.4707,3.4707,3.4746,3.5273,3.6894,3.7207,3.748,3.8359,3.8516,3.8535,3.8594,3.8594,3.8887,3.9707,3.9805,4.0117,4.0937,4.1014,4.0947,4.0812,4.0639,4.0543,4.0543,3.9003,3.8118,3.8108,3.7296,3.7161,3.7911,3.718,3.718,3.7911,3.8719,3.9142,3.9219,3.9912,3.9912,2.3048,2.4612,2.6262,2.6057,2.5873,2.6393,2.8897,2.8558,2.783,2.8371,2.8334,2.8315,2.8655,0.0,0.0,0.0,0.0,0.0,0.0,0.0,0.0,0.0,0.0,0.0,0.0,0.0,0.0,0.0,0.0,0.0,0.0,0.0,0.0,0.0,0.0,3.3192,3.0426,3.0405,3.0929,3.1948,3.1621,3.2237,3.3699,3.3391,3.3603,3.416,3.3526,3.2949,3.2372,3.1545,3.1218,3.1256,3.1756,3.216,3.2583,3.366,3.4257,3.4526,3.4526,3.4737,3.5064,3.5391,3.5493,3.5493,3.5545,3.5545,3.5545,3.5545,3.5565,3.5515,3.5253,3.5441,3.554,3.4932,3.5104,3.543,3.5449,3.5898,3.6504,3.7168,3.7734,3.8398,3.9258,3.9414,3.959,4.0137,4.0215,4.0527,4.1348,4.1442,4.1779,4.2604,4.2097,4.1678,4.1639,4.0985,4.0796,4.1354,4.0258,3.9585,3.9585,3.9258,3.8969,3.8815,3.8969,3.8969,3.8815,3.9142,3.9546,4.0027,3.9835,3.9873,2.3168,2.4617,2.6163,2.6317,2.6154,2.6581,2.8936,2.8577,2.7882,2.8502,2.8237,2.7921,2.8024,2.856,0.0,0.0,0.0,0.0,0.0,0.0,0.0,0.0,0.0,0.0,0.0,0.0,0.0,0.0,0.0,0.0,0.0,0.0,0.0,0.0,0.0,3.4372,3.2039,3.2006,3.2403,3.3192,3.2634,3.3,3.4199,3.4199,3.4353,3.4603,3.4314,3.3853,3.3237,3.216,3.1698,3.1814,3.2891,3.3314,3.3449,3.4661,3.5257,3.5468,3.5199,3.5276,3.5493,3.5493,3.5493,3.5493,3.5493,3.5493,3.5493,3.5493,3.5493,3.5584,3.5872,3.5988,3.6026,3.6084,3.6338,3.661,3.6657,3.7151,3.7697,3.797,3.8512,3.9219,4.0098,4.0488,4.0898,4.1484,4.1816,4.2182,4.2729,4.2782,4.2979,4.3496,4.2857,4.2393,4.2393,4.1489,4.1162,4.1758,4.0969,4.0489,4.0489,4.0258,3.9969,3.9681,3.9969,3.9969,3.9681,3.9681,3.995,4.0489,3.9931,3.9969,2.4507,2.5171,2.593,2.6826,2.6476,2.643,2.851,2.8216,2.7967,2.9632,2.7992,2.6077,2.5528,2.6578,0.0,0.0,0.0,0.0,0.0,0.0,0.0,0.0,0.0,0.0,0.0,0.0,0.0,0.0,0.0,0.0,0.0,0.0,0.0,0.0,0.0,0.0,3.5509,3.5489,3.4918,3.3801,3.3211,3.3353,3.418,3.4199,3.4661,3.5449,3.4584,3.4199,3.4083,3.241,3.1718,3.1872,3.3545,3.4199,3.4199,3.4199,3.4757,3.5391,3.4507,3.4776,3.5493,3.5493,3.5493,3.5493,3.5493,3.5493,3.5493,3.5493,3.5526,3.5699,3.6488,3.6719,3.6757,3.6877,3.7526,3.8138,3.8266,3.8307,3.858,3.9443,3.9669,4.0,4.0879,4.1797,4.2402,4.2402,4.3144,4.3704,4.3709,4.3649,4.3573,4.3438,4.3282,4.3203,4.3203,4.2338,4.1816,4.1816,4.1008,4.0508,4.0489,3.9719,3.9681,4.0469,3.9719,3.97,4.0489,4.0489,4.0489,4.0489,4.0489,4.0489,2.35,2.4303,2.5353,2.5359,2.523,2.5351,2.632,2.67,2.6974,2.7391,2.5831,2.4602,2.535,0.0,0.0,0.0,0.0,0.0,0.0,0.0,0.0,0.0,0.0,0.0,0.0,0.0,0.0,0.0,0.0,0.0,0.0,0.0,0.0,0.0,0.0,3.5509,3.5501,3.47,3.4533,3.4988,3.418,3.3622,3.3314,3.391,3.4334,3.4603,3.4968,3.5122,3.5026,3.391,3.3103,3.2641,3.3757,3.4199,3.4257,3.4891,3.5276,3.5468,3.5199,3.5276,3.5493,3.5493,3.5493,3.5493,3.5493,3.5493,3.5493,3.5493,3.5911,3.6411,3.6642,3.7603,3.8373,3.7815,3.7892,3.8113,3.8151,3.8724,3.9463,4.0279,4.0952,4.1653,4.2546,4.2916,4.3091,4.3091,4.3325,4.372,4.4314,4.4839,4.4913,4.4239,4.4047,4.397,4.397,4.3201,4.297,4.3528,4.2777,4.1777,4.0546,4.0258,4.0258,4.0489,4.0258,4.0258,4.0489,4.0489,4.0489,4.0489,4.0489,4.0835,2.4308,2.4671,2.512,2.5439,2.5338,2.5161,2.5125,2.5362,2.5617,2.5524,2.4406,2.3733,2.488,2.5534,0.0,0.0,0.0,0.0,0.0,0.0,0.0,0.0,0.0,0.0,0.0,0.0,0.0,0.0,0.0,0.0,0.0,0.0,0.0,0.0,3.5501,3.5515,3.5501,3.4828,3.4828,3.5474,3.4968,3.4257,3.3449,3.4314,3.4718,3.4757,3.5276,3.5315,3.4968,3.4795,3.4199,3.3506,3.4372,3.4718,3.4776,3.5315,3.5493,3.5493,3.5493,3.5493,3.5493,3.5493,3.5493,3.5565,3.5892,3.5988,3.6065,3.6411,3.6834,3.7296,3.7642,3.8507,3.9161,3.8642,3.8796,3.9065,3.9065,3.9546,4.0204,4.1053,4.1651,4.2325,4.3182,4.3652,4.3923,4.3923,4.4194,4.4575,4.5059,4.5538,4.5584,4.5007,4.4872,4.4816,4.4816,4.4047,4.3778,4.4259,4.3547,4.2624,4.1585,4.1527,4.1527,4.1527,4.1527,4.1527,4.1527,4.1527,4.1527,4.1527,4.1527,4.1816,2.602,2.5578,2.4983,2.6349,2.6118,2.5433,2.4672,2.4295,2.4111,2.3973,0.0,2.3364,2.4144,0.0,0.0,0.0,0.0,0.0,0.0,0.0,0.0,0.0,0.0,0.0,0.0,0.0,0.0,0.0,0.0,0.0,0.0,0.0,0.0,0.0,3.5501,3.5501,3.5509,3.5501,3.5493,0.0,3.5493,3.5084,3.4353,3.5141,3.5493,3.5493,3.5493,3.5045,3.4372,3.518,3.5026,3.4391,3.5199,3.5493,3.5493,3.5493,3.5493,3.5493,3.5493,3.5493,3.5493,3.5493,3.5493,3.5661,3.6469,3.6699,3.6892,3.7757,3.8065,3.8296,3.9084,3.9354,3.9411,3.9411,3.9969,4.0489,4.0489,4.0546,4.0873,4.1758,4.2071,4.2475,4.328,4.4184,4.478,4.478,4.5393,4.5853,4.5796,4.5776,4.5738,4.5605,4.5586,4.5586,4.5586,4.4874,4.4412,4.4412,4.372,4.3335,4.3335,4.3181,4.3104,4.3104,4.3104,4.3104,4.3104,4.3104,4.3104,4.3104,4.3104,4.3143,2.4728,2.413,2.3675,2.4639,2.4859,2.4759,2.4472,2.3982,2.3305,2.2439,2.284,2.3397,0.0,0.0,0.0,0.0,0.0,0.0,0.0,0.0,0.0,0.0,0.0,0.0,0.0,0.0,0.0,0.0,0.0,0.0,0.0,0.0,0.0,3.5488,3.5507,3.5507,3.5488,3.5507,3.5493,0.0,3.5493,3.5411,3.5238,3.5411,3.5493,3.5493,3.5493,3.5391,3.5238,3.543,3.5391,3.5238,3.543,3.5493,3.5493,3.5493,3.5493,3.5493,3.5493,3.5493,3.5493,3.5493,3.5493,3.5661,3.6469,3.6699,3.6892,3.7757,3.8488,3.9065,3.9238,3.9758,4.0239,4.0239,4.0354,4.0489,4.0489,4.1046,4.1777,4.2643,4.3355,4.4085,4.4932,4.5259,4.5413,4.5413,4.5547,4.5643,4.5624,4.5624,4.5624,4.5586,4.5586,4.5586,4.5586,4.5432,4.5316,4.5316,4.5163,4.5047,4.5047,4.3797,4.3104,4.3104,4.3104,4.3104,4.3104,4.3104,4.3104,4.3104,4.3104,4.3431,2.4886,2.4282,2.3643,2.3887,2.4038,2.416,2.4359,2.4311,2.4013,2.3087,2.3301,0.0,0.0,0.0,0.0,0.0,0.0,0.0,0.0,0.0,0.0,0.0,0.0,0.0,0.0,0.0,0.0,0.0,0.0,0.0,0.0,3.5503,3.5113,3.4274,3.5067,3.5315,3.4872,3.5295,3.5493,3.5493,3.5493,3.5493,3.5493,3.5493,3.5493,3.5493,3.5493,3.5493,3.5493,3.5493,3.5493,3.5493,3.5493,3.5493,3.5493,3.5493,3.5493,3.5493,3.5493,3.5493,3.5493,3.5493,3.5757,3.6238,3.7065,3.7603,3.8123,3.895,3.9508,3.9873,3.9873,4.0489,4.1123,4.1123,4.1123,4.1123,4.1123,4.1816,4.2681,4.3508,4.4008,4.4586,4.5451,4.5586,4.5586,4.5586,4.5586,4.5586,4.5586,4.5586,4.5586,4.5586,4.5586,4.5586,4.5586,4.5586,4.5586,4.5586,4.5586,4.5586,4.5586,4.4759,4.4297,4.4297,4.4297,4.4297,4.4297,4.4297,4.4297,4.4297,4.4297,4.4509,2.5478,2.5001,2.4044,2.3701,2.3681,2.3837,2.4307,2.491,2.5126,2.4454,0.0,0.0,0.0,0.0,0.0,0.0,0.0,0.0,0.0,0.0,0.0,0.0,0.0,0.0,0.0,0.0,0.0,0.0,0.0,0.0,3.5165,3.5211,3.4639,3.3385,3.4165,3.457,3.443,3.5141,3.5493,3.5493,3.5493,3.5493,3.5493,3.5493,3.5493,3.5493,3.5493,3.5493,3.5493,3.5493,3.5493,3.5493,3.5493,3.5493,3.5493,3.5493,3.5493,3.5493,3.5493,3.5493,3.5512,3.5661,3.6161,3.6892,3.7911,3.8719,3.9469,4.0258,4.0489,4.0527,4.0681,4.1258,4.1854,4.1989,4.2143,4.22,4.2047,4.2701,4.3508,4.4162,4.4412,4.4739,4.547,4.5586,4.5586,4.5586,4.5586,4.5586,4.5586,4.5586,4.5586,4.5586,4.5586,4.5586,4.5586,4.5586,4.5586,4.5586,4.5586,4.5586,4.5586,4.5586,4.5586,4.5586,4.5586,4.5586,4.5586,4.5586,4.5586,4.5586,4.5586,4.5586,2.5595,2.5179,2.424,2.3736,2.3948,2.4307,2.4389,2.5182,2.5675,0.0,0.0,0.0,0.0,0.0,0.0,0.0,0.0,0.0,0.0,0.0,0.0,0.0,0.0,0.0,0.0,0.0,0.0,0.0,0.0,0.0,3.4007,3.4015,3.437,3.5139,3.2505,3.2461,3.5315,3.5449,3.5493,3.5493,3.5493,3.5493,3.5493,3.5493,3.5493,3.5493,3.5493,3.5493,3.5493,3.5493,3.5493,3.5493,3.5493,3.5493,3.5493,3.5493,3.5493,3.5493,3.5493,3.5493,3.5622,3.6315,3.6622,3.7007,3.8623,3.92,3.9469,4.0258,4.0489,4.0662,4.1431,4.172,4.1989,4.2758,4.3451,4.3778,4.3085,4.3566,4.4162,4.4278,4.4913,4.5451,4.5566,4.5586,4.5586,4.5586,4.5586,4.5586,4.5586,4.5586,4.5586,4.5586,4.5586,4.5586,4.5586,4.5586,4.5586,4.5586,4.5586,4.5586,4.5586,4.5586,4.5586,4.5586,4.5586,4.5586,4.5586,4.5586,4.5586,4.5586,4.5586,4.5586,2.5307,2.4989,2.4348,2.4116,2.4241,2.4552,2.5144,2.5652,2.5986,0.0,0.0,0.0,0.0,0.0,0.0,0.0,0.0,0.0,0.0,0.0,0.0,0.0,0.0,0.0,0.0,0.0,0.0,0.0,0.0,3.4061,3.4727,3.475,3.4102,3.2688,3.3048,3.35,3.4038,3.5012,3.5493,3.5493,3.5493,3.5493,3.5493,3.5493,3.5493,3.5493,3.5493,3.5493,3.5493,3.5493,3.5493,3.5493,3.5493,3.5493,3.5493,3.5493,3.5795,3.6122,3.5661,3.6122,3.6892,3.6738,3.7353,3.8296,3.9065,3.9604,4.0142,4.0989,4.1239,4.1431,4.2297,4.2854,4.3297,4.3682,4.4412,4.4932,4.4566,4.4778,4.5028,4.5028,4.5336,4.5586,4.5586,4.5586,4.5586,4.5586,4.5586,4.5586,4.5586,4.5586,4.5586,4.5586,4.5586,4.5586,4.5586,4.5586,4.5586,4.5586,4.5586,4.5586,4.5586,4.5586,4.5586,4.5586,4.5586,4.5586,4.5586,4.5586,4.5586,4.5586,4.5586,4.5586,2.5521,2.5416,2.5044,2.4939,2.4979,2.525,2.5848,0.0,0.0,0.0,0.0,0.0,0.0,0.0,0.0,0.0,0.0,0.0,0.0,0.0,0.0,0.0,0.0,0.0,0.0,0.0,0.0,0.0,0.0,3.4446,3.5454,3.5494,3.4324,3.1775,3.4169,3.4655,3.291,3.4628,3.5507,3.5493,3.5493,3.5493,3.5493,3.5493,3.5493,3.5493,3.5493,3.5493,3.5493,3.5493,3.5493,3.5493,3.5493,3.5493,3.5493,3.5493,3.6007,3.6622,3.6007,3.6776,3.793,3.7507,3.8373,3.9642,3.9873,4.0508,4.1296,4.195,4.2143,4.2335,4.3181,4.3855,4.4355,4.4586,4.5124,4.5586,4.5586,4.5586,4.5586,4.5586,4.5586,4.5586,4.5586,4.5586,4.5586,4.5586,4.5586,4.5586,4.5586,4.5586,4.5586,4.5586,4.5586,4.5586,4.5586,4.5586,4.5586,4.5586,4.5586,4.5586,4.5586,4.5586,4.5586,4.5586,4.5586,4.5586,4.5586,4.5586,4.5586,4.5586,4.5586,4.5586,2.673,2.6977,2.6847,2.631,2.66,2.678,0.0,0.0,0.0,0.0,0.0,0.0,0.0,0.0,0.0,0.0,0.0,0.0,0.0,0.0,0.0,0.0,0.0,0.0,0.0,0.0,0.0,0.0,0.0,3.4902,3.5471,3.5487,3.5424,3.5229,3.5405,3.4655,3.291,3.4635,3.5495,3.5493,3.5493,3.5493,3.5493,3.5493,3.5493,3.5493,3.5493,3.5493,3.5493,3.5493,3.5493,3.5493,3.5493,3.5493,3.5493,3.5493,3.6007,3.6699,3.6661,3.7238,3.8123,3.8911,3.9738,4.0585,4.1431,4.2277,4.297,4.3028,4.3028,4.322,4.4028,4.4259,4.4509,4.5336,4.5566,4.5586,4.5586,4.5586,4.5586,4.5586,4.5586,4.5586,4.5586,4.5586,4.5586,4.5586,4.5586,4.5586,4.5586,4.5586,4.5586,4.5586,4.5586,4.5586,4.5586,4.5586,4.5586,4.5586,4.5586,4.5586,4.5586,4.5586,4.5586,4.5586,4.5586,4.5586,4.5586,4.5586,4.5586,4.5586,4.5586,4.5586,2.6369,2.6392,2.6471,2.6744,2.659,2.6531,2.7035,2.6927,0.0,0.0,0.0,0.0,0.0,0.0,0.0,0.0,0.0,0.0,0.0,0.0,0.0,0.0,0.0,0.0,0.0,0.0,0.0,0.0,0.0,0.0,3.4958,3.5314,3.5499,3.5493,3.5495,3.4147,3.1333,3.409,3.5495,3.5493,3.5493,3.5493,3.5493,3.5493,3.5493,3.5493,3.5493,3.5493,3.5493,3.5493,3.5493,3.5493,3.5493,3.5493,3.5493,3.5493,3.6372,3.745,3.6892,3.7969,3.9565,3.9373,4.0219,4.1393,4.172,4.2412,4.3201,4.372,4.3874,4.4066,4.4913,4.5124,4.5201,4.5528,4.5586,4.5586,4.5586,4.5586,4.5586,4.5586,4.5586,4.5586,4.5586,4.5586,4.5586,4.5586,4.5586,4.5586,4.5586,4.5586,4.5586,4.5586,4.5586,4.5586,4.5586,4.5586,4.5586,4.5586,4.5586,4.5586,4.5586,4.5586,4.5586,4.5586,4.5586,4.5586,4.5586,4.5586,4.5586,4.5586,4.5586,4.5586,2.6265,2.641,2.6709,2.7208,2.7158,2.715,2.7687,0.0,0.0,0.0,0.0,0.0,0.0,0.0,0.0,0.0,0.0,0.0,0.0,0.0,0.0,0.0,0.0,0.0,0.0,0.0,0.0,0.0,0.0,0.0,3.4376,3.5096,3.5235,3.4653,3.4366,3.3359,3.1563,3.359,3.4924,3.5493,3.5493,3.5493,3.5493,3.5493,3.5493,3.5493,3.5493,3.5493,3.5493,3.5493,3.5493,3.5493,3.5493,3.5493,3.5532,3.5815,3.6796,3.7969,3.768,3.8854,4.0412,3.9873,4.0854,4.2239,4.2239,4.3028,4.4047,4.4586,4.4739,4.4874,4.5451,4.5586,4.5586,4.5586,4.5586,4.5586,4.5586,4.5586,4.5586,4.5586,4.5586,4.5586,4.5586,4.5586,4.5586,4.5586,4.5586,4.5586,4.5586,4.5586,4.5586,4.5586,4.5586,4.5586,4.5586,4.5586,4.5586,4.5586,4.5586,4.5586,4.5586,4.5586,4.5586,4.5586,4.5586,4.5586,4.5586,4.5586,4.5586,4.5586,4.5586,4.5586,0.0,0.0,0.0,2.7772,2.8383,2.8755,2.8027,0.0,0.0,0.0,0.0,0.0,0.0,0.0,0.0,0.0,0.0,0.0,0.0,0.0,0.0,0.0,0.0,0.0,0.0,0.0,0.0,0.0,0.0,3.4102,3.3817,3.4888,3.4706,3.2968,3.2148,3.2391,3.3743,3.3179,3.3776,3.5507,3.5507,3.5493,3.5493,3.5493,3.5493,3.5493,3.5493,3.5493,3.5493,3.5493,3.5493,3.5493,3.5493,3.5512,3.5641,3.6411,3.7276,3.8161,3.9008,3.9815,4.0489,4.0489,4.1662,4.3066,4.3085,4.4239,4.5566,4.5586,4.5586,4.5586,4.5586,4.5586,4.5586,4.5586,4.5586,4.5586,4.5586,4.5586,4.5586,4.5586,4.5586,4.5586,4.5586,4.5586,4.5586,4.5586,4.5586,4.5586,4.5586,4.5586,4.5586,4.5586,4.5605,4.5624,4.5586,4.5643,4.5643,4.5586,4.5605,4.5624,4.5586,4.5605,4.5624,4.5586,4.5624,4.5624,4.5586,4.5586,4.5586,4.5586,4.5586,4.5586,2.6488,0.0,0.0,0.0,0.0,0.0,2.8586,2.8653,0.0,0.0,0.0,0.0,0.0,0.0,0.0,0.0,0.0,0.0,0.0,0.0,0.0,0.0,0.0,0.0,0.0,0.0,0.0,0.0,3.4751,3.4497,3.3833,3.4868,3.471,3.2966,3.2673,3.2571,3.2583,3.2801,3.3769,3.5495,3.5488,3.5493,3.5493,3.5493,3.5493,3.5493,3.5493,3.5493,3.5493,3.5493,3.5493,3.5493,3.5493,3.5872,3.6392,3.6622,3.7642,3.8969,3.9219,3.9815,4.0489,4.0489,4.1239,4.2277,4.2912,4.3835,4.4778,4.5413,4.5586,4.5586,4.5586,4.5586,4.5586,4.5586,4.5586,4.5586,4.5586,4.5586,4.5586,4.5586,4.5586,4.5586,4.5586,4.5586,4.5586,4.5586,4.5586,4.5586,4.5586,4.5586,4.5586,4.5586,4.6163,4.6297,4.5643,4.6701,4.6894,4.5682,4.6182,4.6259,4.5624,4.6201,4.624,4.5605,4.622,4.622,4.5586,4.5586,4.5586,4.5586,4.5586,4.5586,0.0,0.0,0.0,0.0,0.0,0.0,2.8805,2.9011,2.9144,0.0,0.0,0.0,0.0,0.0,0.0,0.0,0.0,0.0,0.0,0.0,0.0,0.0,0.0,0.0,0.0,0.0,0.0,3.5027,3.5128,3.4803,3.3836,3.4886,3.5026,3.4024,3.3282,3.2859,3.2808,3.2654,3.3545,3.5489,3.5501,3.5493,3.5493,3.5493,3.5493,3.5493,3.5493,3.5493,3.5545,3.5872,3.5815,3.5532,3.5872,3.6295,3.6796,3.7526,3.843,3.9354,3.9681,4.0104,4.0489,4.0489,4.1085,4.197,4.2835,4.3662,4.447,4.5336,4.5586,4.5586,4.5586,4.5586,4.5586,4.5586,4.5586,4.5586,4.5586,4.5586,4.5586,4.5586,4.5586,4.5586,4.5586,4.5586,4.5586,4.5586,4.5586,4.5586,4.5586,4.5586,4.5586,4.5586,4.6374,4.6547,4.5663,4.7144,4.7375,4.5701,4.6721,4.6855,4.5643,4.6432,4.649,4.5605,4.6105,4.6105,4.5586,4.5586,4.5586,4.5586,4.5586,4.5586,0.0,0.0,0.0,0.0,0.0,0.0,2.8789,2.9011,2.9434,0.0,0.0,0.0,0.0,0.0,0.0,0.0,0.0,0.0,0.0,0.0,0.0,0.0,0.0,0.0,0.0,3.5689,3.5615,3.5312,3.5478,3.5087,3.3975,3.4925,3.5508,3.5495,3.3904,3.3288,3.3801,3.2673,3.3173,3.5316,3.5443,3.5493,3.5493,3.5493,3.5493,3.5493,3.5589,3.557,3.5565,3.6372,3.6238,3.5603,3.6488,3.6853,3.7046,3.8681,3.9354,3.9527,4.0239,4.0546,4.0642,4.0642,4.1219,4.2104,4.297,4.372,4.447,4.5336,4.5586,4.5586,4.5586,4.5586,4.5586,4.5586,4.5586,4.5586,4.5586,4.5586,4.5586,4.5586,4.5586,4.5586,4.5586,4.5586,4.5586,4.5586,4.5586,4.5586,4.5586,4.5586,4.5586,4.5586,4.6451,4.6644,4.5682,4.7317,4.7586,4.572,4.7259,4.749,4.5797,4.6567,4.6624,4.5759,4.5643,4.5586,4.5586,4.5586,4.5586,4.5586,4.5586,4.5586,0.0,0.0,0.0,0.0,0.0,0.0,2.867,2.9011,2.9527,0.0,0.0,0.0,0.0,0.0,0.0,0.0,0.0,0.0,0.0,0.0,0.0,0.0,0.0,0.0,0.0,3.6985,3.7085,3.7,3.6473,3.5669,3.4584,3.5151,3.5499,3.5507,3.4487,3.3891,3.3795,3.2679,3.2775,3.4141,3.5064,3.5493,3.5493,3.5493,3.5493,3.5545,3.618,3.6103,3.5565,3.6372,3.6238,3.5661,3.7161,3.7757,3.7873,3.8911,3.97,4.0277,4.045,4.095,4.1546,4.1546,4.2143,4.3008,4.3816,4.4182,4.447,4.5336,4.5586,4.5586,4.5586,4.5586,4.5586,4.5586,4.5586,4.5586,4.5586,4.5586,4.5586,4.5586,4.5586,4.5586,4.5586,4.5586,4.5586,4.5586,4.5586,4.5586,4.5586,4.5586,4.5586,4.5586,4.6951,4.7259,4.572,4.8413,4.8875,4.5778,4.7836,4.8394,4.6721,4.7432,4.749,4.6663,4.5951,4.5586,4.5586,4.5586,4.5586,4.5586,4.5586,4.5586,0.0,0.0,0.0,2.5423,0.0,0.0,0.0,2.8612,2.9678,0.0,0.0,0.0,0.0,0.0,0.0,0.0,0.0,0.0,0.0,0.0,0.0,0.0,0.0,0.0,0.0,3.7415,3.7669,3.8053,3.621,3.5783,3.7506,3.6268,3.5761,3.6334,3.5372,3.4776,3.4635,3.409,3.409,3.4635,3.5238,3.5493,3.5493,3.5493,3.5493,3.5532,3.6353,3.6469,3.6199,3.7469,3.7507,3.6834,3.7661,3.8277,3.8796,4.0085,4.0527,4.0604,4.1489,4.1797,4.1873,4.2316,4.2739,4.3258,4.4066,4.4605,4.5028,4.547,4.5586,4.5586,4.5586,4.5586,4.5586,4.5586,4.5586,4.5586,4.5586,4.5586,4.5586,4.5586,4.5586,4.5586,4.5586,4.5586,4.5586,4.5586,4.5586,4.5586,4.5586,4.597,4.6086,4.5643,4.749,4.8067,4.6394,4.8971,4.9586,4.7009,4.8452,4.8836,4.7548,4.7509,4.7105,4.6278,4.5817,4.5586,4.5586,4.5586,4.5586,4.5586,4.5586,4.5586,0.0,0.0,0.0,0.0,0.0,2.642,0.0,0.0,0.0,3.0802,0.0,0.0,0.0,0.0,0.0,0.0,0.0,0.0,0.0,0.0,0.0,0.0,0.0,0.0,0.0,3.8102,3.8224,3.8652,3.6366,3.6554,4.0309,3.7729,3.6422,3.7084,3.6276,3.5732,3.5509,3.5501,3.5501,3.5509,3.5488,3.5493,3.5493,3.5493,3.5493,3.5551,3.6526,3.6873,3.6853,3.8584,3.8892,3.8277,3.8411,3.8815,3.9469,4.0989,4.12,4.095,4.2354,4.2604,4.2412,4.3104,4.3431,4.3701,4.4355,4.5028,4.5586,4.5586,4.5586,4.5586,4.5586,4.5586,4.5586,4.5586,4.5586,4.5586,4.5586,4.5586,4.5586,4.5586,4.5586,4.5586,4.5586,4.5586,4.5586,4.5586,4.5586,4.5586,4.5586,4.6355,4.6624,4.5932,4.7971,4.8779,4.7259,4.9317,4.9894,4.799,4.8836,4.9009,4.8144,4.7644,4.6817,4.5605,4.5759,4.5759,4.5586,4.5586,4.5586,4.5586,4.5586,4.5586,0.0,0.0,0.0,0.0,2.4709,0.0,0.0,0.0,2.9321,3.1769,0.0,0.0,0.0,0.0,0.0,0.0,0.0,0.0,0.0,0.0,0.0,0.0,0.0,0.0,0.0,0.0,3.9632,3.8767,3.8864,3.9418,4.0444,3.9188,3.792,3.6796,3.6911,3.6507,3.5507,3.5507,3.5507,3.5507,3.5507,3.5493,3.5493,3.5493,3.5493,3.5603,3.718,3.7411,3.6853,3.8584,3.9238,3.9219,3.9931,3.9835,3.9411,4.0296,4.1066,4.1681,4.1893,4.2854,4.4028,4.4124,4.4682,4.5316,4.5413,4.5509,4.5586,4.5586,4.5586,4.5586,4.5586,4.5586,4.5586,4.5586,4.5586,4.5586,4.5586,4.5586,4.5586,4.5586,4.5586,4.5586,4.5586,4.5586,4.5586,4.5586,4.5586,4.5586,4.5586,4.6355,4.6855,4.6759,4.8336,4.9009,4.8048,4.9644,4.9644,4.7201,4.8529,4.9009,4.8144,4.8759,4.8009,4.5643,4.6355,4.6374,4.5586,4.5586,4.5586,4.5586,4.5586,4.5586,0.0,0.0,0.0,0.0,0.0,0.0,0.0,0.0,3.0501,0.0,0.0,0.0,0.0,0.0,0.0,0.0,0.0,0.0,0.0,0.0,0.0,0.0,0.0,0.0,0.0,0.0,0.0,0.0,0.0,4.023,4.0492,3.9423,3.8531,3.7935,3.682,3.5979,3.5498,3.5493,3.5493,3.5493,3.5493,3.5493,3.5493,3.5493,3.5757,3.6257,3.7469,3.8084,3.8296,3.9488,3.9988,4.0027,4.0354,4.0277,4.0162,4.1508,4.1912,4.2008,4.3489,4.4124,4.4374,4.4893,4.5297,4.5586,4.5586,4.5586,4.5586,4.5586,4.5586,4.5586,4.5586,4.5586,4.5586,4.5586,4.5586,4.5586,4.5586,4.5586,4.5586,4.5586,4.5586,4.5586,4.5586,4.5586,4.5759,4.6278,4.5913,4.5951,4.6932,4.7375,4.7605,4.7605,4.9125,4.9606,4.8221,4.9702,5.0029,4.8452,4.9009,4.8567,4.6721,4.7932,4.7682,4.5624,4.6471,4.6471,4.5586,4.5586,4.5586,4.5586,4.5586,4.5586,2.3289,0.0,0.0,0.0,0.0,0.0,0.0,0.0,0.0,0.0,0.0,0.0,0.0,0.0,0.0,0.0,0.0,0.0,0.0,0.0,0.0,0.0,0.0,0.0,0.0,0.0,0.0,3.987,4.0246,4.0498,4.0507,3.9727,3.9123,3.8815,3.7565,3.6435,3.5518,3.5493,3.5493,3.5493,3.5493,3.5493,3.5526,3.5738,3.6161,3.6757,3.7873,3.8719,3.9354,4.0162,4.0489,4.0508,4.0758,4.0854,4.1008,4.2277,4.2624,4.2758,4.4605,4.4989,4.4759,4.5393,4.5586,4.5586,4.5586,4.5586,4.5586,4.5586,4.5586,4.5586,4.5586,4.5586,4.5586,4.5586,4.5586,4.5586,4.5586,4.5586,4.5586,4.5586,4.5586,4.5586,4.5586,4.5586,4.5797,4.6451,4.6009,4.6028,4.7259,4.7625,4.7778,4.7778,4.9317,4.9721,4.824,4.9471,4.9971,4.9106,4.9048,4.8125,4.6028,4.7336,4.7317,4.5624,4.6471,4.6471,4.5586,4.5586,4.5586,4.5586,4.5586,4.5586,0.0,0.0,0.0,2.6082,0.0,0.0,0.0,0.0,3.0676,0.0,0.0,0.0,0.0,0.0,0.0,0.0,0.0,0.0,0.0,0.0,0.0,0.0,0.0,0.0,0.0,0.0,0.0,4.0614,4.0476,4.0484,4.0501,4.0471,3.9946,3.8845,3.9798,3.8782,3.5532,3.5493,3.5493,3.5493,3.5493,3.5493,3.5545,3.6315,3.668,3.6796,3.8507,3.9258,3.9354,4.0162,4.0489,4.0566,4.1431,4.1758,4.1777,4.1816,4.2854,4.422,4.4316,4.4874,4.5547,4.5586,4.5586,4.5586,4.5586,4.5586,4.5586,4.5586,4.5586,4.5586,4.5586,4.5586,4.5586,4.5586,4.5586,4.5586,4.5586,4.5586,4.5586,4.5586,4.5586,4.5586,4.5586,4.5586,4.5605,4.5624,4.5605,4.5605,4.5663,4.6413,4.6951,4.6951,4.8432,4.9086,4.8182,4.8913,4.9067,4.8202,4.8144,4.7759,4.6894,4.7663,4.7317,4.5624,4.6471,4.6471,4.5586,4.5586,4.5586,4.5586,4.5586,4.5586,0.0,0.0,2.3088,2.4797,0.0,0.0,0.0,0.0,0.0,0.0,0.0,0.0,0.0,0.0,0.0,0.0,0.0,0.0,0.0,0.0,0.0,0.0,0.0,0.0,0.0,0.0,0.0,3.9527,4.1104,4.1639,4.031,4.095,4.0912,3.9965,3.9215,3.7777,3.5508,3.5498,3.5493,3.5493,3.5493,3.5493,3.5512,3.5795,3.6507,3.7584,3.818,3.9065,4.0104,4.0392,4.0489,4.0585,4.147,4.2162,4.272,4.3258,4.3816,4.4374,4.4951,4.5336,4.5586,4.5586,4.5586,4.5586,4.5586,4.5586,4.5586,4.5586,4.5586,4.5586,4.5586,4.5586,4.5586,4.5586,4.5586,4.5586,4.5586,4.5586,4.5586,4.5586,4.5586,4.5586,4.5586,4.5586,4.5797,4.6374,4.597,4.599,4.7105,4.7048,4.7105,4.7644,4.8202,4.8202,4.7375,4.7586,4.7855,4.8086,4.8105,4.774,4.6932,4.7682,4.7317,4.5624,4.6471,4.6471,4.5586,4.5586,4.5586,4.5586,4.5586,4.5586,2.2777,2.2885,0.0,2.4898,2.6184,0.0,2.992,0.0,0.0,0.0,0.0,0.0,0.0,0.0,0.0,3.4853,3.5174,0.0,0.0,3.7956,0.0,0.0,0.0,0.0,0.0,0.0,4.0714,3.8044,4.0904,4.2098,0.0,0.0,4.1508,4.0527,3.945,3.78,3.5513,3.5498,3.5493,3.5493,3.5795,3.5795,3.5532,3.6449,3.7276,3.8027,3.8623,3.9488,4.0489,4.0489,4.0489,4.0604,4.1797,4.2604,4.3201,4.3989,4.4489,4.4836,4.5413,4.5586,4.5586,4.5586,4.5586,4.5586,4.5586,4.5586,4.5586,4.5586,4.5586,4.5586,4.5586,4.5586,4.5586,4.5586,4.5586,4.5586,4.5586,4.5586,4.5586,4.5586,4.5586,4.5586,4.5586,4.5586,4.5778,4.6355,4.5951,4.599,4.7067,4.6759,4.6644,4.7163,4.749,4.7471,4.6951,4.6913,4.7124,4.7644,4.7952,4.774,4.6932,4.7413,4.7163,4.6086,4.6317,4.6317,4.6067,4.6067,4.5893,4.5605,4.6201,4.6163]},{"header":{"parameterUnit":"m.s-1","parameterCategory":1,"la1":30.6,"la2":29.2853,"lo1":-89.7004,"lo2":-87.6739,"dy":0.0162,"dx":0.0183,"nx":112,"ny":82,"refTime":"2023-11-17T06:00:00:Z","depth":0,"parameterNumber":3,"parameterNumberName":"V-component_of_WINDS"},"data":[0.0,0.0,0.0,0.0,0.0,0.0,0.0,0.0,0.0,0.0,0.0,0.0,0.0,0.0,0.0,0.0,0.0,0.0,0.0,0.0,0.0,0.0,0.0,0.0,0.0,0.0,0.0,0.0,0.0,0.0,0.0,0.0,0.0,0.0,0.0,0.0,0.0,0.0,0.0,0.0,0.0,0.0,0.0,0.0,0.0,0.0,0.0,0.0,0.0,0.0,0.0,0.0,0.0,0.0,0.0,0.0,0.0,0.0,0.0,0.0,0.0,0.0,0.0,0.0,0.0,0.0,0.0,0.0,0.0,0.0,0.0,0.0,0.0,0.0,0.0,0.0,0.0,0.0,0.0,0.0,0.0,0.0,0.0,0.0,0.0,0.0,0.0,0.0,0.0,0.0,0.0,0.2541,0.0053,-0.3253,-0.6963,-1.1364,-1.4602,-1.628,0.0,0.0,0.0,0.0,0.0,0.0,0.0,0.0,0.0,0.0,0.0,0.0,0.0,0.0,0.0,0.0,0.0,0.0,0.0,0.0,0.0,0.0,0.0,0.0,0.0,0.0,0.0,0.0,0.0,0.0,0.0,0.0,0.0,0.0,0.0,0.0,0.0,0.0,0.0,0.0,0.0,0.0,0.0,0.0,0.0,0.0,0.0,0.0,0.0,0.0,0.0,0.0,0.0,0.0,0.0,0.0,0.0,0.0,0.0,0.0,0.0,0.0,0.0,0.0,0.0,0.0,0.0,0.0,0.0,0.0,0.0,0.0,0.0,0.0,0.0,0.0,0.0,0.0,0.0,0.0,0.0,0.0,0.0,0.0,0.0,0.0,0.0,0.0,0.0,0.0,0.0,0.0,0.0,0.0,0.0,0.0,0.0,0.0,0.0,0.0,0.0,0.0,0.0,0.0,0.1861,0.5019,0.1943,-0.2135,-0.6675,-0.964,-1.2703,-1.6014,0.0,0.0,0.0,0.0,0.0,0.0,0.0,0.0,0.0,0.0,0.0,0.0,0.0,0.0,0.0,0.0,0.0,0.0,0.0,0.0,0.0,0.0,0.0,0.0,0.0,0.0,0.0,0.0,0.0,0.0,0.0,0.0,0.0,0.0,0.0,0.0,0.0,0.0,0.0,0.0,0.0,0.0,0.0,0.0,0.0,0.0,0.0,0.0,0.0,0.0,0.0,0.0,0.0,0.0,0.0,0.0,0.0,0.0,0.0,0.0,0.0,0.0,0.0,0.0,0.0,0.0,0.0,0.0,0.0,0.0,0.0,0.0,0.0,0.0,0.0,0.0,0.0,0.0,0.0,0.0,0.0,0.0,0.0,0.0,0.0,0.0,0.0,0.0,0.0,0.0,0.0,0.0,0.0,0.0,0.0,0.0,0.0,0.0,0.0,0.0,0.0,0.0,0.0,0.3326,0.5345,0.7231,0.3934,-0.0214,-0.4568,-0.8331,-1.1695,-1.4654,-1.6615,0.0,0.0,0.0,0.0,0.0,0.0,0.0,0.0,0.0,0.0,0.0,0.0,0.0,0.0,0.0,0.0,0.0,0.0,0.0,0.0,0.0,0.0,0.0,0.0,0.0,0.0,0.0,0.0,0.0,0.0,0.0,0.0,0.0,0.0,0.0,0.0,0.0,0.0,0.0,0.0,0.0,0.0,0.0,0.0,0.0,0.0,0.0,0.0,0.0,0.0,0.0,0.0,0.0,0.0,0.0,0.0,0.0,0.0,0.0,0.0,0.0,0.0,0.0,0.0,0.0,0.0,0.0,0.0,0.0,0.0,0.0,0.0,0.0,0.0,0.0,0.0,0.0,0.0,0.0,0.0,0.0,0.0,0.0,0.0,0.0,0.0,0.0,0.0,0.0,0.0,0.0,0.0,0.0,0.0,0.0,0.0,0.0,0.0,0.0,0.0,0.0,0.0,0.7123,0.8324,0.8677,0.5443,0.1612,-0.2357,-0.708,-1.0838,-1.3263,-1.5552,0.0,0.0,0.0,0.0,0.0,0.0,0.0,0.0,0.0,0.0,0.0,0.0,0.0,0.0,0.0,0.0,0.0,0.0,0.0,0.0,0.0,0.0,0.0,0.0,0.0,0.0,0.0,0.0,0.0,0.0,0.0,0.0,0.0,0.0,0.0,0.0,0.0,0.0,0.0,0.0,0.0,0.0,0.0,0.0,0.0,0.0,0.0,0.0,0.0,0.0,0.0,0.0,0.0,0.0,0.0,0.0,0.0,0.0,0.0,0.0,0.0,0.0,0.0,0.0,0.0,0.0,0.0,0.0,0.0,0.0,0.0,0.0,0.0,0.0,0.0,0.0,0.0,0.0,0.0,0.0,0.0,0.0,0.0,0.0,0.0,0.0,0.0,0.0,0.0,0.0,0.0,0.0,0.0,0.0,0.0,0.0,0.0,0.0,0.0,0.0,0.0,0.0,0.8022,0.9422,0.8781,0.6081,0.2774,-0.0926,-0.5885,-0.988,-1.2355,-1.4474,0.0,0.0,0.0,0.0,0.0,0.0,0.0,0.0,0.0,0.0,0.0,0.0,0.0,0.0,0.0,0.0,0.0,0.0,0.0,0.0,0.0,0.0,0.0,0.0,0.0,0.0,0.0,0.0,0.0,0.0,0.0,0.0,0.0,0.0,0.0,0.0,0.0,0.0,0.0,0.0,0.0,0.0,0.0,0.0,0.0,0.0,0.0,0.0,0.0,0.0,0.0,0.0,0.0,0.0,0.0,0.0,0.0,0.0,0.0,0.0,0.0,0.0,0.0,0.0,0.0,0.0,0.0,0.0,0.0,0.0,0.0,0.0,0.0,0.0,0.0,0.0,0.0,0.0,0.0,0.0,0.0,0.0,0.0,0.0,0.0,0.0,0.0,0.0,0.0,0.0,0.0,0.0,0.0,0.0,0.0,0.0,0.0,0.0,0.0,0.0,0.0,0.0,0.8901,0.9072,0.0,0.6951,0.3887,-0.0709,-0.4938,-0.87,-1.17,0.0,0.0,0.0,0.0,0.0,0.0,0.0,0.0,0.0,0.0,0.0,0.0,0.0,0.0,0.0,0.0,0.0,0.0,0.0,0.0,0.0,0.0,0.0,0.0,0.0,0.0,0.0,0.0,0.0,0.0,0.0,0.0,0.0,0.0,0.0,0.0,0.0,0.0,0.0,0.0,0.0,0.0,0.0,0.0,0.0,0.0,0.0,0.0,0.0,0.0,0.0,0.0,0.0,0.0,0.0,0.0,0.0,0.0,0.0,0.0,0.0,0.0,0.0,0.0,0.0,0.0,0.0,0.0,0.0,0.0,0.0,0.0,0.0,0.0,0.0,0.0,0.0,0.0,0.0,0.0,0.0,0.0,0.0,0.0,0.0,0.0,0.0,0.0,0.0,0.0,0.0,0.0,0.0,0.0,0.0,0.0,0.0,0.0,0.0,0.0,0.0,0.0,0.9242,0.9508,0.9026,0.0,0.7422,0.4624,-0.0328,-0.4362,-0.793,-1.104,0.0,0.0,0.0,0.0,0.0,0.0,0.0,0.0,0.0,0.0,0.0,0.0,0.0,0.0,0.0,0.0,0.0,0.0,0.0,0.0,0.0,0.0,0.0,0.0,0.0,0.0,0.0,0.0,0.0,0.0,0.0,0.0,0.0,0.0,0.0,0.0,0.0,0.0,0.0,0.0,0.0,0.0,0.0,0.0,0.0,0.0,0.0,0.0,0.0,0.0,0.0,0.0,0.0,0.0,0.0,0.0,0.0,0.0,0.0,0.0,0.0,0.0,0.0,0.0,0.0,0.0,0.0,0.0,0.0,0.0,0.0,0.0,0.0,0.0,0.0,0.0,0.0,0.0,0.0,0.0,0.0,0.0,0.0,0.0,0.0,0.0,0.0,0.0,0.0,0.0,0.0,0.0,0.0,0.0,0.0,0.0,0.0,0.0,0.0,0.0,0.0,0.0,0.9287,0.991,0.9526,0.8775,0.7422,0.4805,0.0386,-0.4041,-0.7715,0.0,0.0,0.0,0.0,0.0,0.0,0.0,0.0,0.0,0.0,0.0,0.0,0.0,0.0,0.0,0.0,0.0,0.0,0.0,0.0,0.0,0.0,0.0,0.0,0.0,0.0,0.0,0.0,0.0,0.0,0.0,0.0,0.0,0.0,0.0,0.0,0.0,0.0,0.0,0.0,0.0,0.0,0.0,0.0,0.0,0.0,0.0,0.0,0.0,0.0,0.0,0.0,0.0,0.0,0.0,0.0,0.0,0.0,0.0,0.0,0.0,0.0,0.0,0.0,0.0,0.0,0.0,0.0,0.0,0.0,0.0,0.0,0.0,0.0,0.0,0.0,0.0,0.0,0.0,0.0,0.0,0.0,0.0,0.0,0.0,0.0,0.0,0.0,0.0,0.0,0.0,0.0,0.0,0.0,0.0,0.0,0.0,0.0,0.0,0.0,0.0,0.0,0.0,0.9071,0.9806,0.9526,0.8775,0.7422,0.4805,0.0386,-0.4069,-0.7535,-0.9733,0.0,0.0,0.0,0.0,0.0,0.0,0.0,0.0,0.0,0.0,0.0,0.0,0.0,0.0,0.0,0.0,0.0,0.0,0.0,0.0,0.0,0.0,0.0,0.0,0.0,0.0,0.0,0.0,0.0,0.0,0.0,0.0,0.0,0.0,0.0,0.0,0.0,0.0,0.0,0.0,0.0,0.0,0.0,0.0,0.0,0.0,0.0,0.0,0.0,0.0,0.0,0.0,0.0,0.0,0.0,0.0,0.0,0.0,0.0,0.0,0.0,0.0,0.0,0.0,0.0,0.0,0.0,0.0,0.0,0.0,0.0,0.0,0.0,0.0,0.0,0.0,0.0,0.0,0.0,0.0,0.0,0.0,0.0,0.0,0.0,0.0,0.0,0.0,0.0,0.0,0.0,0.0,0.0,0.0,0.0,0.0,0.0,0.0,0.0,0.0,0.0,0.0,0.8906,0.9784,0.9526,0.8775,0.7422,0.4805,0.0386,-0.4078,-0.7463,-0.946,0.0,0.0,0.0,0.0,0.0,0.0,0.0,0.0,0.0,0.0,0.0,0.0,0.0,0.0,0.0,0.0,0.0,0.0,0.0,0.0,0.0,0.0,0.0,0.0,0.0,0.0,0.0,0.0,0.0,0.0,0.0,0.0,0.0,0.0,0.0,0.0,0.0,0.0,0.0,0.0,0.0,0.0,0.0,0.0,0.0,0.0,0.0,0.0,0.0,0.0,0.0,0.0,0.0,0.0,0.0,0.0,0.0,0.0,0.0,0.0,0.0,0.0,0.0,0.0,0.0,0.0,0.0,0.0,0.0,0.0,0.0,0.0,0.0,0.0,0.0,0.0,0.0,0.0,0.0,0.0,0.0,0.0,0.0,0.0,0.0,0.0,0.0,0.0,0.0,0.0,0.0,0.0,0.0,0.0,0.0,0.0,0.0,0.0,0.0,0.0,0.0,0.0,0.8796,0.9776,0.957,0.8677,0.7422,0.4805,0.0386,-0.4078,-0.741,-0.9373,0.0,0.0,0.0,0.0,0.0,0.0,0.0,0.0,0.0,0.0,0.0,0.0,0.0,0.0,0.0,0.0,0.0,0.0,0.0,0.0,0.0,0.0,0.0,0.0,0.0,0.0,0.0,0.0,0.0,0.0,0.0,0.0,0.0,0.0,0.0,0.0,0.0,0.0,0.0,0.0,0.0,0.0,0.0,0.0,0.0,0.0,0.0,0.0,0.0,0.0,0.0,0.0,0.0,0.0,0.0,0.0,0.0,0.0,0.0,0.0,-2.8996,0.0,0.0,0.0,0.0,0.0,0.0,0.0,0.0,0.0,0.0,0.0,0.0,0.0,0.0,0.0,0.0,0.0,0.0,0.0,0.0,0.0,0.0,0.0,0.0,0.0,0.0,0.0,0.0,0.0,0.0,0.0,0.0,0.0,0.0,0.0,0.0,0.0,0.0,0.0,0.0,0.0,0.8209,0.9946,0.9872,0.8016,0.7117,0.4805,0.0386,-0.4078,-0.7272,-0.8806,0.0,0.0,0.0,0.0,0.0,0.0,0.0,0.0,0.0,0.0,0.0,0.0,0.0,0.0,0.0,0.0,0.0,0.0,0.0,0.0,0.0,0.0,0.0,0.0,0.0,0.0,0.0,0.0,0.0,0.0,0.0,0.0,0.0,0.0,0.0,0.0,0.0,0.0,0.0,0.0,0.0,0.0,0.0,0.0,0.0,0.0,0.0,0.0,0.0,0.0,0.0,0.0,0.0,0.0,0.0,0.0,0.0,0.0,0.0,0.0,0.0,-3.0564,0.0,0.0,0.0,0.0,0.0,0.0,0.0,0.0,0.0,0.0,0.0,0.0,0.0,0.0,0.0,0.0,0.0,0.0,0.0,0.0,0.0,0.0,0.0,0.0,0.0,0.0,0.0,0.0,0.0,0.0,0.0,0.0,0.0,0.0,0.0,0.0,0.0,0.0,0.0,0.0,0.6354,0.8443,0.8894,0.7712,0.6982,0.4824,0.0386,-0.4078,-0.7224,-0.8619,-1.0335,0.0,0.0,0.0,0.0,0.0,0.0,0.0,0.0,0.0,0.0,0.0,0.0,0.0,0.0,0.0,0.0,0.0,0.0,0.0,0.0,0.0,0.0,0.0,0.0,0.0,0.0,0.0,0.0,0.0,0.0,0.0,0.0,0.0,0.0,0.0,0.0,0.0,0.0,0.0,0.0,0.0,0.0,0.0,0.0,0.0,0.0,0.0,0.0,0.0,0.0,0.0,0.0,0.0,-2.911,-3.0499,-3.2126,-3.3458,-3.4154,-3.432,-3.3337,-3.3353,-3.4072,0.0,0.0,0.0,0.0,0.0,0.0,0.0,0.0,0.0,0.0,0.0,0.0,0.0,0.0,0.0,0.0,0.0,0.0,0.0,0.0,0.0,0.0,0.0,0.0,0.0,-2.8239,-2.7977,0.0,0.0,0.0,0.0,0.0,0.0,0.0,0.0,0.0,0.0,0.0,0.0,0.4706,0.6839,0.7576,0.7236,0.6825,0.478,0.0329,-0.3851,-0.6891,-0.8417,-0.9849,-1.1846,0.0,0.0,0.0,0.0,0.0,0.0,0.0,0.0,0.0,0.0,0.0,0.0,0.0,0.0,0.0,0.0,0.0,0.0,0.0,0.0,0.0,0.0,0.0,0.0,0.0,0.0,0.0,0.0,0.0,0.0,0.0,0.0,-2.0483,-2.0851,0.0,0.0,0.0,0.0,0.0,0.0,0.0,0.0,0.0,0.0,0.0,0.0,0.0,0.0,-2.4301,-2.6777,-2.8203,-2.8521,-3.0958,-3.2099,-3.2181,-3.3835,-3.5234,-3.6311,-3.5936,0.0,-3.4836,-3.4573,0.0,0.0,0.0,0.0,0.0,0.0,0.0,0.0,0.0,0.0,0.0,0.0,0.0,0.0,0.0,0.0,0.0,0.0,0.0,0.0,0.0,0.0,-2.9235,-2.8527,-2.8925,-2.9499,0.0,-2.8411,-2.7026,-2.5985,0.0,0.0,0.0,0.0,0.0,0.0,0.0,0.0,0.5358,0.7117,0.7114,0.574,0.6206,0.4736,0.0212,-0.2993,-0.5634,-0.7594,-0.9061,-1.1259,-1.4386,-1.5706,0.0,0.0,0.0,0.0,0.0,0.0,0.0,0.0,0.0,0.0,0.0,0.0,0.0,0.0,0.0,0.0,0.0,0.0,0.0,0.0,0.0,0.0,0.0,0.0,0.0,0.0,0.0,0.0,0.0,-1.7929,-1.7336,-1.8328,-1.8508,-2.0035,0.0,0.0,0.0,0.0,0.0,0.0,0.0,0.0,0.0,-1.8998,-2.1506,-2.3499,-2.4859,-2.6597,-2.7966,-2.9114,-3.0943,-3.2097,-3.266,-3.4358,-3.5473,-3.6046,-3.6388,-3.6401,-3.6225,-3.6546,-3.6571,-3.6305,0.0,0.0,0.0,0.0,0.0,-3.3839,-3.4807,-3.4563,0.0,0.0,0.0,0.0,0.0,0.0,0.0,0.0,0.0,0.0,0.0,0.0,0.0,-2.8237,-2.8602,-2.9057,-2.9347,-2.8879,-2.8256,0.0,-2.6924,-2.6115,-2.5399,0.0,0.0,0.0,0.0,0.0,0.0962,0.4455,0.6355,0.6051,0.5672,0.394,0.0211,-0.2823,-0.5412,-0.7446,-0.8899,-1.1116,-1.4363,-1.5762,-1.7511,0.0,0.0,0.0,0.0,0.0,0.0,0.0,0.0,0.0,0.0,0.0,0.0,0.0,0.0,0.0,0.0,0.0,0.0,0.0,0.0,0.0,0.0,0.0,0.0,0.0,0.0,0.0,0.0,-1.4378,-1.3821,-1.5163,-1.6007,-1.7909,0.0,0.0,0.0,0.0,0.0,0.0,-1.7399,-1.7605,-1.8167,-1.9152,-2.1801,-2.4081,-2.5743,-2.6934,-2.821,-2.9619,-3.0803,-3.1775,-3.2625,-3.397,-3.4711,-3.5002,-3.5521,-3.604,-3.662,-3.7452,-3.7786,-3.767,-3.6815,-3.6154,-3.5743,-3.6301,-3.5685,-3.4849,-3.665,-3.6511,-3.542,-3.4754,0.0,-3.2584,-3.106,0.0,0.0,0.0,0.0,-2.7915,-2.7944,-2.7593,-2.735,-2.7792,-2.8016,-2.8211,-2.8464,-2.8528,-2.853,0.0,-2.7586,-2.6615,-2.5783,0.0,0.0,0.0,0.0,-0.6532,-0.2091,0.1832,0.4447,0.4922,0.406,0.2353,-0.0311,-0.2953,-0.5271,-0.7239,-0.8639,-1.0905,-1.4097,-1.5791,-1.7749,-2.0092,0.0,0.0,0.0,0.0,0.0,0.0,0.0,0.0,0.0,0.0,0.0,0.0,0.0,0.0,0.0,0.0,0.0,0.0,0.0,0.0,0.0,0.0,0.0,0.0,0.0,0.0,0.0,0.0,0.0,-1.0634,-1.3523,0.0,0.0,0.0,0.0,-2.0053,-1.7446,-1.676,-1.8865,-1.8358,-1.9246,-2.2026,-2.3975,-2.5775,-2.7389,-2.932,-3.0161,-2.9896,-3.1149,-3.1647,-3.1394,-3.1859,-3.2611,-3.3497,-3.3268,-3.3931,-3.5158,-3.6039,-3.6543,-3.6692,-3.5952,-3.5641,-3.5609,-3.5661,-3.5441,-3.5162,-3.5229,-3.52,-3.5129,-3.5154,-3.4213,-3.2871,-3.1704,-3.0878,0.0,0.0,-2.878,-2.8555,-2.7742,-2.7409,-2.7307,-2.7326,-2.7414,-2.7511,-2.7716,-2.7719,-2.7741,0.0,-2.7066,-2.6254,-2.6257,0.0,-2.0908,-1.6041,-1.3529,-0.9163,-0.0786,0.045,0.0591,0.0617,0.0539,-0.02,-0.195,-0.3387,-0.4908,-0.6573,-0.7964,-1.0167,-1.3422,-1.5935,-1.8396,-2.0785,-2.1977,0.0,0.0,0.0,0.0,0.0,0.0,0.0,0.0,0.0,0.0,0.0,0.0,0.0,0.0,0.0,0.0,0.0,0.0,0.0,0.0,0.0,0.0,0.0,0.0,0.0,0.0,0.0,0.0,-0.7992,-1.0455,0.0,-1.7907,-1.8314,-1.8596,-1.9216,-1.8636,-1.8371,-1.8703,-1.9895,-2.1095,-2.2273,-2.4194,-2.5712,-2.6781,-2.8086,-2.8812,-2.9074,-3.0213,-3.0893,-3.1177,-3.1765,-3.2214,-3.2586,-3.2683,-3.2997,-3.3504,-3.4068,-3.4955,-3.5945,-3.621,-3.5984,-3.56,-3.6125,-3.5957,-3.5446,-3.5431,-3.5078,-3.4569,-3.4066,-3.3593,-3.2942,-3.1359,-3.0761,-3.0231,-2.8501,-2.7652,-2.7144,-2.6714,-2.6274,-2.5943,-2.589,-2.6001,-2.609,-2.6046,-2.6005,-2.5932,-2.5726,-2.5995,-2.6149,-2.5779,-2.2999,-1.947,-1.5483,-1.1592,-0.7041,-0.142,-0.0131,-0.0344,-0.2015,-0.2232,-0.2571,-0.3404,-0.391,-0.5051,-0.7132,-0.8162,-1.0182,-1.3441,-1.5224,-1.7251,-1.9629,-2.047,-2.1296,0.0,0.0,0.0,0.0,0.0,0.0,0.0,0.0,0.0,0.0,0.0,0.0,0.0,0.0,0.0,0.0,0.0,0.0,0.0,0.0,0.0,0.0,0.0,0.0,0.0,0.0,-0.4318,-0.6536,-0.904,-1.1948,-1.554,-1.6827,-1.7656,-1.8262,-1.8682,-1.8805,-1.8706,-2.0409,-2.1758,-2.2565,-2.3722,-2.4927,-2.6047,-2.703,-2.766,-2.7908,-2.9223,-2.9828,-2.983,-3.0281,-3.0529,-3.0605,-3.0825,-3.0951,-3.1068,-3.1373,-3.2064,-3.3134,-3.4802,-3.5143,-3.4725,-3.5226,-3.5104,-3.4699,-3.4697,-3.44,-3.3873,-3.3029,-3.2598,-3.2104,-3.0618,-3.0007,-2.9466,-2.7796,-2.6949,-2.6434,-2.5991,-2.5376,-2.4863,-2.4734,-2.4811,-2.4822,-2.4404,-2.4413,-2.4273,-2.3562,-2.4681,-2.5411,-2.4392,-2.1702,-1.8419,-1.4633,-1.023,-0.6003,-0.2328,-0.1241,-0.1507,-0.3319,-0.3502,-0.3636,-0.4032,-0.4343,-0.5362,-0.7408,-0.8475,-1.0407,-1.3511,-1.4833,-1.662,-1.901,-1.9583,-2.0724,-2.2397,0.0,0.0,0.0,0.0,0.0,0.0,0.0,0.0,0.0,0.0,0.0,0.0,0.0,0.0,0.0,0.0,0.0,0.0,0.0,0.0,0.0,0.0,0.0,-0.3531,-0.333,-0.3813,-0.6242,-0.936,-1.2004,-1.3858,-1.5281,-1.6397,-1.7096,-1.7225,-1.7817,-1.9057,-1.9836,-2.1114,-2.3069,-2.2743,-2.3473,-2.5308,-2.6551,-2.6947,-2.6534,-2.8227,-2.8423,-2.7305,-2.7305,-2.7404,-2.7597,-2.7604,-2.7746,-2.8009,-2.8068,-2.8049,-2.831,-3.1626,-3.2913,-3.2902,-3.2883,-3.2851,-3.2832,-3.2884,-3.2961,-3.2935,-3.2064,-3.1207,-3.0351,-2.9473,-2.8675,-2.7865,-2.7007,-2.6738,-2.65,-2.5592,-2.4804,-2.4199,-2.3929,-2.3895,-2.3717,-2.292,-2.2997,-2.2884,-2.168,-2.3068,-2.387,-2.2111,-2.045,-1.7867,-1.3257,-0.9751,0.0,-0.3412,-0.2994,-0.3063,-0.3265,-0.3313,-0.343,-0.3825,-0.461,-0.576,-0.7366,-0.8843,-1.0873,-1.3554,-1.4792,-1.6578,-1.899,-1.9618,-2.0729,-2.2375,0.0,0.0,0.0,0.0,0.0,0.0,0.0,0.0,0.0,0.0,0.0,0.0,0.0,0.0,0.0,0.0,0.0,0.0,0.0,0.0,0.0,0.0,0.1531,0.0805,-0.1401,-0.3572,-0.5444,-0.8285,-1.0817,-1.2664,-1.4414,-1.5763,-1.6655,-1.7856,-1.8908,-1.9732,-2.0946,-2.1552,-2.1338,-2.3086,-2.3957,-2.3803,-2.5818,-2.6767,-2.6638,-2.7388,-2.7558,-2.7233,-2.7435,-2.7478,-2.7382,-2.7597,-2.7709,-2.7798,-2.7851,-2.7861,-2.8069,-3.0307,-3.1154,-3.1198,-3.1791,-3.1666,-3.1086,-3.0564,-3.0404,-3.0303,-2.9421,-2.8988,-2.8613,-2.7695,-2.7259,-2.6893,-2.5968,-2.5329,-2.4868,-2.4598,-2.3867,-2.3133,-2.2867,-2.2725,-2.2468,-2.1835,-2.1606,-2.1263,-2.0551,-2.0605,-2.0543,-1.9823,-1.8435,-1.6053,-1.2118,-0.9442,0.0,-0.3828,-0.3068,-0.2907,-0.3273,-0.3309,-0.373,-0.4819,-0.5119,-0.6135,0.0,-0.9174,-1.0495,-1.2229,-1.3577,-1.5383,-1.78,-1.9207,-2.0754,0.0,0.0,0.0,0.0,0.0,0.0,0.0,0.0,0.0,0.0,0.0,0.0,0.0,0.0,0.0,0.0,0.0,0.0,0.0,0.0,0.0,0.0,0.3549,0.2943,0.3045,0.0,-0.2976,-0.4964,-0.7196,-0.9449,-1.153,-1.322,-1.4742,-1.6148,-1.7622,-1.8914,-1.9968,-2.122,-2.1666,-2.1144,-2.2542,-2.3122,-2.2743,-2.4332,-2.5213,-2.5364,-2.5837,-2.5976,-2.5817,-2.5986,-2.5996,0.0,-2.6033,-2.6188,-2.6314,-2.6401,-2.6406,0.0,0.0,0.0,0.0,0.0,-2.9653,-2.9142,-2.8816,-2.8649,-2.8455,-2.7593,-2.7297,-2.7121,-2.6221,-2.5948,-2.5753,-2.4884,-2.4257,-2.3786,-2.3431,-2.2565,-2.1701,-2.1323,-2.1129,-2.0807,-2.0007,-1.9658,-1.9281,-1.8592,0.0,0.0,-1.6593,-1.6233,-1.4861,-1.1479,-0.9269,-0.7036,-0.449,-0.3462,-0.3031,-0.3212,-0.3212,-0.3723,-0.5033,-0.5462,0.0,0.0,0.0,-1.0923,-1.2589,-1.4089,0.0,0.0,0.0,-1.9955,-2.1469,0.0,0.0,0.0,-2.4276,-2.4813,0.0,0.0,0.0,0.0,0.0,0.0,0.0,0.0,0.0,0.0,0.0,0.0,0.0,0.0,0.0,0.0,0.4374,0.3693,0.3985,0.1096,-0.1906,-0.4388,-0.6147,-0.8074,-1.0513,-1.2164,-1.3936,-1.615,-1.7225,-1.85,-2.0125,0.0,0.0,0.0,0.0,-2.1471,-2.1741,-2.2416,-2.2929,-2.3218,-2.3794,-2.3871,-2.352,-2.3524,-2.3522,-2.3512,-2.3596,-2.3804,-2.4058,-2.4188,-2.4222,-2.4357,-2.658,-2.7381,-2.7298,-2.7493,-2.7468,0.0,-2.7479,0.0,0.0,-2.628,-2.599,-2.5817,-2.4922,-2.4662,-2.4488,-2.3633,-2.3211,-2.2825,-2.2001,-2.0912,-1.9917,-1.9414,-1.919,-1.8805,-1.7782,-1.7419,-1.7061,-1.6244,-1.5339,-1.4345,-1.3137,-1.4066,-1.3987,-1.1039,-0.9024,-0.7103,-0.5091,-0.3895,-0.3205,-0.3149,0.0,0.0,-0.4819,-0.5745,-0.6832,-0.8323,-0.9923,-1.1697,-1.3721,-1.5374,-1.625,-1.6305,-1.7441,-1.86,-1.9792,-1.988,-2.0655,-2.2104,-2.4862,-2.541,0.0,0.0,0.0,0.0,0.0,0.0,0.0,0.0,0.0,0.0,0.0,0.0,0.0,0.0,0.0,0.6746,0.5678,0.4919,0.5274,0.2599,0.0,-0.1684,-0.4848,-0.7824,-1.0178,-1.2567,-1.5286,-1.8543,-1.8919,-1.953,-2.0825,-2.061,0.0,-1.8779,-1.9912,-2.0185,-1.9444,-2.0728,-2.1417,-2.1475,0.0,0.0,-2.1237,-2.1248,-2.1173,-2.1101,-2.1667,-2.1927,-2.201,-2.2465,-2.2647,-2.2858,-2.5057,-2.6168,-2.658,-2.7151,-2.7161,-2.6851,-2.6468,-2.6313,-2.6097,-2.5017,-2.4667,-2.4482,-2.3451,-2.3139,0.0,-2.1889,-2.1103,-2.0484,-2.0038,-1.8884,-1.7741,-1.7428,-1.6949,-1.6483,-1.6029,-1.5415,-1.49,-1.4727,-1.3709,-1.2679,-1.2024,-1.2795,-1.257,-0.977,-0.8201,-0.6645,-0.4749,-0.3505,-0.2944,-0.3303,-0.3307,-0.3792,-0.5107,-0.5909,-0.6797,-0.7775,-0.9695,-1.1697,-1.3721,-1.4595,-1.5276,-1.5752,-1.6455,-1.7636,-1.9265,-1.9698,-2.0733,-2.2358,-2.3314,-2.3851,0.0,0.0,0.0,0.0,0.0,0.0,0.0,0.0,0.0,0.0,0.0,0.2883,0.0,0.0,0.7116,0.8365,0.7023,0.6275,0.7574,0.5696,0.3139,0.0338,-0.3275,-0.6219,-0.7895,-1.2412,-1.5243,-1.5219,-1.6664,-1.7538,-1.7493,-1.7752,-1.7648,-1.7068,-1.7618,-1.7591,-1.6867,-1.7563,-1.8055,-1.8267,-1.8229,-1.8375,-1.8616,-1.8934,-1.9045,-1.9036,-1.9665,-2.002,-2.0254,-2.0809,-2.1035,-2.1151,-2.2268,-2.3424,-2.4499,-2.4935,-2.5059,-2.4953,-2.4576,-2.4376,-2.4182,-2.3364,-2.3088,-2.2923,-2.2113,-2.1693,-2.1224,-1.9959,-1.909,-1.8368,-1.7815,-1.7009,-1.628,-1.5977,-1.5492,-1.5009,-1.4708,-1.396,-1.3275,-1.3011,-1.2248,-1.1406,-1.062,-1.092,-1.0687,-0.905,-0.769,-0.6338,-0.4915,-0.3823,-0.3224,-0.3392,-0.3283,-0.3698,-0.4986,-0.6222,-0.7629,-0.9148,-1.0246,-1.1566,-1.3276,-1.4201,-1.4835,-1.5141,-1.6333,-1.7532,-1.8711,-1.9502,-2.0444,-2.1454,-2.1978,-2.2588,0.0,0.0,0.0,0.0,0.0,0.0,0.0,-0.6848,-0.3682,-0.0388,0.2832,0.5538,0.7246,0.7835,0.8579,1.0178,0.8883,0.8257,1.0069,0.854,0.6005,0.2623,-0.0685,-0.3246,-0.4594,-1.0593,-1.3505,-1.131,-1.3329,-1.4366,-1.3701,-1.4441,-1.4919,-1.4932,-1.4716,-1.4376,-1.4013,-1.4029,-1.4218,-1.4528,-1.4903,-1.5248,-1.5649,-1.6344,-1.6664,-1.6704,-1.7404,-1.8003,-1.852,-1.8995,-1.9196,-1.9201,-1.9201,-2.0199,-2.1733,-2.2241,-2.2476,-2.2563,-2.2452,-2.2303,-2.2074,-2.152,-2.1362,-2.122,-2.0381,-1.988,-1.926,-1.7775,-1.698,-1.6378,-1.5549,-1.5139,-1.4844,-1.455,-1.4147,-1.3748,-1.3465,-1.2634,-1.1843,-1.1424,-1.0856,-1.0137,-0.9129,-0.893,-0.881,-0.8351,-0.7194,-0.6034,-0.5045,-0.4096,-0.3459,-0.3406,-0.3239,-0.3671,-0.5042,-0.6466,-0.8241,-1.0493,-1.072,-1.1425,-1.2813,-1.392,-1.4652,-1.488,-1.6312,-1.7397,-1.8126,-1.8967,-1.964,-2.0041,-2.0459,-2.1268,-2.5447,-2.4146,-2.2253,-1.9279,-1.6162,-1.2591,0.0,-0.3374,0.0613,0.3842,0.6713,0.9181,1.1035,1.1436,1.1736,1.2594,1.1988,1.1597,1.2104,0.9234,0.686,0.6384,0.4352,0.1983,-0.0581,-0.4981,-0.8899,-1.1843,-1.1117,-1.1227,-1.2766,-1.2541,-1.1914,-1.0791,-1.0867,-1.0876,-1.0835,-1.0942,-1.1024,-1.1055,-1.1768,-1.2092,-1.2168,-1.2926,-1.3258,-1.3294,-1.444,-1.5598,-1.6597,-1.6692,-1.6692,-1.6695,-1.6692,-1.7377,-1.855,-2.0092,-2.0511,-2.03,-2.0582,-2.0643,-2.0503,-1.9672,-1.9405,-1.9116,-1.7568,-1.7065,-1.6708,-1.5168,-1.4683,-1.443,-1.3542,-1.304,-1.2738,-1.2716,-1.239,-1.2067,-1.2043,-1.1201,-1.0436,-1.0387,-0.9591,-0.8569,-0.748,-0.7273,-0.7231,-0.7189,-0.6491,-0.5556,-0.445,-0.3633,-0.32,-0.3289,-0.3293,-0.4015,-0.5917,-0.6363,-0.7475,-0.9791,-1.0466,-1.1408,-1.2783,-1.3521,-1.4411,-1.5499,-1.5691,-1.6331,-1.7404,-1.7553,-1.7855,-1.8386,-1.8425,-1.9427,-2.4448,-2.2767,-2.0379,-1.7092,-1.3432,-0.9489,-0.4941,-0.1053,0.2433,0.5506,0.8555,1.1274,1.3329,1.4285,1.5136,0.0,1.5159,1.4069,1.3616,1.2391,1.0664,0.8268,0.8369,0.7156,0.3479,0.235,0.0295,-0.3431,-0.3758,-0.4621,-0.6486,-0.7121,-0.7669,-0.8216,-0.7688,-0.7655,-0.8146,-0.7821,-0.7652,-0.7658,-0.8665,-0.916,-0.916,-1.0011,-1.0814,-1.1572,-1.2503,-1.3393,-1.4247,-1.462,-1.4778,-1.4812,-1.5215,-1.561,-1.6248,-1.818,-1.8965,-1.906,-1.8914,-1.865,-1.8205,-1.7344,-1.7044,-1.6817,-1.5486,-1.4924,-1.4536,-1.3481,-1.3042,-1.2695,-1.197,-1.1651,-1.1454,-1.1137,-1.0709,-1.0397,-1.0397,-0.9826,-0.9253,-0.8933,-0.8236,-0.7453,-0.667,-0.624,-0.5893,-0.554,-0.5207,-0.4857,-0.4363,-0.3671,-0.3239,-0.3299,-0.3386,-0.4116,-0.5784,-0.6121,-0.725,-0.9407,-0.9957,-1.0813,-1.215,-1.288,-1.3643,-1.4538,-1.4915,-1.5487,-1.6318,-1.6604,-1.7079,-1.7626,-1.7947,-1.8531,-2.2439,-2.0787,-1.8503,-1.4506,-1.0772,-0.6897,-0.2673,0.1088,0.4515,0.7499,1.0896,1.3901,1.5847,1.694,1.7839,1.8705,1.7387,1.5788,1.4388,1.3784,1.2235,0.8884,1.0211,0.9877,0.6065,0.6845,0.6454,0.3723,0.2222,0.0624,-0.1174,-0.2147,-0.3342,-0.4961,-0.4287,-0.4193,-0.4811,-0.465,-0.4546,-0.4542,-0.5875,-0.6488,-0.6653,-0.7657,-0.8775,-0.9875,-1.0572,-1.1271,-1.1932,-1.2619,-1.2916,-1.2934,-1.3434,-1.3736,-1.4032,-1.5563,-1.6666,-1.7402,-1.7068,-1.6601,-1.5957,-1.5035,-1.4643,-1.4346,-1.325,-1.2722,-1.2365,-1.176,-1.1358,-1.1001,-1.0447,-1.0301,-1.0137,-0.9605,-0.9191,-0.8922,-0.8745,-0.8326,-0.7867,-0.7467,-0.6917,-0.6362,-0.5782,-0.5351,-0.487,-0.4264,-0.4176,-0.4176,-0.4176,-0.373,-0.337,-0.337,-0.3514,-0.4145,-0.5423,-0.5922,-0.6968,-0.8833,-0.9475,-1.0269,-1.1216,-1.2092,-1.2831,-1.3521,-1.4133,-1.4732,-1.5365,-1.574,-1.6176,-1.6574,-1.697,-1.7164,-1.921,-1.8071,-1.6588,-1.1575,-0.8324,-0.5332,-0.1267,0.3323,0.7664,1.0824,1.4652,1.7848,1.9208,1.9495,1.9451,1.9226,1.8204,1.6621,1.426,1.1741,0.9603,0.8101,0.9056,0.8883,0.0,0.6496,0.6618,0.6418,0.4591,0.2792,0.118,0.1058,0.0665,-0.0177,-0.0322,-0.0375,-0.0376,-0.1421,-0.1936,-0.1953,-0.3376,-0.429,-0.4638,-0.6023,-0.7047,-0.7759,-0.8456,-0.9179,-0.9834,-1.0586,-1.0864,-1.0889,-1.0934,-1.1283,-1.178,-1.1877,-1.315,-1.4821,-1.4799,-1.4505,-1.4018,-1.2832,-1.225,-1.169,-1.0555,-1.0196,-1.0099,-0.9627,-0.9461,-0.9362,-0.8903,-0.8756,-0.8618,-0.8,-0.787,-0.7691,-0.7086,-0.6559,-0.6156,-0.6162,-0.5711,-0.5173,-0.4561,-0.443,-0.4264,-0.3711,-0.3622,-0.3622,-0.3622,-0.3619,-0.3571,-0.3571,-0.3578,-0.4013,-0.5052,-0.577,-0.6657,-0.7676,-0.9026,-0.9814,-0.9865,-1.1116,-1.215,-1.2822,-1.3464,-1.4143,-1.4744,-1.4744,-1.4744,-1.4789,-1.4789,-1.4789,-1.6375,-1.5295,-1.4015,-1.0051,-0.6412,-0.2598,0.2064,0.4566,0.7276,1.2135,1.3502,1.4571,1.7017,1.7985,1.8322,1.8051,1.8094,1.6747,1.275,1.061,0.8666,0.6416,0.837,0.0,0.0,0.0,0.0,0.6493,0.6044,0.4969,0.2903,0.2776,0.2743,0.2653,0.2436,0.2388,0.2563,0.2048,0.1085,-0.0358,-0.1831,-0.3238,-0.4515,-0.4992,-0.5579,-0.623,-0.6993,-0.7422,-0.7729,-0.894,-0.9386,-0.9504,-1.0455,-1.0921,-1.1049,-1.0535,-1.0813,-1.1514,-1.2411,-1.2371,-1.1805,-1.1132,-1.0852,-1.0586,-0.9685,-0.9427,-0.9262,-0.8538,-0.8334,-0.8119,-0.7217,-0.6967,-0.6842,-0.6259,-0.6137,-0.6095,-0.5876,-0.5711,-0.5551,-0.5551,-0.5077,-0.4692,-0.4604,-0.4215,-0.3792,-0.3622,-0.3581,-0.3581,-0.3581,-0.3581,-0.3581,-0.3581,-0.3581,-0.3927,-0.4742,-0.5137,-0.594,-0.7332,-0.7973,-0.8718,-0.9755,-1.021,-1.1015,-1.2101,-1.2346,-1.3024,-1.4097,-1.4097,-1.4086,-1.4043,-1.4043,-1.3788,-1.1913,-1.2752,-1.3312,-0.6586,-0.278,0.0484,0.4998,0.687,0.828,1.052,1.084,1.1693,1.4844,1.6674,1.7698,1.7715,1.7729,1.6224,1.1848,0.9923,0.8121,0.5929,0.786,0.8984,0.0,0.0,0.0,0.6798,0.6614,0.5949,0.4222,0.3866,0.3839,0.3993,0.3856,0.3802,0.3989,0.3811,0.2582,0.0257,-0.0691,-0.2022,-0.3688,-0.4229,-0.4721,-0.5164,-0.5873,-0.6199,-0.6308,-0.7458,-0.7958,-0.8026,-0.8968,-0.93,-0.9264,-0.8756,-0.8572,-0.8778,-1.0172,-1.0277,-0.9738,-0.9276,-0.903,-0.8776,-0.813,-0.7941,-0.7815,-0.7224,-0.7082,-0.6912,-0.618,-0.6007,-0.5834,-0.5269,-0.5138,-0.5093,-0.4865,-0.482,-0.482,-0.4824,-0.4504,-0.4222,-0.4289,-0.399,-0.3695,-0.3737,-0.3737,-0.37,-0.3595,-0.3581,-0.3581,-0.3581,-0.3581,-0.3816,-0.4334,-0.4713,-0.5396,-0.6539,-0.7177,-0.7961,-0.902,-0.9555,-1.0218,-1.1065,-1.1316,-1.1855,-1.2735,-1.2735,-1.2725,-1.2638,-1.2638,-1.2435,-0.5908,-0.9921,-1.3497,-0.1396,0.2222,0.3713,0.7179,0.9585,1.0103,0.6632,0.7241,0.9425,1.2803,1.5496,1.7402,1.795,1.7061,1.5081,1.1502,0.9485,0.7917,0.0,0.0,0.0,0.0,0.0,0.0,0.7364,0.0,0.5906,0.5202,0.4473,0.4033,0.4033,0.4026,0.4026,0.4043,0.3963,0.2583,0.0,0.0,-0.0726,-0.212,-0.3747,-0.4473,-0.4519,-0.5164,-0.5433,-0.5483,-0.6225,-0.6556,-0.6554,-0.6601,-0.6601,-0.6612,-0.6559,-0.6558,-0.6748,-0.802,-0.8237,-0.7823,-0.7359,-0.6903,-0.6501,-0.599,-0.5824,-0.5806,-0.5767,-0.5743,-0.5723,-0.5716,-0.5722,-0.5576,-0.5001,-0.4857,-0.4709,-0.4118,-0.3973,-0.3973,-0.3933,-0.3839,-0.3742,-0.3539,-0.3742,-0.3939,-0.4022,-0.4022,-0.3921,-0.3639,-0.3595,-0.3592,-0.3592,-0.3585,-0.3639,-0.3778,-0.4427,-0.4953,-0.5289,-0.6595,-0.7481,-0.7694,-0.8974,-0.971,-0.9814,-1.0415,-1.0771,-1.0813,-1.0813,-1.0762,-1.0771,-1.0712,-1.0661,-0.0062,-0.1328,-0.308,0.0965,0.2422,0.3669,0.6708,0.5108,0.4097,0.8027,0.7019,0.6236,0.9075,1.1655,1.3553,1.4169,1.4592,0.0,1.0241,0.8227,0.0,0.5846,0.0,0.7317,0.7931,0.9235,0.0,0.0,0.8165,0.744,0.6121,0.5357,0.4698,0.4189,0.4141,0.424,0.4348,0.3212,0.1749,0.0,0.0,-0.0224,-0.0672,-0.3312,-0.449,-0.4519,-0.4688,-0.4743,-0.4787,-0.5471,-0.5806,-0.5819,-0.6371,-0.6577,-0.6529,-0.6005,-0.5804,-0.5775,-0.5618,-0.6182,-0.6937,-0.6817,-0.6703,-0.6529,-0.6182,-0.6096,-0.595,-0.5298,-0.5132,-0.5025,-0.4592,-0.4458,-0.4412,-0.4267,-0.4218,-0.4168,-0.3979,-0.3929,-0.3933,-0.3946,-0.3095,-0.2337,-0.2276,-0.3411,-0.4285,-0.4157,-0.4043,-0.3963,-0.3921,-0.3809,-0.3737,-0.3737,-0.3643,-0.3639,-0.3778,-0.3872,-0.4264,-0.5093,-0.5512,-0.6252,-0.752,-0.7979,-0.8718,-0.9762,-0.9969,-1.0312,-1.0813,-1.0813,-1.0517,-1.0064,-0.9474,-0.8947,0.3017,0.3884,0.4205,0.4633,0.4122,0.4183,0.6784,0.5523,0.4024,0.4767,0.4584,0.5077,0.7358,1.0334,1.2744,0.0,0.0,0.0,1.0607,0.8511,0.6968,0.0,0.6637,0.0,0.767,0.8725,0.9211,0.0,0.8764,0.8038,0.656,0.576,0.5079,0.4341,0.4319,0.441,0.4522,0.3633,0.2122,0.0,0.0,0.0,-0.0056,-0.1738,-0.2854,-0.3511,0.0,-0.4477,-0.4515,-0.4886,-0.5062,-0.5081,-0.5508,-0.5701,-0.561,-0.5207,-0.5033,-0.503,-0.4632,-0.4993,-0.5708,-0.5708,-0.5699,-0.5631,-0.5512,-0.546,-0.5376,-0.485,-0.4698,-0.4627,-0.4295,-0.4229,-0.4229,-0.4229,-0.4229,-0.4233,-0.4184,-0.3647,-0.3381,-0.4092,-0.2473,-0.1026,-0.1005,-0.1879,-0.2703,-0.3229,-0.3813,-0.3974,-0.3318,-0.3677,-0.3945,-0.389,-0.3822,-0.3805,-0.3883,-0.3819,-0.4061,-0.4653,-0.5018,-0.5608,-0.6587,-0.6999,-0.7605,-0.8389,-0.8389,-0.8587,-0.894,-0.894,-0.8738,-0.8389,-0.7953,-0.7593,0.4916,0.6787,0.8406,0.7771,0.5734,0.4381,0.6199,0.6786,0.5479,0.0165,0.2103,0.531,0.733,1.0455,1.3292,1.4887,0.0,1.3742,1.1486,0.9391,0.7667,0.6494,0.7068,0.7597,0.7563,0.8315,0.8804,0.8804,0.8764,0.8112,0.6799,0.6145,0.5433,0.468,0.4574,0.4522,0.4477,0.4487,0.3188,0.0613,0.0168,0.0,0.0,0.0,-0.0671,-0.2007,0.0,0.0,-0.4294,-0.4236,-0.4291,-0.4463,-0.4298,-0.4187,-0.4187,-0.4187,-0.4187,-0.4187,-0.4187,-0.4212,-0.4244,-0.4412,-0.4343,-0.4212,-0.4209,-0.4216,-0.4169,-0.4169,-0.4216,-0.4209,-0.4209,-0.4209,-0.4209,-0.4209,-0.4209,-0.4268,-0.4442,-0.3132,-0.2291,-0.3655,-0.1794,0.0,0.0,0.0,-0.0447,-0.1729,-0.336,-0.3928,-0.2399,-0.3384,-0.4221,-0.4053,-0.4033,-0.4019,-0.4019,-0.4019,-0.4026,-0.4157,-0.4804,-0.5242,-0.5446,-0.6131,-0.648,-0.6588,-0.6588,-0.6588,-0.6588,-0.6588,-0.6588,-0.6588,-0.648,-0.648,0.8592,0.8313,0.7319,0.5417,0.3422,0.1804,0.1417,-0.0495,-0.1379,0.1604,0.4351,0.6913,0.9177,1.0787,1.2322,1.4021,1.3733,1.261,1.0661,0.8721,0.6861,0.0,0.6233,0.6951,0.682,0.0,0.0,0.0,0.0,0.0,0.7563,0.7396,0.6686,0.5378,0.4787,0.4519,0.4522,0.4522,0.4239,0.3677,0.1174,0.0,0.0,0.0,-0.0112,-0.039,0.0,0.0,-0.3239,-0.2777,-0.3332,-0.4353,-0.3079,-0.2581,-0.2581,-0.2581,-0.2581,-0.2581,-0.2581,-0.2585,-0.2813,-0.4107,-0.3649,-0.2575,-0.2625,-0.2625,-0.2625,-0.2625,-0.2625,-0.2623,-0.2623,-0.2623,-0.2623,-0.2623,-0.2623,-0.2963,-0.4222,-0.2355,-0.0448,-0.0728,-0.0336,0.0,0.0,0.0,-0.0112,-0.0335,-0.2751,-0.3946,-0.24,-0.3514,-0.4442,-0.4438,-0.4155,-0.4019,-0.4019,-0.4019,-0.4029,-0.4009,-0.4278,-0.4673,-0.5322,-0.5569,-0.5982,-0.6588,-0.6588,-0.6588,-0.6588,-0.6588,-0.6588,-0.6588,-0.5982,-0.5828,0.7729,0.6881,0.535,0.2743,0.0988,-0.0497,-0.1997,-0.3469,-0.3345,0.0597,0.4171,0.7182,0.8966,1.0553,1.2052,1.3494,1.3277,1.2488,1.1261,0.9161,0.7345,0.6107,0.6173,0.6374,0.0,0.0,0.0,0.0,0.0,0.0,0.7723,0.6961,0.6086,0.5003,0.468,0.4519,0.4519,0.4519,0.4519,0.446,0.2237,0.0729,0.0,0.0,0.0,0.0,0.0,0.0,-0.1566,-0.2852,-0.2911,-0.2097,-0.1363,-0.1073,-0.1066,-0.1066,-0.1066,-0.1178,-0.1911,-0.2193,-0.2473,-0.4002,-0.3999,-0.3086,-0.151,-0.1062,-0.1062,-0.1062,-0.1062,-0.1062,-0.1062,-0.1062,-0.1062,-0.1062,-0.1062,-0.123,-0.2018,-0.1009,0.0,0.0,0.0,0.0,0.0,0.0,0.0,0.0,-0.1233,-0.2189,-0.2184,-0.2151,-0.2785,-0.4331,-0.4364,-0.426,-0.426,-0.4253,-0.425,-0.425,-0.4317,-0.452,-0.4889,-0.4961,-0.5167,-0.55,-0.55,-0.55,-0.55,-0.55,-0.5504,-0.5508,-0.5124,-0.5022,0.6341,0.536,0.3796,0.0778,-0.0777,-0.2052,-0.4051,-0.4242,-0.3236,-0.0549,0.3296,0.6622,0.8111,0.9829,1.1419,1.2828,1.2698,1.2233,1.1755,0.9797,0.808,0.0,0.6518,0.0,0.0,0.0,0.0,0.0,0.0,0.0,0.7943,0.6524,0.5492,0.4956,0.468,0.4519,0.4519,0.4519,0.4519,0.4463,0.3246,0.1737,0.0,0.0,0.0,0.0,0.0,0.0,0.0,-0.2553,-0.2549,-0.0877,-0.027,0.0,0.0,0.0,0.0,-0.0176,-0.1346,-0.1746,-0.1908,-0.3131,-0.3548,-0.3091,-0.0728,0.0,0.0,0.0,0.0,0.0,0.0,0.0,0.0,0.0,0.0,0.0,0.0,0.0,0.0,0.0,0.0,0.0,0.0,0.0,0.0,0.0,0.0,-0.0393,-0.1572,-0.0728,-0.0894,-0.3307,-0.3808,-0.4141,-0.448,-0.4473,-0.4525,-0.4522,-0.4522,-0.4519,-0.4519,-0.4519,-0.4519,-0.4522,-0.4522,-0.4522,-0.4525,-0.4525,-0.4473,-0.4484,-0.4141,-0.4203,0.7328,0.5914,0.3796,0.0777,-0.0776,-0.2038,-0.4031,-0.3441,-0.1932,-0.0319,0.2491,0.5311,0.7329,0.8364,0.9631,1.1721,1.1431,1.0924,1.0951,0.9943,0.8656,0.7113,0.0,0.0,0.0,0.0,0.0,0.0,0.0,0.0,0.0,0.7289,0.648,0.6426,0.5171,0.4519,0.4519,0.4632,0.4632,0.4519,0.4349,0.2788,0.0,0.0,0.0,0.0,0.0,0.0,0.0,-0.0318,-0.1872,-0.3794,-0.1079,0.0,0.0,0.0,0.0,-0.0,-0.0133,-0.0195,-0.0252,-0.0378,-0.0419,-0.0336,-0.0056,0.0,0.0,0.0,0.0,0.0,0.0,0.0,0.0,0.0,0.0,0.0,0.0,0.0,0.0,0.0,0.0,0.0,0.0,0.0,0.0,0.0,0.0,-0.0056,-0.0168,-0.0056,-0.0112,-0.0392,-0.162,-0.2961,-0.4379,-0.4494,-0.449,-0.4477,-0.4477,-0.4473,-0.4519,-0.4519,-0.4522,-0.4477,-0.4477,-0.4484,-0.4494,-0.4494,-0.4494,-0.4494,-0.3072,-0.3135,0.6939,0.5058,0.2395,-0.0556,-0.2339,-0.3508,-0.43,-0.3322,-0.1552,0.0819,0.3023,0.4988,0.6671,0.7587,0.8731,1.0631,1.0609,1.059,1.1241,1.0443,0.9475,0.8582,0.7558,0.0,0.0,0.0,0.0,0.0,0.0,0.0,0.0,0.7475,0.6421,0.5928,0.5106,0.4555,0.4519,0.4691,0.4761,0.4621,0.3571,0.2513,0.1322,0.0377,0.0,0.0,0.0,0.0,0.0,0.0,-0.0674,-0.1687,-0.0472,0.0,0.0,0.0,0.0,0.0,0.0,0.0,0.0,0.0,0.0,0.0,0.0,0.0,0.0,0.0,0.0,0.0,0.0,0.0,0.0,0.0,0.0,0.0,0.0,0.0,0.0,0.0,0.0,0.0,0.0,0.0,0.0,0.0,0.0,0.0,0.0,0.0,0.0,0.0,-0.0503,-0.1116,-0.1732,-0.2625,-0.313,-0.3125,-0.3974,-0.4487,-0.4484,-0.4484,-0.4484,-0.449,-0.3577,-0.3128,-0.313,-0.313,-0.3588,-0.4507,-0.3878,-0.2949,0.6431,0.4326,0.1615,-0.0946,-0.3019,-0.449,-0.4501,-0.3674,-0.1892,0.1484,0.3432,0.4952,0.6317,0.702,0.7985,0.984,1.0054,1.0329,1.1297,1.0817,1.0221,0.0,0.0,0.0,0.0,0.0,0.0,0.0,0.0,0.0,0.0,0.7706,0.6577,0.6013,0.5148,0.4616,0.4482,0.4797,0.4886,0.4815,0.3694,0.256,0.1484,0.0472,0.0,0.0,0.0,0.0,0.0,0.0,0.0,0.0,0.0,0.0,0.0,0.0,0.0,0.0,0.0,0.0,0.0,0.0,0.0,0.0,0.0,0.0,0.0,0.0,0.0,0.0,0.0,0.0,0.0,0.0,0.0,0.0,0.0,0.0,0.0,0.0,0.0,0.0,0.0,0.0,0.0,0.0,0.0,0.0,0.0,0.0,0.0,0.0,0.0,0.0,0.0,-0.0949,-0.1563,-0.1562,-0.2571,-0.336,-0.3811,-0.3811,-0.4039,-0.4501,-0.3418,-0.246,-0.1563,-0.1522,-0.2101,-0.3194,-0.3168,-0.2058,0.6013,0.4094,0.1839,0.0334,-0.2291,-0.4473,-0.4488,-0.446,-0.3224,0.128,0.3444,0.4927,0.6322,0.6588,0.7285,0.9349,0.9686,0.9993,1.0868,1.0995,1.0762,0.0,0.0,0.0,0.0,0.0,0.0,0.0,0.0,0.0,0.0,0.8176,0.7247,0.7089,0.5545,0.4609,0.4476,0.4908,0.507,0.5087,0.5292,0.3485,0.0,0.0,0.0,0.0,0.0,0.0,0.0,0.0,0.0,0.0,0.0,0.0,0.0,0.0,0.0,0.0,0.0,0.0,0.0,0.0,0.0,0.0,0.0,0.0,0.0,0.0,0.0,0.0,0.0,0.0,0.0,0.0,0.0,0.0,0.0,0.0,0.0,0.0,0.0,0.0,0.0,0.0,0.0,0.0,0.0,0.0,0.0,0.0,0.0,0.0,0.0,0.0,0.0,-0.0,-0.0,-0.0,-0.0056,-0.0726,-0.2174,-0.2232,-0.2965,-0.4458,-0.4458,-0.3033,-0.0,-0.0,-0.0059,-0.0059,-0.0061,-0.0,0.5887,0.4853,0.3188,0.0612,-0.0725,-0.1953,-0.4055,-0.448,-0.3244,0.1264,0.3445,0.493,0.6322,0.6769,0.7531,0.9382,0.9846,1.0287,1.1162,1.1463,0.0,0.0,0.0,0.0,0.0,0.0,0.0,0.0,0.0,0.0,0.0,0.8824,0.7913,0.7252,0.5751,0.4887,0.4793,0.5151,0.5236,0.5087,0.5292,0.4824,0.3618,0.2424,0.0,0.0,0.0,0.0,0.0,0.1338,0.2551,0.359,0.2297,0.1814,0.1671,0.0471,0.0,0.0,0.0,0.0,0.0,0.0,0.0,0.0,0.0,0.0,0.0,0.0,0.0,0.0,0.0,0.0,0.0,0.0,0.0,0.0,0.0,0.0,0.0,0.0,0.0,0.0,0.0,0.0,0.0,0.0,0.0,0.0,0.0,0.0,0.0,0.0,0.0,0.0,0.0,0.0,0.0,0.0,0.0,-0.018,-0.0658,-0.0718,-0.0898,-0.1438,-0.1438,-0.0959,0.0,0.0,0.0,0.0,0.0,0.0,0.5723,0.5144,0.3925,0.1448,0.039,-0.0503,-0.2355,-0.2809,-0.1847,0.1505,0.3413,0.493,0.6322,0.688,0.7676,0.9395,1.0306,1.1101,1.1917,1.2738,0.0,0.0,0.0,0.0,0.0,0.0,0.0,0.0,0.0,0.0,0.0,0.0,0.7976,0.7107,0.6092,0.5363,0.4918,0.5213,0.5292,0.5087,0.5292,0.5428,0.5362,0.4303,0.0,0.0,0.0,0.0,0.0,0.2559,0.3754,0.5276,0.418,0.3687,0.3602,0.2477,0.1608,0.1004,0.1007,0.1008,0.1008,0.1008,0.0538,0.0,0.0,0.0,0.0,0.0,0.0,0.0,0.0,0.0,0.0,0.0,0.0,0.0,0.0,0.0,0.0,0.0,0.0,0.0,0.0,0.0,0.0,0.0,0.0,0.0,0.0,0.0,0.0,0.0,0.0,0.0,0.0,0.0,0.0,0.0,0.0,0.0,0.0,0.0,0.0,0.0,0.0,0.0,0.0,0.0,0.0,0.0,0.0,0.0,0.0,0.4967,0.415,0.2567,0.1118,0.0,0.0,0.0,0.0,0.1898,0.3524,0.5049,0.6415,0.6971,0.7772,0.9486,1.1073,1.2332,1.3117,1.4437,0.0,0.0,0.0,0.0,0.0,0.0,0.0,0.0,0.0,0.0,0.0,0.0,0.7717,0.685,0.6563,0.5961,0.4952,0.5223,0.5292,0.5153,0.5292,0.5428,0.5428,0.5568,0.0,0.0,0.0,0.0,0.0,0.3691,0.3882,0.5428,0.5428,0.5428,0.5428,0.5428,0.4353,0.2878,0.288,0.288,0.288,0.288,0.174,0.0335,0.0067,0.0,0.0,0.0,0.0,0.0,0.0,0.0,0.0,0.0,0.0,0.0,0.0,0.0,0.0,0.0,0.0,0.0,0.0,0.0,0.0,0.0,0.0,0.0,0.0,0.0,0.0,0.0,0.0,0.0,0.0,0.0,0.0,0.0,0.0,0.0,0.0,0.0,0.0,0.0,0.0,0.0,0.0,0.0,0.0,0.0,0.0,0.0,0.4897,0.0,0.4144,0.2567,0.1116,0.0,0.0,0.0,0.0392,0.1898,0.4304,0.6369,0.7155,0.783,0.8795,1.0434,1.1884,1.3186,1.4122,0.0,0.0,0.0,0.0,0.0,0.0,0.0,0.0,0.0,0.0,0.0,0.0,0.0,0.8805,0.7702,0.7003,0.6193,0.5322,0.5391,0.5362,0.5359,0.5362,0.5428,0.5428,0.5428,0.0,0.0,0.0,0.0,0.546,0.5052,0.5093,0.5428,0.5428,0.5428,0.5428,0.5382,0.5113,0.4767,0.4776,0.4779,0.4779,0.4779,0.4506,0.3625,0.087,0.0,0.0,0.0,0.0,0.0,0.0,0.0,0.0,0.0,0.0,0.0,0.0,0.0,0.0,0.0,0.0,0.0,0.0,0.0,0.0,0.0,0.0,0.0,0.0,0.0,0.0,0.0,0.0,0.0,0.0,0.0,0.0,0.0,0.0,0.0,0.0,0.0,0.0,0.0,0.0,0.0,0.0,0.0,0.0,0.0,0.0,0.0,0.468,0.4525,0.4311,0.3469,0.1619,0.0,0.0,0.0,0.0392,0.1898,0.4525,0.6774,0.7218,0.8487,0.9913,1.1241,1.3365,1.5263,0.0,0.0,0.0,0.0,0.0,0.0,0.0,0.0,0.0,0.0,0.0,0.0,0.0,0.0,0.8647,0.7612,0.6626,0.5858,0.5428,0.5428,0.5428,0.5428,0.5428,0.5428,0.5428,0.5495,0.0,0.0,0.0,0.0,0.546,0.5526,0.5495,0.5428,0.5428,0.5428,0.5428,0.5376,0.5376,0.5382,0.5457,0.5528,0.5569,0.5504,0.542,0.5005,0.3076,0.1299,0.0,0.0,0.0,0.0,0.0,0.0,0.0,0.0,0.0,0.0,0.0,0.0,0.0,0.0,0.0,0.0,0.0,0.0,0.0,0.0,0.0,0.0,0.0,0.0,0.0,0.0,0.0,0.0,0.0,0.0,0.0,0.0,0.0,0.0,0.0,0.0,0.089,0.2821,0.2863,0.2404,0.1454,0.1454,0.1454,0.1382,0.0442,0.0,0.468,0.4543,0.4511,0.4497,0.2458,0.0447,0.0336,0.0336,0.0783,0.2232,0.4802,0.687,0.7412,0.9323,1.1278,1.2453,1.5227,0.0,0.0,0.0,0.0,0.0,0.0,0.0,0.0,0.0,0.0,0.0,0.0,0.0,0.0,0.0,0.0,0.713,0.5985,0.5428,0.5428,0.5428,0.5428,0.5428,0.5428,0.5442,0.5406,0.5512,0.5616,0.0,0.0,0.0,0.5579,0.5423,0.5428,0.5428,0.5428,0.5428,0.5428,0.5428,0.5428,0.5449,0.5538,0.5671,0.5752,0.5654,0.5557,0.5424,0.5437,0.3033,0.0495,0.0852,0.0496,0.0,0.0,0.0,0.0,0.0,0.0,0.0,0.0,0.0,0.0,0.0,0.0,0.0,0.0,0.0,0.0,0.0,0.0,0.0,0.0,0.0,0.0,0.0,0.0,0.0,0.0,0.0,0.0305,0.1045,0.1037,0.0959,0.0958,0.0677,0.2131,0.574,0.6155,0.5402,0.3603,0.3618,0.3626,0.3626,0.1821,0.0689,0.468,0.4558,0.4629,0.4511,0.3516,0.2395,0.1952,0.1842,0.2287,0.3858,0.58,0.7706,0.9101,1.1041,1.3152,1.5335,0.0,0.0,0.0,0.0,0.0,0.0,0.0,0.0,0.0,0.0,0.0,0.0,0.0,0.0,0.0,0.0,0.0,0.7005,0.606,0.5498,0.5428,0.5428,0.5428,0.5428,0.5428,0.545,0.5537,0.5507,0.5583,0.0,0.0,0.5514,0.5579,0.5423,0.5428,0.5428,0.5428,0.5428,0.5428,0.5428,0.5428,0.5449,0.5538,0.5603,0.564,0.5735,0.5769,0.5701,0.544,0.3967,0.2686,0.4731,0.2729,0.0,0.0,0.0,0.0,0.0,0.0,0.0,0.0,0.0,0.0,0.0,0.0,0.0,0.0,0.0,0.0,0.0,0.0,0.0,0.0,0.0,0.0,0.0,0.0,0.0,0.0,0.0,0.1737,0.5794,0.5595,0.5318,0.5309,0.3579,0.2953,0.3577,0.5369,0.615,0.5832,0.6035,0.6175,0.6179,0.5828,0.3598,0.4398,0.4453,0.4572,0.4589,0.4304,0.389,0.372,0.3553,0.3792,0.5167,0.7083,0.9032,1.0552,1.3467,1.6714,2.0236,0.0,0.0,0.0,0.0,0.0,0.0,0.0,0.0,0.0,0.0,0.0,0.0,0.0,0.0,0.0,0.0,0.0,0.0,0.6108,0.5564,0.5428,0.5428,0.544,0.5527,0.5527,0.5577,0.5732,0.564,0.563,0.5681,0.0,0.5477,0.546,0.5459,0.5428,0.5428,0.5428,0.5413,0.5494,0.5572,0.565,0.5732,0.5803,0.5881,0.5949,0.5932,0.5925,0.5855,0.5728,0.4635,0.3551,0.4304,0.2348,0.0,0.0,0.0,0.0,0.0,0.0,0.0,0.0,0.0,0.0,0.0,0.0,0.0,0.0,0.0,0.0,0.0,0.0,0.0,0.0,0.0,0.0,0.0,0.2277,0.38,0.3876,0.3874,0.4809,0.6944,0.5712,0.5317,0.6475,0.5552,0.5017,0.5028,0.599,0.6481,0.639,0.6544,0.6623,0.6702,0.6706,0.5618,0.44,0.4646,0.4874,0.517,0.499,0.4793,0.4907,0.4934,0.5306,0.6434,0.8352,1.0301,1.2165,1.6137,0.0,2.3973,0.0,0.0,0.0,0.0,0.0,0.0,0.0,0.0,0.0,0.0,0.0,0.0,0.0,0.0,0.0,0.0,0.0,0.0,0.6142,0.5571,0.5428,0.5428,0.5474,0.5553,0.5553,0.5661,0.58,0.5766,0.5732,0.5688,0.562,0.5521,0.5413,0.5442,0.5428,0.5428,0.5428,0.5454,0.5603,0.5711,0.5847,0.5976,0.5976,0.6078,0.6193,0.6112,0.6084,0.6088,0.6098,0.5324,0.4344,0.3962,0.2703,0.137,0.0831,0.0758,0.0605,0.0147,0.0,0.0,0.0,0.0,0.0,0.0,0.0,0.0,0.0,0.0,0.0,0.0,0.0,0.0,0.0,0.0,0.0,0.0,0.4293,0.7079,0.7144,0.7133,0.713,0.713,0.5328,0.5035,0.6659,0.6705,0.6644,0.6637,0.6706,0.6699,0.6525,0.6563,0.6637,0.6753,0.6857,0.6867,0.502,0.5483,0.587,0.6559,0.5595,0.4606,0.5023,0.5678,0.6601,0.787,0.9285,1.1219,1.4315,1.8984,0.0,0.0,0.0,0.0,0.0,0.0,0.0,0.0,0.0,0.0,0.0,0.0,0.0,0.0,0.0,0.0,0.0,0.0,0.0,0.0,0.0,0.571,0.5572,0.5428,0.5372,0.5393,0.5393,0.5535,0.5796,0.5664,0.5749,0.5983,0.5708,0.5583,0.5562,0.542,0.5428,0.5428,0.5428,0.5454,0.5593,0.5603,0.5694,0.5817,0.5817,0.5918,0.6067,0.62,0.6244,0.6247,0.6257,0.6183,0.6103,0.6116,0.596,0.5378,0.3417,0.2913,0.2386,0.0441,0.0,0.0,0.0,0.0,0.0,0.0,0.0,0.0,0.0,0.0,0.0,0.0,0.0,0.0,0.0,0.0,0.0,0.0,0.422,0.7128,0.7104,0.7074,0.7058,0.7058,0.679,0.6636,0.6805,0.6576,0.6552,0.6685,0.6556,0.6556,0.6685,0.6827,0.6902,0.6915,0.7037,0.7037,0.4952,0.5569,0.6063,0.6739,0.6511,0.6276,0.6804,0.7519,0.8575,1.0047,1.152,1.381,1.7905,0.0,0.0,0.0,0.0,0.0,0.0,0.0,0.0,0.0,0.0,0.0,0.0,0.0,0.0,0.0,0.0,0.0,0.0,0.0,0.0,0.0,0.0,0.5778,0.5708,0.5498,0.5454,0.5633,0.5576,0.5684,0.5942,0.5888,0.5925,0.6023,0.5911,0.581,0.5708,0.5562,0.5504,0.5511,0.5599,0.5671,0.5745,0.5935,0.604,0.6088,0.6088,0.6125,0.6183,0.624,0.6338,0.6338,0.6268,0.6268,0.6268,0.6268,0.6271,0.6103,0.5269,0.506,0.4916,0.4134,0.1917,0.0,0.0,0.0,0.0,0.0,0.0,0.0,0.0,0.0,0.0,0.0,0.0,0.0,0.0,0.2898,0.4945,0.4948,0.6385,0.7255,0.7249,0.7135,0.7193,0.7292,0.7099,0.698,0.698,0.6922,0.6871,0.6844,0.6871,0.6871,0.6844,0.6902,0.6973,0.7058,0.7024,0.7031,0.5402,0.6138,0.6949,0.8046,0.8372,0.8637,0.9542,0.9631,1.008,1.1879,1.3925,1.6365,1.9806,2.2515,0.0,0.0,0.0,0.0,0.0,0.0,0.0,0.0,0.0,0.0,0.0,0.0,0.0,0.0,0.0,0.0,0.0,0.0,0.0,0.0,0.0,0.5829,0.5794,0.5644,0.5641,0.5778,0.5681,0.5745,0.603,0.603,0.6057,0.6101,0.6051,0.5969,0.5861,0.5671,0.5589,0.561,0.58,0.5874,0.5898,0.6112,0.6217,0.6254,0.6207,0.622,0.6338,0.6338,0.6338,0.6338,0.6338,0.6338,0.6338,0.6338,0.6338,0.6274,0.6325,0.6346,0.6352,0.6363,0.422,0.1919,0.128,0.1135,0.1152,0.116,0.0504,0.0,0.0,0.0,0.0,0.0,0.0,0.0644,0.2333,0.5727,0.7966,0.7963,0.7653,0.7475,0.7475,0.7316,0.7258,0.7363,0.7224,0.7139,0.7139,0.7099,0.7048,0.6997,0.7048,0.7048,0.6997,0.6997,0.7044,0.7139,0.7041,0.7048,0.6567,0.7516,0.8739,1.0975,1.1307,1.1561,1.3219,1.1905,1.1016,1.3348,1.6243,1.8601,1.9412,2.1522,0.0,0.0,0.0,0.0,0.0,0.0,0.0,0.0,0.0,0.0,0.0,0.0,0.0,0.0,0.0,0.0,0.0,0.0,0.0,0.0,0.0,0.0,0.5783,0.578,0.5765,0.5808,0.5781,0.5881,0.6027,0.603,0.6112,0.6251,0.6098,0.603,0.601,0.5715,0.5593,0.562,0.5915,0.603,0.603,0.603,0.6129,0.624,0.6084,0.6132,0.6338,0.6338,0.6338,0.6338,0.6338,0.6338,0.6338,0.6338,0.6264,0.6295,0.6434,0.6474,0.6481,0.6585,0.6617,0.604,0.4022,0.3604,0.363,0.3624,0.1732,0.0087,0.0,0.0,0.0,0.0,0.0,0.2004,0.7314,0.7991,0.7977,0.7953,0.7827,0.7715,0.7715,0.7561,0.7373,0.7373,0.7231,0.7143,0.7139,0.7004,0.6997,0.7136,0.7004,0.7,0.7139,0.7139,0.7139,0.7139,0.7139,0.7139,0.7692,0.8427,0.9542,1.2163,1.2648,1.3057,1.5349,1.48,1.4418,1.6377,1.8171,1.9395,1.9452,0.0,0.0,0.0,0.0,0.0,0.0,0.0,0.0,0.0,0.0,0.0,0.0,0.0,0.0,0.0,0.0,0.0,0.0,0.0,0.0,0.0,0.0,0.6022,0.618,0.5885,0.5934,0.6169,0.6027,0.5928,0.5874,0.5979,0.6054,0.6101,0.6166,0.6193,0.6176,0.5979,0.5837,0.5755,0.5952,0.603,0.604,0.6152,0.622,0.6254,0.6207,0.622,0.6338,0.6338,0.6338,0.6338,0.6338,0.6338,0.6338,0.6338,0.6332,0.642,0.6461,0.663,0.6766,0.6668,0.6681,0.6549,0.5957,0.596,0.6162,0.638,0.5847,0.4838,0.3068,0.2813,0.2824,0.2824,0.284,0.3345,0.4951,0.6801,0.7919,0.7801,0.7767,0.7753,0.7753,0.7617,0.7577,0.7675,0.7543,0.7366,0.7149,0.7099,0.7099,0.7139,0.7099,0.7099,0.7139,0.7139,0.7139,0.7139,0.7139,0.72,0.927,1.0156,1.1382,1.4174,1.4629,1.4969,1.7027,1.6708,1.6242,1.7379,1.7977,1.8542,1.9005,1.9242,0.0,0.0,0.0,0.0,0.0,0.0,0.0,0.0,0.0,0.0,0.0,0.0,0.0,0.0,0.0,0.0,0.0,0.0,0.0,0.0,0.618,0.6103,0.618,0.6063,0.6063,0.6335,0.6166,0.604,0.5898,0.6051,0.6122,0.6129,0.622,0.6227,0.6166,0.6135,0.603,0.5908,0.6061,0.6122,0.6132,0.6227,0.6338,0.6338,0.6338,0.6338,0.6338,0.6338,0.6338,0.6271,0.6329,0.6346,0.6359,0.642,0.6495,0.6576,0.6637,0.679,0.6905,0.6814,0.6841,0.6888,0.6888,0.6973,0.7179,0.7424,0.7626,0.7178,0.5685,0.5553,0.5588,0.5588,0.5622,0.5572,0.5632,0.7009,0.7935,0.7835,0.7811,0.7902,0.7902,0.7767,0.7719,0.7804,0.7678,0.7516,0.7333,0.7322,0.7322,0.7322,0.7322,0.7322,0.7322,0.7322,0.7322,0.7322,0.7322,0.7373,1.1179,1.2338,1.3706,1.6545,1.7123,1.7235,1.834,1.7732,1.6882,1.6942,0.0,1.682,1.836,0.0,0.0,0.0,0.0,0.0,0.0,0.0,0.0,0.0,0.0,0.0,0.0,0.0,0.0,0.0,0.0,0.0,0.0,0.0,0.0,0.0,0.618,0.618,0.6022,0.618,0.6338,0.0,0.6338,0.6186,0.6057,0.6196,0.6338,0.6338,0.6338,0.6179,0.6061,0.6203,0.6176,0.6064,0.6207,0.6338,0.6338,0.6338,0.6338,0.6338,0.6338,0.6338,0.6338,0.6338,0.6338,0.6288,0.643,0.6471,0.6505,0.6658,0.6712,0.6753,0.6892,0.6939,0.6949,0.6949,0.7048,0.7139,0.7139,0.7149,0.7207,0.7363,0.7608,0.7681,0.7729,0.789,0.7997,0.7997,0.8004,0.7982,0.7972,0.7969,0.7962,0.8041,0.8038,0.8038,0.8038,0.7913,0.7831,0.7831,0.7709,0.7641,0.7641,0.7614,0.76,0.76,0.76,0.76,0.76,0.76,0.76,0.76,0.76,0.7607,1.2941,1.3513,1.4296,1.7656,1.9161,1.9606,1.8863,1.8154,1.7721,1.7849,1.7685,1.7631,0.0,0.0,0.0,0.0,0.0,0.0,0.0,0.0,0.0,0.0,0.0,0.0,0.0,0.0,0.0,0.0,0.0,0.0,0.0,0.0,0.0,0.6257,0.6261,0.6261,0.6257,0.6261,0.6338,0.0,0.6338,0.6244,0.6213,0.6244,0.6338,0.6338,0.6338,0.624,0.6213,0.6247,0.624,0.6213,0.6247,0.6338,0.6338,0.6338,0.6338,0.6338,0.6338,0.6338,0.6338,0.6338,0.6338,0.6288,0.643,0.6471,0.6505,0.6658,0.6787,0.6888,0.6919,0.701,0.7095,0.7095,0.7115,0.7139,0.7139,0.7238,0.7366,0.7519,0.7645,0.7773,0.7923,0.798,0.8007,0.8007,0.8031,0.8048,0.8045,0.8045,0.8045,0.8038,0.8038,0.8038,0.8038,0.8011,0.7991,0.7991,0.7963,0.7943,0.7943,0.7723,0.76,0.76,0.76,0.76,0.76,0.76,0.76,0.76,0.76,0.7658,1.4513,1.5247,1.5872,1.8662,1.9815,2.0005,1.8946,1.8236,1.7688,1.7556,1.7007,0.0,0.0,0.0,0.0,0.0,0.0,0.0,0.0,0.0,0.0,0.0,0.0,0.0,0.0,0.0,0.0,0.0,0.0,0.0,0.0,0.779,0.6984,0.6895,0.6499,0.6227,0.6149,0.6224,0.6338,0.6338,0.6338,0.6338,0.6338,0.6338,0.6338,0.6338,0.6338,0.6338,0.6338,0.6338,0.6338,0.6338,0.6338,0.6338,0.6338,0.6338,0.6338,0.6338,0.6338,0.6338,0.6338,0.6338,0.6305,0.639,0.6536,0.663,0.6722,0.6868,0.6966,0.7031,0.7031,0.7139,0.7251,0.7251,0.7251,0.7251,0.7251,0.7373,0.7526,0.7672,0.776,0.7862,0.8014,0.8038,0.8038,0.8038,0.8038,0.8038,0.8038,0.8038,0.8038,0.8038,0.8038,0.8038,0.8038,0.8038,0.8038,0.8038,0.8038,0.8038,0.8038,0.7892,0.7811,0.7811,0.7811,0.7811,0.7811,0.7811,0.7811,0.7811,0.7811,0.7848,1.569,1.6863,1.7711,1.9364,1.9695,1.9475,1.8821,1.8015,1.7269,1.6729,0.0,0.0,0.0,0.0,0.0,0.0,0.0,0.0,0.0,0.0,0.0,0.0,0.0,0.0,0.0,0.0,0.0,0.0,0.0,0.0,1.05,0.8616,0.7442,0.7325,0.6641,0.6173,0.6071,0.6196,0.6338,0.6338,0.6338,0.6338,0.6338,0.6338,0.6338,0.6338,0.6338,0.6338,0.6338,0.6338,0.6338,0.6338,0.6338,0.6338,0.6338,0.6338,0.6338,0.6338,0.6338,0.6338,0.6342,0.6288,0.6376,0.6505,0.6685,0.6827,0.6959,0.7099,0.7139,0.7146,0.7173,0.7275,0.738,0.7404,0.7431,0.7441,0.7414,0.7529,0.7672,0.7787,0.7831,0.7889,0.8018,0.8038,0.8038,0.8038,0.8038,0.8038,0.8038,0.8038,0.8038,0.8038,0.8038,0.8038,0.8038,0.8038,0.8038,0.8038,0.8038,0.8038,0.8038,0.8038,0.8038,0.8038,0.8038,0.8038,0.8038,0.8038,0.8038,0.8038,0.8038,0.8038,1.5761,1.7467,1.8684,1.9567,1.9307,1.8821,1.8715,1.7633,1.6514,0.0,0.0,0.0,0.0,0.0,0.0,0.0,0.0,0.0,0.0,0.0,0.0,0.0,0.0,0.0,0.0,0.0,0.0,0.0,0.0,0.0,0.9511,0.7463,0.6293,0.6433,0.6171,0.609,0.6227,0.6251,0.6338,0.6338,0.6338,0.6338,0.6338,0.6338,0.6338,0.6338,0.6338,0.6338,0.6338,0.6338,0.6338,0.6338,0.6338,0.6338,0.6338,0.6338,0.6338,0.6338,0.6338,0.6338,0.6281,0.6403,0.6458,0.6525,0.681,0.6912,0.6959,0.7099,0.7139,0.717,0.7305,0.7356,0.7404,0.7539,0.7662,0.7719,0.7597,0.7682,0.7787,0.7807,0.7919,0.8014,0.8035,0.8038,0.8038,0.8038,0.8038,0.8038,0.8038,0.8038,0.8038,0.8038,0.8038,0.8038,0.8038,0.8038,0.8038,0.8038,0.8038,0.8038,0.8038,0.8038,0.8038,0.8038,0.8038,0.8038,0.8038,0.8038,0.8038,0.8038,0.8038,0.8038,1.6435,1.7907,1.8768,1.9097,1.8939,1.8501,1.7688,1.6978,1.6317,0.0,0.0,0.0,0.0,0.0,0.0,0.0,0.0,0.0,0.0,0.0,0.0,0.0,0.0,0.0,0.0,0.0,0.0,0.0,0.0,1.017,1.0122,0.8023,0.6861,0.6948,0.6349,0.6058,0.6155,0.6252,0.6338,0.6338,0.6338,0.6338,0.6338,0.6338,0.6338,0.6338,0.6338,0.6338,0.6338,0.6338,0.6338,0.6338,0.6338,0.6338,0.6338,0.6338,0.6312,0.6369,0.6288,0.6369,0.6505,0.6478,0.6586,0.6753,0.6888,0.6983,0.7078,0.7227,0.7272,0.7305,0.7458,0.7556,0.7634,0.7702,0.7831,0.7923,0.7858,0.7896,0.794,0.794,0.7994,0.8038,0.8038,0.8038,0.8038,0.8038,0.8038,0.8038,0.8038,0.8038,0.8038,0.8038,0.8038,0.8038,0.8038,0.8038,0.8038,0.8038,0.8038,0.8038,0.8038,0.8038,0.8038,0.8038,0.8038,0.8038,0.8038,0.8038,0.8038,0.8038,0.8038,0.8038,1.6892,1.7879,1.8363,1.8538,1.8484,1.8011,1.6786,0.0,0.0,0.0,0.0,0.0,0.0,0.0,0.0,0.0,0.0,0.0,0.0,0.0,0.0,0.0,0.0,0.0,0.0,0.0,0.0,0.0,0.0,1.0449,1.0418,0.8358,0.7139,0.719,0.641,0.6033,0.6025,0.6184,0.6261,0.6338,0.6338,0.6338,0.6338,0.6338,0.6338,0.6338,0.6338,0.6338,0.6338,0.6338,0.6338,0.6338,0.6338,0.6338,0.6338,0.6338,0.6349,0.6458,0.6349,0.6485,0.6688,0.6614,0.6766,0.699,0.7031,0.7143,0.7282,0.7397,0.7431,0.7465,0.7614,0.7733,0.7821,0.7862,0.7957,0.8038,0.8038,0.8038,0.8038,0.8038,0.8038,0.8038,0.8038,0.8038,0.8038,0.8038,0.8038,0.8038,0.8038,0.8038,0.8038,0.8038,0.8038,0.8038,0.8038,0.8038,0.8038,0.8038,0.8038,0.8038,0.8038,0.8038,0.8038,0.8038,0.8038,0.8038,0.8038,0.8038,0.8038,0.8038,0.8038,0.8038,1.6784,1.7269,1.7435,1.8167,1.7774,1.7143,0.0,0.0,0.0,0.0,0.0,0.0,0.0,0.0,0.0,0.0,0.0,0.0,0.0,0.0,0.0,0.0,0.0,0.0,0.0,0.0,0.0,0.0,0.0,0.9352,0.9339,0.7301,0.6167,0.6371,0.6163,0.6033,0.6025,0.6029,0.6099,0.6338,0.6338,0.6338,0.6338,0.6338,0.6338,0.6338,0.6338,0.6338,0.6338,0.6338,0.6338,0.6338,0.6338,0.6338,0.6338,0.6338,0.6349,0.6471,0.6464,0.6566,0.6722,0.6861,0.7007,0.7156,0.7305,0.7455,0.7577,0.7587,0.7587,0.7621,0.7763,0.7804,0.7848,0.7994,0.8035,0.8038,0.8038,0.8038,0.8038,0.8038,0.8038,0.8038,0.8038,0.8038,0.8038,0.8038,0.8038,0.8038,0.8038,0.8038,0.8038,0.8038,0.8038,0.8038,0.8038,0.8038,0.8038,0.8038,0.8038,0.8038,0.8038,0.8038,0.8038,0.8038,0.8038,0.8038,0.8038,0.8038,0.8038,0.8038,0.8038,0.8038,1.6477,1.6733,1.6864,1.7451,1.7185,1.6659,1.6325,1.5782,0.0,0.0,0.0,0.0,0.0,0.0,0.0,0.0,0.0,0.0,0.0,0.0,0.0,0.0,0.0,0.0,0.0,0.0,0.0,0.0,0.0,0.0,0.9367,0.7829,0.674,0.6338,0.6099,0.6098,0.6162,0.6088,0.6099,0.6338,0.6338,0.6338,0.6338,0.6338,0.6338,0.6338,0.6338,0.6338,0.6338,0.6338,0.6338,0.6338,0.6338,0.6338,0.6338,0.6338,0.6413,0.6603,0.6505,0.6695,0.6976,0.6943,0.7092,0.7299,0.7356,0.7478,0.7617,0.7709,0.7736,0.777,0.7919,0.7957,0.797,0.8028,0.8038,0.8038,0.8038,0.8038,0.8038,0.8038,0.8038,0.8038,0.8038,0.8038,0.8038,0.8038,0.8038,0.8038,0.8038,0.8038,0.8038,0.8038,0.8038,0.8038,0.8038,0.8038,0.8038,0.8038,0.8038,0.8038,0.8038,0.8038,0.8038,0.8038,0.8038,0.8038,0.8038,0.8038,0.8038,0.8038,0.8038,0.8038,1.5938,1.6263,1.6448,1.6755,1.6724,1.6475,1.6146,0.0,0.0,0.0,0.0,0.0,0.0,0.0,0.0,0.0,0.0,0.0,0.0,0.0,0.0,0.0,0.0,0.0,0.0,0.0,0.0,0.0,0.0,0.0,0.9857,0.8426,0.7169,0.6266,0.5982,0.5957,0.6207,0.5998,0.608,0.6338,0.6338,0.6338,0.6338,0.6338,0.6338,0.6338,0.6338,0.6338,0.6338,0.6338,0.6338,0.6338,0.6338,0.6338,0.6345,0.6315,0.6488,0.6695,0.6644,0.6851,0.7126,0.7031,0.7204,0.7448,0.7448,0.7587,0.7767,0.7862,0.7889,0.7913,0.8014,0.8038,0.8038,0.8038,0.8038,0.8038,0.8038,0.8038,0.8038,0.8038,0.8038,0.8038,0.8038,0.8038,0.8038,0.8038,0.8038,0.8038,0.8038,0.8038,0.8038,0.8038,0.8038,0.8038,0.8038,0.8038,0.8038,0.8038,0.8038,0.8038,0.8038,0.8038,0.8038,0.8038,0.8038,0.8038,0.8038,0.8038,0.8038,0.8038,0.8038,0.8038,0.0,0.0,0.0,1.6115,1.6387,1.6602,1.6182,0.0,0.0,0.0,0.0,0.0,0.0,0.0,0.0,0.0,0.0,0.0,0.0,0.0,0.0,0.0,0.0,0.0,0.0,0.0,0.0,0.0,0.0,1.0834,1.0825,0.8861,0.7219,0.6036,0.5741,0.5711,0.6026,0.585,0.5956,0.6261,0.6261,0.6338,0.6338,0.6338,0.6338,0.6338,0.6338,0.6338,0.6338,0.6338,0.6338,0.6338,0.6338,0.6342,0.6285,0.642,0.6573,0.6729,0.6878,0.7021,0.7139,0.7139,0.7346,0.7594,0.7597,0.7801,0.8035,0.8038,0.8038,0.8038,0.8038,0.8038,0.8038,0.8038,0.8038,0.8038,0.8038,0.8038,0.8038,0.8038,0.8038,0.8038,0.8038,0.8038,0.8038,0.8038,0.8038,0.8038,0.8038,0.8038,0.8038,0.8038,0.8041,0.8045,0.8038,0.8048,0.8048,0.8038,0.8041,0.8045,0.8038,0.8041,0.8045,0.8038,0.8045,0.8045,0.8038,0.8038,0.8038,0.8038,0.8038,0.8038,1.5293,0.0,0.0,0.0,0.0,0.0,1.6504,1.6543,0.0,0.0,0.0,0.0,0.0,0.0,0.0,0.0,0.0,0.0,0.0,0.0,0.0,0.0,0.0,0.0,0.0,0.0,0.0,0.0,1.2391,1.1878,1.1156,0.9018,0.7299,0.6259,0.5908,0.5816,0.5965,0.5858,0.5879,0.6099,0.6257,0.6338,0.6338,0.6338,0.6338,0.6338,0.6338,0.6338,0.6338,0.6338,0.6338,0.6338,0.6338,0.6325,0.6417,0.6458,0.6637,0.6871,0.6915,0.7021,0.7139,0.7139,0.7272,0.7455,0.7567,0.7729,0.7896,0.8007,0.8038,0.8038,0.8038,0.8038,0.8038,0.8038,0.8038,0.8038,0.8038,0.8038,0.8038,0.8038,0.8038,0.8038,0.8038,0.8038,0.8038,0.8038,0.8038,0.8038,0.8038,0.8038,0.8038,0.8038,0.814,0.8163,0.8048,0.8235,0.8269,0.8055,0.8143,0.8157,0.8045,0.8147,0.8153,0.8041,0.815,0.815,0.8038,0.8038,0.8038,0.8038,0.8038,0.8038,0.0,0.0,0.0,0.0,0.0,0.0,1.6631,1.6665,1.6826,0.0,0.0,0.0,0.0,0.0,0.0,0.0,0.0,0.0,0.0,0.0,0.0,0.0,0.0,0.0,0.0,0.0,0.0,1.2835,1.2786,1.2069,1.0506,0.9103,0.7685,0.6229,0.5943,0.5868,0.5933,0.5905,0.5915,0.6018,0.618,0.6338,0.6338,0.6338,0.6338,0.6338,0.6338,0.6338,0.6268,0.6325,0.6315,0.6345,0.6325,0.64,0.6488,0.6617,0.6776,0.6939,0.6997,0.7071,0.7139,0.7139,0.7244,0.74,0.7553,0.7699,0.7841,0.7994,0.8038,0.8038,0.8038,0.8038,0.8038,0.8038,0.8038,0.8038,0.8038,0.8038,0.8038,0.8038,0.8038,0.8038,0.8038,0.8038,0.8038,0.8038,0.8038,0.8038,0.8038,0.8038,0.8038,0.8038,0.8177,0.8208,0.8052,0.8313,0.8353,0.8058,0.8238,0.8262,0.8048,0.8187,0.8197,0.8041,0.813,0.813,0.8038,0.8038,0.8038,0.8038,0.8038,0.8038,0.0,0.0,0.0,0.0,0.0,0.0,1.6621,1.6665,1.6908,0.0,0.0,0.0,0.0,0.0,0.0,0.0,0.0,0.0,0.0,0.0,0.0,0.0,0.0,0.0,0.0,1.2902,1.2875,1.2852,1.2738,1.1655,0.9263,0.9032,0.8035,0.6099,0.5902,0.5795,0.5808,0.5908,0.5999,0.5989,0.617,0.6338,0.6338,0.6338,0.6338,0.6338,0.6355,0.6352,0.6271,0.6413,0.639,0.6278,0.6434,0.6498,0.6532,0.682,0.6939,0.697,0.7095,0.7149,0.7166,0.7166,0.7268,0.7424,0.7577,0.7709,0.7841,0.7994,0.8038,0.8038,0.8038,0.8038,0.8038,0.8038,0.8038,0.8038,0.8038,0.8038,0.8038,0.8038,0.8038,0.8038,0.8038,0.8038,0.8038,0.8038,0.8038,0.8038,0.8038,0.8038,0.8038,0.8038,0.8191,0.8225,0.8055,0.8343,0.8391,0.8062,0.8333,0.8374,0.8075,0.8211,0.8221,0.8069,0.8048,0.8038,0.8038,0.8038,0.8038,0.8038,0.8038,0.8038,0.0,0.0,0.0,0.0,0.0,0.0,1.6553,1.6665,1.6706,0.0,0.0,0.0,0.0,0.0,0.0,0.0,0.0,0.0,0.0,0.0,0.0,0.0,0.0,0.0,0.0,1.3279,1.3406,1.3467,1.2559,1.099,0.8383,0.8196,0.7626,0.6261,0.6081,0.5976,0.5959,0.5983,0.6001,0.602,0.6183,0.6338,0.6338,0.6338,0.6338,0.6268,0.638,0.6366,0.6271,0.6413,0.639,0.6288,0.6552,0.6658,0.6678,0.6861,0.7,0.7102,0.7132,0.7221,0.7326,0.7326,0.7431,0.7584,0.7726,0.779,0.7841,0.7994,0.8038,0.8038,0.8038,0.8038,0.8038,0.8038,0.8038,0.8038,0.8038,0.8038,0.8038,0.8038,0.8038,0.8038,0.8038,0.8038,0.8038,0.8038,0.8038,0.8038,0.8038,0.8038,0.8038,0.8038,0.8279,0.8333,0.8062,0.8537,0.8618,0.8072,0.8435,0.8533,0.8238,0.8364,0.8374,0.8228,0.8102,0.8038,0.8038,0.8038,0.8038,0.8038,0.8038,0.8038,0.0,0.0,0.0,1.4678,0.0,0.0,0.0,1.6023,1.603,0.0,0.0,0.0,0.0,0.0,0.0,0.0,0.0,0.0,0.0,0.0,0.0,0.0,0.0,0.0,0.0,1.3526,1.3339,1.2825,1.2116,1.0684,0.8229,0.804,0.752,0.6407,0.6237,0.6132,0.6029,0.6088,0.6088,0.6029,0.6213,0.6338,0.6338,0.6338,0.6338,0.6345,0.641,0.643,0.6383,0.6607,0.6614,0.6495,0.6641,0.6749,0.6841,0.7068,0.7146,0.716,0.7316,0.737,0.7383,0.7461,0.7536,0.7628,0.777,0.7865,0.794,0.8018,0.8038,0.8038,0.8038,0.8038,0.8038,0.8038,0.8038,0.8038,0.8038,0.8038,0.8038,0.8038,0.8038,0.8038,0.8038,0.8038,0.8038,0.8038,0.8038,0.8038,0.8038,0.8106,0.8126,0.8048,0.8374,0.8476,0.818,0.8635,0.8743,0.8289,0.8543,0.8611,0.8384,0.8377,0.8306,0.816,0.8079,0.8038,0.8038,0.8038,0.8038,0.8038,0.8038,0.8038,0.0,0.0,0.0,0.0,0.0,1.5254,0.0,0.0,0.0,1.5695,0.0,0.0,0.0,0.0,0.0,0.0,0.0,0.0,0.0,0.0,0.0,0.0,0.0,0.0,0.0,1.3868,1.3349,1.2187,1.1641,1.0482,0.8384,0.7934,0.741,0.6539,0.6396,0.622,0.6022,0.618,0.618,0.6022,0.6257,0.6338,0.6338,0.6338,0.6338,0.6349,0.6441,0.6502,0.6498,0.6803,0.6858,0.6749,0.6773,0.6844,0.6959,0.7227,0.7265,0.7221,0.7468,0.7512,0.7478,0.76,0.7658,0.7706,0.7821,0.794,0.8038,0.8038,0.8038,0.8038,0.8038,0.8038,0.8038,0.8038,0.8038,0.8038,0.8038,0.8038,0.8038,0.8038,0.8038,0.8038,0.8038,0.8038,0.8038,0.8038,0.8038,0.8038,0.8038,0.8174,0.8221,0.8099,0.8459,0.8601,0.8333,0.8696,0.8798,0.8462,0.8611,0.8642,0.8489,0.8401,0.8255,0.8041,0.8069,0.8069,0.8038,0.8038,0.8038,0.8038,0.8038,0.8038,0.0,0.0,0.0,0.0,1.4194,0.0,0.0,0.0,1.4859,1.5238,0.0,0.0,0.0,0.0,0.0,0.0,0.0,0.0,0.0,0.0,0.0,0.0,0.0,0.0,0.0,0.0,1.4229,1.2783,1.1697,1.0378,0.8689,0.7617,0.6857,0.6488,0.6508,0.6437,0.6261,0.6261,0.6261,0.6261,0.6261,0.6338,0.6338,0.6338,0.6338,0.6278,0.6556,0.6597,0.6498,0.6803,0.6919,0.6915,0.7041,0.7024,0.6949,0.7105,0.7241,0.735,0.7387,0.7556,0.7763,0.778,0.7879,0.7991,0.8007,0.8024,0.8038,0.8038,0.8038,0.8038,0.8038,0.8038,0.8038,0.8038,0.8038,0.8038,0.8038,0.8038,0.8038,0.8038,0.8038,0.8038,0.8038,0.8038,0.8038,0.8038,0.8038,0.8038,0.8038,0.8174,0.8262,0.8245,0.8523,0.8642,0.8472,0.8754,0.8754,0.8323,0.8557,0.8642,0.8489,0.8598,0.8465,0.8048,0.8174,0.8177,0.8038,0.8038,0.8038,0.8038,0.8038,0.8038,0.0,0.0,0.0,0.0,0.0,0.0,0.0,0.0,1.463,0.0,0.0,0.0,0.0,0.0,0.0,0.0,0.0,0.0,0.0,0.0,0.0,0.0,0.0,0.0,0.0,0.0,0.0,0.0,0.0,1.0124,0.7871,0.7218,0.6881,0.6774,0.6575,0.6506,0.6419,0.6338,0.6338,0.6338,0.6338,0.6338,0.6338,0.6338,0.6305,0.6393,0.6607,0.6715,0.6753,0.6963,0.7051,0.7058,0.7115,0.7102,0.7082,0.7319,0.739,0.7407,0.7668,0.778,0.7824,0.7916,0.7987,0.8038,0.8038,0.8038,0.8038,0.8038,0.8038,0.8038,0.8038,0.8038,0.8038,0.8038,0.8038,0.8038,0.8038,0.8038,0.8038,0.8038,0.8038,0.8038,0.8038,0.8038,0.8069,0.816,0.8096,0.8102,0.8275,0.8353,0.8394,0.8394,0.8662,0.8747,0.8503,0.8764,0.8821,0.8543,0.8642,0.8564,0.8238,0.8452,0.8408,0.8045,0.8194,0.8194,0.8038,0.8038,0.8038,0.8038,0.8038,0.8038,1.3176,0.0,0.0,0.0,0.0,0.0,0.0,0.0,0.0,0.0,0.0,0.0,0.0,0.0,0.0,0.0,0.0,0.0,0.0,0.0,0.0,0.0,0.0,0.0,0.0,0.0,0.0,1.181,1.1351,1.0097,0.769,0.7184,0.6898,0.6844,0.6624,0.6507,0.6423,0.6338,0.6338,0.6338,0.6338,0.6338,0.6264,0.6302,0.6376,0.6481,0.6678,0.6827,0.6939,0.7082,0.7139,0.7143,0.7187,0.7204,0.7231,0.7455,0.7516,0.7539,0.7865,0.7933,0.7892,0.8004,0.8038,0.8038,0.8038,0.8038,0.8038,0.8038,0.8038,0.8038,0.8038,0.8038,0.8038,0.8038,0.8038,0.8038,0.8038,0.8038,0.8038,0.8038,0.8038,0.8038,0.8038,0.8038,0.8075,0.8191,0.8113,0.8116,0.8333,0.8397,0.8425,0.8425,0.8696,0.8767,0.8506,0.8723,0.8811,0.8659,0.8648,0.8486,0.8116,0.8347,0.8343,0.8045,0.8194,0.8194,0.8038,0.8038,0.8038,0.8038,0.8038,0.8038,0.0,0.0,0.0,1.5059,0.0,0.0,0.0,0.0,1.4305,0.0,0.0,0.0,0.0,0.0,0.0,0.0,0.0,0.0,0.0,0.0,0.0,0.0,0.0,0.0,0.0,0.0,0.0,1.3294,1.1894,1.047,0.8886,0.7775,0.6954,0.6675,0.666,0.6577,0.6345,0.6338,0.6338,0.6338,0.6338,0.6338,0.6268,0.6403,0.6468,0.6488,0.679,0.6922,0.6939,0.7082,0.7139,0.7153,0.7305,0.7363,0.7366,0.7373,0.7556,0.7797,0.7814,0.7913,0.8031,0.8038,0.8038,0.8038,0.8038,0.8038,0.8038,0.8038,0.8038,0.8038,0.8038,0.8038,0.8038,0.8038,0.8038,0.8038,0.8038,0.8038,0.8038,0.8038,0.8038,0.8038,0.8038,0.8038,0.8041,0.8045,0.8041,0.8041,0.8052,0.8184,0.8279,0.8279,0.854,0.8655,0.8496,0.8625,0.8652,0.8499,0.8489,0.8421,0.8269,0.8404,0.8343,0.8045,0.8194,0.8194,0.8038,0.8038,0.8038,0.8038,0.8038,0.8038,0.0,0.0,1.333,1.4316,0.0,0.0,0.0,0.0,0.0,0.0,0.0,0.0,0.0,0.0,0.0,0.0,0.0,0.0,0.0,0.0,0.0,0.0,0.0,0.0,0.0,0.0,0.0,1.3034,1.169,1.0285,0.8937,0.7867,0.7214,0.6957,0.6826,0.6661,0.6581,0.6419,0.6338,0.6338,0.6338,0.6338,0.6342,0.6312,0.6437,0.6627,0.6732,0.6888,0.7071,0.7122,0.7139,0.7156,0.7312,0.7434,0.7533,0.7628,0.7726,0.7824,0.7926,0.7994,0.8038,0.8038,0.8038,0.8038,0.8038,0.8038,0.8038,0.8038,0.8038,0.8038,0.8038,0.8038,0.8038,0.8038,0.8038,0.8038,0.8038,0.8038,0.8038,0.8038,0.8038,0.8038,0.8038,0.8038,0.8075,0.8177,0.8106,0.8109,0.8306,0.8296,0.8306,0.8401,0.8499,0.8499,0.8353,0.8391,0.8438,0.8479,0.8482,0.8418,0.8275,0.8408,0.8343,0.8045,0.8194,0.8194,0.8038,0.8038,0.8038,0.8038,0.8038,0.8038,1.2691,1.3213,0.0,1.4375,1.5117,0.0,1.5658,0.0,0.0,0.0,0.0,0.0,0.0,0.0,0.0,1.2513,1.2716,0.0,0.0,1.3348,0.0,0.0,0.0,0.0,0.0,0.0,1.4218,1.2914,1.1536,1.0301,0.0,0.0,0.7319,0.7146,0.6956,0.675,0.6662,0.6419,0.6338,0.6338,0.6312,0.6312,0.6345,0.6427,0.6573,0.6705,0.681,0.6963,0.7139,0.7139,0.7139,0.716,0.737,0.7512,0.7617,0.7756,0.7845,0.7906,0.8007,0.8038,0.8038,0.8038,0.8038,0.8038,0.8038,0.8038,0.8038,0.8038,0.8038,0.8038,0.8038,0.8038,0.8038,0.8038,0.8038,0.8038,0.8038,0.8038,0.8038,0.8038,0.8038,0.8038,0.8038,0.8038,0.8072,0.8174,0.8102,0.8109,0.8299,0.8245,0.8225,0.8316,0.8374,0.837,0.8279,0.8272,0.8309,0.8401,0.8455,0.8418,0.8275,0.836,0.8316,0.8126,0.8167,0.8167,0.8123,0.8123,0.8092,0.8041,0.8147,0.814]}]]